[[{"header":{"parameterUnit":"m.s-1","parameterCategory":1,"la1":31.0,"la2":29.5877,"lo1":-88.7671,"lo2":-86.6584,"dy":0.0162,"dx":0.0185,"nx":115,"ny":88,"refTime":"2026-03-10T12:00:00:Z","depth":0,"parameterNumber":2,"parameterNumberName":"U-component_of_WINDS"},"data":[0.0,0.0,0.0,0.0,0.0,0.0,0.0,0.0,0.0,0.0,0.0,0.0,0.0,0.0,0.0,0.0,0.0,0.0,0.0,0.0,0.0,0.0,0.0,0.0,0.0,0.0,0.0,0.0,0.0,0.0,0.0,0.0,0.0,0.0,0.0,0.0,0.0,0.0,0.0,0.0,0.0,0.0,0.0,0.0,0.0,0.0,0.0,0.0,0.0,0.0,0.0,0.0,0.0,0.0,0.0,0.0,0.0,0.0,0.0,0.0,0.0,0.0,0.0,0.0,0.0,0.0,0.0,0.0,0.0,0.0,0.0,0.0,0.0,0.0,0.0,0.0,0.0,0.0,0.0,0.0,0.0,0.0,0.0,0.0,0.0,0.0,0.0,0.0,0.0,0.0,0.0,0.0,0.0,0.0,0.0,0.0,0.0,0.0,0.0,0.0,0.0,0.0,0.0,0.0,0.0,0.0,0.0,0.0,0.0,0.0,0.0,0.0,0.0,0.0,0.0,0.0,0.0,0.0,0.0,0.0,0.0,0.0,0.0,0.0,0.0,0.0,0.0,0.0,0.0,0.0,0.0,0.0,0.0,0.0,0.0,0.0,0.0,0.0,0.0,0.0,0.0,0.0,0.0,0.0,0.0,0.0,0.0,0.0,0.0,0.0,0.0,0.0,0.0,0.0,0.0,0.0,0.0,0.0,0.0,0.0,0.0,0.0,0.0,0.0,0.0,0.0,0.0,0.0,0.0,0.0,0.0,0.0,0.0,0.0,0.0,0.0,0.0,0.0,0.0,0.0,0.0,0.0,0.0,0.0,0.0,0.0,0.0,0.0,0.0,0.0,0.0,0.0,0.0,0.0,0.0,0.0,0.0,0.0,0.0,0.0,0.0,0.0,0.0,0.0,0.0,0.0,0.0,0.0,0.0,0.0,0.0,0.0,0.0,0.0,0.0,0.0,0.0,0.0,0.0,0.0,0.0,0.0,0.0,0.0,0.0,0.0,0.0,0.0,0.0,0.0,0.0,0.0,0.0,0.0,0.0,0.0,0.0,0.0,0.0,0.0,0.0,0.0,0.0,0.0,0.0,0.0,0.0,0.0,0.0,0.0,0.0,0.0,0.0,0.0,0.0,0.0,0.0,0.0,0.0,0.0,0.0,0.0,0.0,0.0,0.0,0.0,0.0,0.0,0.0,0.0,0.0,0.0,0.0,0.0,0.0,0.0,0.0,0.0,0.0,0.0,0.0,0.0,0.0,0.0,0.0,0.0,0.0,0.0,0.0,0.0,0.0,0.0,0.0,0.0,0.0,0.0,0.0,0.0,0.0,0.0,0.0,0.0,0.0,0.0,0.0,0.0,0.0,0.0,0.0,0.0,0.0,0.0,0.0,0.0,0.0,0.0,0.0,0.0,0.0,0.0,0.0,0.0,0.0,0.0,0.0,0.0,0.0,0.0,0.0,0.0,0.0,0.0,0.0,0.0,0.0,0.0,0.0,0.0,0.0,0.0,0.0,0.0,0.0,0.0,0.0,0.0,0.0,0.0,0.0,0.0,0.0,0.0,0.0,0.0,0.0,0.0,0.0,0.0,0.0,0.0,0.0,0.0,0.0,0.0,0.0,0.0,0.0,0.0,0.0,0.0,0.0,0.0,0.0,0.0,0.0,0.0,0.0,0.0,0.0,0.0,0.0,0.0,0.0,0.0,0.0,0.0,0.0,0.0,0.0,0.0,0.0,0.0,0.0,0.0,0.0,0.0,0.0,0.0,0.0,0.0,0.0,0.0,0.0,0.0,0.0,0.0,0.0,0.0,0.0,0.0,0.0,0.0,0.0,0.0,0.0,0.0,0.0,0.0,0.0,0.0,0.0,0.0,0.0,0.0,0.0,0.0,0.0,0.0,0.0,0.0,0.0,0.0,0.0,0.0,0.0,0.0,0.0,0.0,0.0,0.0,0.0,0.0,0.0,0.0,0.0,0.0,0.0,0.0,0.0,0.0,0.0,0.0,0.0,0.0,0.0,0.0,0.0,0.0,0.0,0.0,0.0,0.0,0.0,0.0,0.0,0.0,0.0,0.0,0.0,0.0,0.0,0.0,0.0,0.0,0.0,0.0,0.0,0.0,0.0,0.0,0.0,0.0,0.0,0.0,0.0,0.0,0.0,0.0,0.0,0.0,0.0,0.0,0.0,0.0,0.0,0.0,0.0,0.0,0.0,0.0,0.0,0.0,0.0,0.0,0.0,0.0,0.0,0.0,0.0,0.0,0.0,0.0,0.0,0.0,0.0,0.0,0.0,0.0,0.0,0.0,0.0,0.0,0.0,0.0,0.0,0.0,0.0,0.0,0.0,0.0,0.0,0.0,0.0,0.0,0.0,0.0,0.0,0.0,0.0,0.0,0.0,0.0,0.0,0.0,0.0,0.0,0.0,0.0,0.0,0.0,0.0,0.0,0.0,0.0,0.0,0.0,0.0,0.0,0.0,0.0,0.0,0.0,0.0,0.0,0.0,0.0,0.0,0.0,0.0,0.0,0.0,0.0,0.0,0.0,0.0,0.0,0.0,0.0,0.0,0.0,0.0,0.0,0.0,0.0,0.0,0.0,0.0,0.0,0.0,0.0,0.0,0.0,0.0,0.0,0.0,0.0,0.0,0.0,0.0,0.0,0.0,0.0,0.0,0.0,0.0,0.0,0.0,0.0,0.0,0.0,0.0,0.0,0.0,0.0,0.0,0.0,0.0,0.0,0.0,0.0,0.0,0.0,0.0,0.0,0.0,0.0,0.0,0.0,0.0,0.0,0.0,0.0,0.0,0.0,0.0,0.0,0.0,0.0,0.0,0.0,0.0,0.0,0.0,0.0,0.0,0.0,0.0,0.0,0.0,0.0,0.0,0.0,0.0,0.0,0.0,0.0,0.0,0.0,0.0,0.0,0.0,0.0,0.0,0.0,0.0,0.0,0.0,0.0,0.0,0.0,0.0,0.0,0.0,0.0,0.0,0.0,0.0,0.0,0.0,0.0,0.0,0.0,0.0,0.0,0.0,0.0,0.0,0.0,0.0,0.0,0.0,0.0,0.0,0.0,0.0,0.0,0.0,0.0,0.0,0.0,0.0,0.0,0.0,0.0,0.0,0.0,0.0,0.0,0.0,0.0,0.0,0.0,0.0,0.0,0.0,0.0,0.0,0.0,0.0,0.0,0.0,0.0,0.0,0.0,0.0,0.0,0.0,0.0,0.0,0.0,0.0,0.0,0.0,0.0,0.0,0.0,0.0,0.0,0.0,0.0,0.0,0.0,0.0,0.0,0.0,0.0,0.0,0.0,0.0,0.0,0.0,0.0,0.0,0.0,0.0,0.0,0.0,0.0,0.0,0.0,0.0,0.0,0.0,0.0,0.0,0.0,0.0,0.0,0.0,0.0,0.0,0.0,0.0,0.0,0.0,0.0,0.0,0.0,0.0,0.0,0.0,0.0,0.0,0.0,0.0,0.0,0.0,0.0,0.0,0.0,0.0,0.0,0.0,0.0,0.0,0.0,0.0,0.0,0.0,0.0,0.0,0.0,0.0,0.0,0.0,0.0,0.0,0.0,0.0,0.0,0.0,0.0,0.0,0.0,0.0,0.0,0.0,0.0,0.0,0.0,0.0,0.0,0.0,0.0,0.0,0.0,0.0,0.0,0.0,0.0,0.0,0.0,0.0,0.0,0.0,0.0,0.0,0.0,0.0,0.0,0.0,0.0,0.0,0.0,0.0,0.0,0.0,0.0,0.0,0.0,0.0,0.0,0.0,0.0,0.0,0.0,0.0,0.0,0.0,0.0,0.0,0.0,0.0,0.0,0.0,0.0,0.0,0.0,0.0,0.0,0.0,0.0,0.0,0.0,0.0,0.0,0.0,0.0,0.0,0.0,0.0,0.0,0.0,0.0,0.0,0.0,0.0,0.0,0.0,0.0,0.0,0.0,0.0,0.0,0.0,0.0,0.0,0.0,0.0,0.0,0.0,0.0,0.0,0.0,0.0,0.0,0.0,0.0,0.0,0.0,0.0,0.0,0.0,0.0,0.0,0.0,0.0,0.0,0.0,0.0,0.0,0.0,0.0,0.0,0.0,0.0,0.0,0.0,0.0,0.0,0.0,0.0,0.0,0.0,0.0,0.0,0.0,0.0,0.0,0.0,0.0,0.0,0.0,0.0,0.0,0.0,0.0,0.0,0.0,0.0,0.0,0.0,0.0,0.0,0.0,0.0,0.0,0.0,0.0,0.0,0.0,0.0,0.0,0.0,0.0,0.0,-2.5308,0.0,0.0,0.0,0.0,0.0,0.0,0.0,0.0,0.0,0.0,0.0,0.0,0.0,0.0,0.0,0.0,0.0,0.0,0.0,0.0,0.0,0.0,0.0,0.0,0.0,0.0,0.0,0.0,0.0,0.0,0.0,0.0,0.0,0.0,0.0,0.0,0.0,0.0,0.0,0.0,0.0,0.0,0.0,0.0,0.0,0.0,0.0,0.0,0.0,0.0,0.0,0.0,0.0,0.0,0.0,0.0,0.0,0.0,0.0,0.0,0.0,0.0,0.0,0.0,0.0,0.0,0.0,0.0,0.0,0.0,0.0,0.0,0.0,0.0,0.0,0.0,0.0,0.0,0.0,0.0,0.0,0.0,0.0,0.0,0.0,0.0,0.0,0.0,0.0,0.0,0.0,0.0,0.0,0.0,0.0,0.0,0.0,0.0,0.0,0.0,0.0,0.0,0.0,0.0,0.0,0.0,0.0,0.0,0.0,0.0,-2.5308,-2.5308,-2.5308,-2.5308,-2.5308,0.0,0.0,0.0,0.0,0.0,0.0,0.0,0.0,0.0,0.0,0.0,0.0,0.0,0.0,0.0,0.0,0.0,0.0,0.0,0.0,0.0,0.0,0.0,0.0,0.0,0.0,0.0,0.0,0.0,0.0,0.0,0.0,0.0,0.0,0.0,0.0,0.0,0.0,0.0,0.0,0.0,0.0,0.0,0.0,0.0,0.0,0.0,0.0,0.0,0.0,0.0,0.0,0.0,0.0,0.0,0.0,0.0,0.0,0.0,0.0,0.0,0.0,0.0,0.0,0.0,0.0,0.0,0.0,0.0,0.0,0.0,0.0,0.0,0.0,0.0,0.0,0.0,0.0,0.0,0.0,0.0,0.0,0.0,0.0,0.0,0.0,0.0,0.0,0.0,0.0,0.0,0.0,0.0,0.0,0.0,0.0,0.0,0.0,0.0,0.0,0.0,0.0,0.0,0.0,0.0,0.0,0.0,0.0,0.0,0.0,0.0,0.0,-2.5904,-2.5885,-2.5885,0.0,0.0,0.0,0.0,0.0,0.0,0.0,0.0,0.0,0.0,0.0,0.0,0.0,0.0,0.0,0.0,0.0,0.0,0.0,0.0,0.0,0.0,0.0,0.0,0.0,0.0,0.0,0.0,0.0,0.0,0.0,0.0,0.0,0.0,0.0,0.0,0.0,0.0,0.0,0.0,0.0,0.0,0.0,0.0,0.0,0.0,0.0,0.0,0.0,0.0,0.0,0.0,0.0,0.0,0.0,0.0,0.0,0.0,0.0,0.0,0.0,0.0,0.0,0.0,0.0,0.0,0.0,0.0,0.0,0.0,0.0,0.0,0.0,0.0,0.0,0.0,0.0,0.0,0.0,0.0,0.0,0.0,0.0,0.0,0.0,0.0,0.0,0.0,0.0,0.0,0.0,0.0,0.0,0.0,0.0,0.0,0.0,0.0,0.0,0.0,0.0,0.0,0.0,0.0,0.0,0.0,0.0,0.0,0.0,0.0,-2.6058,-2.7607,-2.7659,0.0,-2.7664,0.0,0.0,0.0,0.0,0.0,0.0,0.0,0.0,0.0,0.0,0.0,0.0,0.0,0.0,0.0,0.0,0.0,0.0,0.0,0.0,0.0,0.0,0.0,0.0,0.0,0.0,0.0,0.0,0.0,0.0,0.0,0.0,0.0,0.0,0.0,0.0,0.0,0.0,0.0,0.0,0.0,0.0,0.0,0.0,0.0,0.0,0.0,0.0,0.0,0.0,0.0,0.0,0.0,0.0,0.0,0.0,0.0,0.0,0.0,0.0,0.0,0.0,0.0,0.0,0.0,0.0,0.0,0.0,0.0,0.0,0.0,0.0,0.0,0.0,0.0,0.0,0.0,0.0,0.0,0.0,0.0,0.0,0.0,0.0,0.0,0.0,0.0,0.0,0.0,0.0,0.0,0.0,0.0,0.0,0.0,0.0,0.0,0.0,0.0,0.0,0.0,0.0,0.0,0.0,0.0,0.0,0.0,0.0,0.0,0.0,0.0,-2.789,-2.7792,-2.7773,0.0,0.0,0.0,0.0,0.0,0.0,0.0,0.0,0.0,0.0,0.0,0.0,0.0,0.0,0.0,0.0,0.0,0.0,0.0,0.0,0.0,0.0,0.0,0.0,0.0,0.0,0.0,0.0,0.0,0.0,0.0,0.0,0.0,0.0,0.0,0.0,0.0,0.0,0.0,0.0,0.0,0.0,0.0,0.0,0.0,0.0,0.0,0.0,0.0,0.0,0.0,0.0,0.0,0.0,0.0,0.0,0.0,0.0,0.0,0.0,0.0,0.0,0.0,0.0,0.0,0.0,0.0,0.0,0.0,0.0,0.0,0.0,0.0,0.0,0.0,0.0,0.0,0.0,0.0,0.0,0.0,0.0,0.0,0.0,0.0,0.0,0.0,0.0,0.0,0.0,0.0,0.0,0.0,0.0,0.0,0.0,0.0,0.0,0.0,0.0,0.0,0.0,0.0,0.0,0.0,0.0,0.0,0.0,0.0,0.0,-2.7505,0.0,-2.8538,-2.8173,-2.7816,-2.7538,0.0,0.0,0.0,0.0,0.0,0.0,0.0,0.0,0.0,0.0,0.0,0.0,0.0,0.0,0.0,0.0,0.0,0.0,0.0,0.0,0.0,0.0,0.0,0.0,0.0,0.0,0.0,0.0,0.0,0.0,0.0,0.0,0.0,0.0,0.0,0.0,0.0,0.0,0.0,0.0,0.0,0.0,0.0,0.0,0.0,0.0,0.0,0.0,0.0,0.0,0.0,0.0,0.0,0.0,0.0,0.0,0.0,0.0,0.0,0.0,0.0,0.0,0.0,0.0,0.0,0.0,0.0,0.0,0.0,0.0,0.0,0.0,0.0,0.0,0.0,0.0,0.0,0.0,0.0,0.0,0.0,0.0,0.0,0.0,0.0,0.0,0.0,0.0,0.0,0.0,0.0,0.0,0.0,0.0,0.0,0.0,0.0,0.0,0.0,0.0,0.0,0.0,0.0,0.0,0.0,0.0,0.0,0.0,0.0,-2.864,-2.8679,-3.0192,-2.9289,-2.809,0.0,0.0,0.0,0.0,0.0,0.0,0.0,0.0,0.0,0.0,0.0,0.0,0.0,0.0,0.0,0.0,0.0,0.0,0.0,0.0,0.0,0.0,0.0,0.0,0.0,0.0,0.0,0.0,0.0,0.0,0.0,0.0,0.0,0.0,0.0,0.0,0.0,0.0,0.0,0.0,0.0,0.0,0.0,0.0,0.0,0.0,0.0,0.0,0.0,0.0,0.0,0.0,0.0,0.0,0.0,0.0,0.0,0.0,0.0,0.0,0.0,0.0,0.0,0.0,0.0,0.0,0.0,0.0,0.0,0.0,0.0,0.0,0.0,0.0,0.0,0.0,0.0,0.0,0.0,0.0,0.0,0.0,0.0,0.0,0.0,0.0,0.0,0.0,0.0,0.0,0.0,0.0,0.0,0.0,0.0,0.0,0.0,0.0,0.0,0.0,0.0,0.0,0.0,0.0,0.0,0.0,0.0,0.0,0.0,-2.7077,-2.7621,-2.8967,-3.1038,-2.8626,-2.7255,0.0,0.0,0.0,0.0,0.0,0.0,0.0,0.0,0.0,0.0,0.0,0.0,0.0,0.0,0.0,0.0,0.0,0.0,0.0,0.0,0.0,0.0,0.0,0.0,0.0,0.0,0.0,0.0,0.0,0.0,0.0,0.0,0.0,0.0,0.0,0.0,0.0,0.0,0.0,0.0,0.0,0.0,0.0,0.0,0.0,0.0,0.0,0.0,0.0,0.0,0.0,0.0,0.0,0.0,0.0,0.0,0.0,0.0,0.0,0.0,0.0,0.0,0.0,0.0,0.0,0.0,0.0,0.0,0.0,0.0,0.0,0.0,0.0,0.0,0.0,0.0,0.0,0.0,0.0,0.0,0.0,0.0,0.0,0.0,0.0,0.0,0.0,0.0,0.0,0.0,0.0,0.0,0.0,0.0,0.0,0.0,0.0,0.0,0.0,0.0,0.0,0.0,0.0,0.0,0.0,0.0,0.0,0.0,0.0,-2.6942,0.0,-2.9833,0.0,-2.8007,-2.6268,0.0,0.0,0.0,0.0,0.0,0.0,0.0,0.0,0.0,0.0,0.0,0.0,0.0,0.0,0.0,0.0,0.0,0.0,0.0,0.0,0.0,0.0,0.0,0.0,0.0,0.0,0.0,0.0,0.0,0.0,0.0,0.0,0.0,0.0,0.0,0.0,0.0,0.0,0.0,0.0,0.0,0.0,0.0,0.0,0.0,0.0,0.0,0.0,0.0,0.0,0.0,0.0,0.0,0.0,0.0,0.0,0.0,0.0,0.0,0.0,0.0,0.0,0.0,0.0,0.0,0.0,0.0,0.0,0.0,0.0,0.0,0.0,0.0,0.0,0.0,0.0,0.0,0.0,0.0,0.0,0.0,0.0,0.0,0.0,0.0,0.0,0.0,0.0,0.0,0.0,0.0,0.0,0.0,0.0,0.0,0.0,0.0,0.0,0.0,0.0,0.0,0.0,0.0,0.0,0.0,0.0,0.0,0.0,-2.6981,-3.0135,-3.1058,-3.1121,-3.0404,-2.7669,-2.518,0.0,0.0,0.0,0.0,0.0,0.0,0.0,0.0,0.0,0.0,0.0,0.0,0.0,0.0,0.0,0.0,0.0,0.0,0.0,0.0,0.0,0.0,0.0,0.0,0.0,0.0,0.0,0.0,0.0,0.0,0.0,0.0,0.0,0.0,0.0,0.0,0.0,0.0,0.0,0.0,0.0,0.0,0.0,0.0,0.0,0.0,0.0,0.0,0.0,0.0,0.0,0.0,0.0,0.0,0.0,0.0,0.0,0.0,0.0,0.0,0.0,0.0,0.0,0.0,0.0,0.0,0.0,0.0,0.0,0.0,0.0,0.0,0.0,0.0,0.0,0.0,0.0,0.0,0.0,0.0,0.0,0.0,0.0,0.0,0.0,0.0,0.0,0.0,0.0,0.0,0.0,0.0,0.0,0.0,0.0,0.0,0.0,0.0,0.0,0.0,0.0,0.0,0.0,0.0,0.0,0.0,0.0,0.0,0.0,-2.7832,-2.9159,-3.0352,-3.1115,-2.7566,-2.6069,0.0,0.0,0.0,0.0,0.0,0.0,0.0,0.0,0.0,0.0,0.0,0.0,0.0,0.0,0.0,0.0,0.0,0.0,0.0,0.0,0.0,0.0,0.0,0.0,0.0,0.0,0.0,0.0,0.0,0.0,0.0,0.0,0.0,0.0,0.0,0.0,0.0,0.0,0.0,0.0,0.0,0.0,0.0,0.0,0.0,0.0,0.0,0.0,0.0,0.0,0.0,0.0,0.0,0.0,0.0,0.0,0.0,0.0,0.0,0.0,0.0,0.0,0.0,0.0,0.0,0.0,0.0,0.0,0.0,0.0,0.0,0.0,0.0,0.0,0.0,0.0,0.0,0.0,0.0,0.0,0.0,0.0,0.0,0.0,0.0,0.0,0.0,0.0,0.0,0.0,0.0,0.0,0.0,0.0,0.0,0.0,0.0,0.0,0.0,0.0,0.0,0.0,0.0,0.0,0.0,0.0,0.0,0.0,0.0,-2.9063,-3.0602,-3.1679,-3.2122,-2.8621,-2.7024,-2.7582,0.0,0.0,0.0,0.0,0.0,0.0,0.0,0.0,0.0,0.0,0.0,0.0,0.0,0.0,0.0,0.0,0.0,0.0,0.0,0.0,0.0,0.0,0.0,0.0,0.0,0.0,0.0,0.0,0.0,0.0,0.0,0.0,0.0,0.0,0.0,0.0,0.0,0.0,0.0,0.0,0.0,0.0,0.0,0.0,0.0,0.0,0.0,0.0,0.0,0.0,0.0,0.0,0.0,0.0,0.0,0.0,0.0,0.0,0.0,0.0,0.0,0.0,0.0,0.0,0.0,0.0,0.0,0.0,0.0,0.0,0.0,0.0,0.0,0.0,0.0,0.0,0.0,0.0,0.0,0.0,0.0,0.0,0.0,0.0,0.0,0.0,0.0,0.0,0.0,0.0,0.0,0.0,0.0,0.0,0.0,0.0,0.0,0.0,0.0,0.0,0.0,0.0,0.0,0.0,0.0,0.0,0.0,0.0,-3.3103,-3.4904,-3.5,-3.3237,-3.0646,-2.8121,0.0,0.0,0.0,0.0,0.0,0.0,0.0,0.0,0.0,0.0,0.0,0.0,0.0,0.0,0.0,0.0,0.0,0.0,0.0,0.0,0.0,0.0,0.0,0.0,0.0,0.0,0.0,0.0,0.0,0.0,0.0,0.0,0.0,0.0,0.0,0.0,0.0,0.0,0.0,0.0,0.0,0.0,0.0,0.0,0.0,0.0,0.0,0.0,0.0,0.0,0.0,0.0,0.0,0.0,0.0,0.0,0.0,0.0,0.0,0.0,0.0,0.0,0.0,0.0,0.0,0.0,0.0,0.0,0.0,0.0,0.0,0.0,0.0,0.0,0.0,0.0,0.0,0.0,0.0,0.0,0.0,0.0,0.0,0.0,0.0,0.0,0.0,0.0,0.0,0.0,0.0,0.0,0.0,0.0,0.0,0.0,0.0,0.0,0.0,0.0,0.0,0.0,0.0,0.0,0.0,0.0,0.0,0.0,0.0,-3.5699,-3.8615,-3.9046,-3.668,-3.2987,-3.0698,0.0,0.0,0.0,0.0,0.0,0.0,0.0,0.0,0.0,0.0,0.0,0.0,0.0,0.0,0.0,0.0,0.0,0.0,0.0,0.0,0.0,0.0,0.0,0.0,0.0,0.0,0.0,0.0,0.0,0.0,0.0,0.0,0.0,0.0,0.0,0.0,0.0,0.0,0.0,0.0,0.0,0.0,0.0,0.0,0.0,0.0,0.0,0.0,0.0,0.0,0.0,0.0,0.0,0.0,0.0,0.0,0.0,0.0,0.0,0.0,0.0,0.0,0.0,0.0,0.0,0.0,0.0,0.0,0.0,0.0,0.0,0.0,0.0,0.0,0.0,0.0,0.0,0.0,0.0,0.0,0.0,0.0,0.0,0.0,0.0,0.0,0.0,0.0,0.0,0.0,0.0,0.0,0.0,0.0,0.0,0.0,0.0,0.0,0.0,0.0,0.0,0.0,0.0,0.0,0.0,0.0,0.0,0.0,-3.4853,-3.7757,-4.1104,-4.1989,-4.0181,-3.6738,-3.3699,0.0,0.0,0.0,0.0,0.0,0.0,0.0,0.0,0.0,0.0,0.0,0.0,0.0,0.0,0.0,0.0,0.0,0.0,0.0,0.0,0.0,0.0,0.0,0.0,0.0,0.0,0.0,0.0,0.0,0.0,0.0,0.0,0.0,0.0,0.0,0.0,0.0,0.0,0.0,0.0,0.0,0.0,0.0,0.0,0.0,0.0,0.0,0.0,0.0,0.0,0.0,0.0,0.0,0.0,0.0,0.0,0.0,0.0,0.0,0.0,0.0,0.0,0.0,0.0,0.0,0.0,0.0,0.0,0.0,0.0,0.0,0.0,0.0,0.0,0.0,0.0,0.0,0.0,0.0,0.0,0.0,0.0,0.0,0.0,0.0,0.0,0.0,0.0,0.0,0.0,0.0,0.0,0.0,0.0,0.0,0.0,0.0,0.0,0.0,0.0,0.0,0.0,0.0,0.0,0.0,0.0,0.0,0.0,-3.611,-3.9508,-4.2739,-4.4047,-4.3181,-4.0569,-3.6474,0.0,0.0,0.0,0.0,0.0,0.0,0.0,0.0,0.0,0.0,0.0,0.0,0.0,0.0,0.0,0.0,0.0,0.0,0.0,0.0,0.0,0.0,0.0,0.0,0.0,0.0,0.0,0.0,0.0,0.0,0.0,0.0,0.0,0.0,0.0,0.0,0.0,0.0,0.0,0.0,0.0,0.0,0.0,0.0,0.0,0.0,0.0,0.0,0.0,0.0,0.0,0.0,0.0,0.0,0.0,0.0,0.0,0.0,0.0,0.0,0.0,0.0,0.0,0.0,0.0,0.0,0.0,0.0,0.0,0.0,0.0,0.0,0.0,0.0,0.0,0.0,0.0,0.0,0.0,0.0,0.0,0.0,0.0,0.0,0.0,0.0,0.0,0.0,0.0,0.0,0.0,0.0,0.0,0.0,0.0,0.0,0.0,0.0,0.0,0.0,0.0,0.0,0.0,0.0,0.0,0.0,0.0,0.0,-3.7834,-4.12,-4.394,-4.4913,-4.4047,-4.0072,-3.6216,0.0,0.0,0.0,0.0,0.0,0.0,0.0,0.0,0.0,0.0,0.0,0.0,0.0,0.0,0.0,0.0,0.0,0.0,0.0,0.0,0.0,0.0,0.0,0.0,0.0,0.0,0.0,0.0,0.0,0.0,0.0,0.0,0.0,0.0,0.0,0.0,0.0,0.0,0.0,0.0,0.0,0.0,0.0,0.0,0.0,0.0,0.0,0.0,-1.7045,0.0,0.0,0.0,0.0,0.0,0.0,0.0,0.0,0.0,0.0,0.0,0.0,0.0,0.0,0.0,0.0,0.0,0.0,0.0,0.0,0.0,0.0,0.0,0.0,0.0,0.0,0.0,0.0,0.0,0.0,0.0,0.0,0.0,0.0,0.0,0.0,0.0,0.0,0.0,0.0,0.0,0.0,0.0,0.0,0.0,0.0,0.0,0.0,0.0,0.0,0.0,0.0,0.0,0.0,0.0,0.0,0.0,0.0,0.0,-3.8969,-4.2335,-4.4489,-4.5383,-4.4816,-4.132,-3.7543,0.0,0.0,0.0,0.0,0.0,0.0,0.0,0.0,0.0,0.0,0.0,0.0,0.0,0.0,0.0,0.0,0.0,0.0,0.0,0.0,0.0,0.0,0.0,0.0,0.0,0.0,0.0,0.0,0.0,0.0,0.0,0.0,0.0,0.0,0.0,0.0,0.0,0.0,0.0,0.0,0.0,0.0,0.0,0.0,0.0,0.0,0.0,0.0,0.0,0.0,0.0,0.0,0.0,0.0,0.0,0.0,0.0,0.0,0.0,0.0,0.0,0.0,0.0,0.0,0.0,0.0,0.0,0.0,0.0,0.0,0.0,0.0,0.0,0.0,0.0,0.0,0.0,0.0,0.0,0.0,0.0,0.0,0.0,0.0,0.0,0.0,0.0,0.0,0.0,0.0,0.0,0.0,0.0,0.0,0.0,0.0,0.0,0.0,0.0,0.0,0.0,0.0,0.0,0.0,0.0,0.0,0.0,-3.6411,-3.9604,-4.3162,-4.4797,-4.5594,-4.5556,-4.2928,-3.9242,-3.4596,0.0,0.0,0.0,0.0,0.0,0.0,0.0,0.0,0.0,0.0,0.0,0.0,0.0,0.0,0.0,0.0,0.0,0.0,0.0,0.0,0.0,0.0,0.0,0.0,0.0,0.0,0.0,0.0,0.0,0.0,0.0,0.0,0.0,0.0,0.0,0.0,0.0,0.0,-1.5718,-1.8631,0.0,0.0,0.0,0.0,0.0,0.0,0.0,0.0,-1.8684,0.0,0.0,0.0,0.0,0.0,0.0,0.0,0.0,0.0,0.0,0.0,0.0,0.0,0.0,0.0,0.0,0.0,0.0,0.0,0.0,0.0,0.0,0.0,0.0,0.0,0.0,0.0,0.0,0.0,0.0,0.0,0.0,0.0,0.0,0.0,0.0,0.0,0.0,0.0,0.0,0.0,0.0,0.0,0.0,0.0,0.0,0.0,0.0,0.0,0.0,0.0,0.0,0.0,0.0,0.0,0.0,-3.7046,-3.7007,-3.9258,-4.397,-4.5094,-4.5594,-4.5537,-4.3079,-3.9707,-3.5493,0.0,0.0,0.0,0.0,0.0,0.0,0.0,0.0,0.0,0.0,0.0,0.0,0.0,0.0,0.0,0.0,0.0,0.0,0.0,0.0,0.0,0.0,0.0,0.0,0.0,0.0,0.0,0.0,0.0,0.0,0.0,0.0,0.0,0.0,0.0,0.0,0.0,0.0,0.0,-2.1885,-2.3228,0.0,0.0,0.0,0.0,0.0,0.0,0.0,0.0,-1.9261,0.0,0.0,0.0,0.0,0.0,0.0,0.0,0.0,0.0,0.0,0.0,0.0,0.0,0.0,0.0,0.0,0.0,0.0,0.0,0.0,0.0,0.0,0.0,0.0,0.0,0.0,0.0,0.0,0.0,0.0,0.0,0.0,0.0,0.0,0.0,0.0,0.0,0.0,0.0,0.0,0.0,0.0,0.0,0.0,0.0,0.0,0.0,0.0,0.0,0.0,0.0,0.0,0.0,0.0,0.0,-3.6449,-3.8423,-4.1181,-4.4816,-4.5383,-4.5594,-4.5518,-4.2297,-3.8931,0.0,0.0,0.0,0.0,0.0,0.0,0.0,0.0,0.0,0.0,0.0,0.0,0.0,0.0,0.0,0.0,0.0,0.0,0.0,0.0,0.0,0.0,0.0,0.0,0.0,0.0,0.0,0.0,0.0,0.0,0.0,0.0,0.0,0.0,0.0,0.0,0.0,0.0,0.0,0.0,-2.3075,-2.4309,-2.3873,0.0,0.0,0.0,0.0,0.0,0.0,-2.0773,-1.9965,0.0,0.0,0.0,0.0,0.0,0.0,0.0,0.0,0.0,0.0,0.0,0.0,0.0,0.0,0.0,0.0,0.0,0.0,0.0,0.0,0.0,0.0,0.0,0.0,0.0,0.0,0.0,0.0,0.0,0.0,0.0,0.0,0.0,0.0,0.0,0.0,0.0,0.0,0.0,0.0,0.0,0.0,0.0,0.0,0.0,0.0,0.0,0.0,0.0,0.0,0.0,0.0,0.0,0.0,0.0,-3.5481,-3.9315,-4.2701,-4.5441,-4.5594,-4.5518,-4.5287,-4.1739,-3.8365,0.0,0.0,0.0,0.0,0.0,0.0,0.0,0.0,0.0,0.0,0.0,0.0,0.0,0.0,0.0,0.0,0.0,0.0,0.0,0.0,0.0,0.0,0.0,0.0,0.0,0.0,0.0,0.0,0.0,0.0,0.0,0.0,0.0,0.0,0.0,0.0,0.0,0.0,0.0,0.0,0.0,-2.5069,-2.4165,-2.3526,0.0,0.0,0.0,0.0,-2.2861,-2.2216,0.0,0.0,0.0,0.0,0.0,0.0,0.0,0.0,0.0,0.0,0.0,0.0,0.0,0.0,0.0,0.0,0.0,0.0,0.0,0.0,0.0,0.0,0.0,0.0,0.0,0.0,0.0,0.0,0.0,0.0,0.0,0.0,0.0,0.0,0.0,0.0,0.0,0.0,0.0,0.0,0.0,0.0,0.0,0.0,0.0,0.0,0.0,0.0,0.0,0.0,0.0,0.0,0.0,0.0,0.0,0.0,-3.5365,-3.82,-4.1535,-4.5364,-4.5594,-4.5229,-4.4451,-4.2547,-3.9165,0.0,0.0,0.0,0.0,0.0,0.0,0.0,0.0,0.0,0.0,0.0,0.0,0.0,0.0,0.0,0.0,0.0,0.0,0.0,0.0,0.0,0.0,0.0,0.0,0.0,0.0,0.0,0.0,0.0,0.0,0.0,0.0,0.0,0.0,0.0,0.0,0.0,0.0,0.0,0.0,0.0,-2.6058,-2.5009,-2.4941,-2.4966,0.0,0.0,-2.4486,-2.4028,-2.5024,0.0,0.0,0.0,0.0,0.0,0.0,0.0,0.0,0.0,0.0,0.0,0.0,0.0,0.0,0.0,0.0,0.0,0.0,0.0,0.0,0.0,0.0,0.0,0.0,0.0,0.0,0.0,0.0,0.0,0.0,0.0,0.0,0.0,0.0,0.0,0.0,0.0,0.0,0.0,0.0,0.0,0.0,0.0,0.0,0.0,0.0,0.0,0.0,0.0,0.0,0.0,0.0,0.0,0.0,0.0,-3.1872,-3.5481,-3.9431,-4.2786,-4.5479,-4.5594,-4.519,-4.4297,-4.1296,-3.7825,0.0,0.0,0.0,0.0,0.0,0.0,0.0,0.0,0.0,0.0,0.0,0.0,0.0,0.0,0.0,0.0,0.0,0.0,0.0,0.0,0.0,0.0,0.0,0.0,0.0,0.0,0.0,0.0,0.0,0.0,0.0,0.0,0.0,0.0,0.0,0.0,0.0,0.0,0.0,0.0,0.0,0.0,-2.5965,-2.591,0.0,0.0,0.0,-2.5793,-2.6006,0.0,0.0,0.0,0.0,0.0,0.0,0.0,0.0,0.0,0.0,0.0,0.0,0.0,0.0,0.0,0.0,0.0,0.0,0.0,0.0,0.0,0.0,0.0,0.0,0.0,0.0,0.0,0.0,0.0,0.0,0.0,0.0,0.0,0.0,0.0,0.0,0.0,0.0,0.0,0.0,0.0,0.0,0.0,0.0,0.0,0.0,0.0,0.0,0.0,0.0,0.0,0.0,0.0,0.0,0.0,0.0,0.0,-3.5519,-4.0527,-4.3912,-4.5537,-4.5594,-4.5094,-4.397,-4.0441,0.0,0.0,0.0,0.0,0.0,0.0,0.0,0.0,0.0,0.0,0.0,0.0,0.0,0.0,0.0,0.0,0.0,0.0,0.0,0.0,0.0,0.0,0.0,0.0,0.0,0.0,0.0,-1.1021,0.0,0.0,0.0,0.0,0.0,0.0,0.0,0.0,0.0,0.0,0.0,0.0,0.0,0.0,-2.6928,-2.6909,-2.7198,-2.7642,0.0,0.0,-2.6862,-2.7348,-2.7239,-2.6259,0.0,0.0,0.0,0.0,0.0,0.0,0.0,0.0,0.0,0.0,0.0,0.0,0.0,0.0,0.0,0.0,0.0,0.0,0.0,0.0,0.0,0.0,0.0,0.0,0.0,0.0,0.0,0.0,0.0,0.0,0.0,0.0,0.0,0.0,0.0,0.0,0.0,0.0,0.0,0.0,0.0,0.0,0.0,0.0,0.0,0.0,0.0,0.0,0.0,0.0,0.0,0.0,0.0,0.0,0.0,-3.5538,-4.0508,-4.3912,-4.5518,-4.5594,-4.4816,-4.322,-4.1081,-3.7674,0.0,0.0,0.0,0.0,0.0,0.0,0.0,0.0,0.0,0.0,0.0,0.0,0.0,0.0,0.0,0.0,0.0,0.0,0.0,0.0,0.0,0.0,0.0,0.0,0.0,0.0,0.0,0.0,0.0,0.0,0.0,0.0,0.0,0.0,0.0,0.0,0.0,0.0,0.0,0.0,0.0,-2.7818,-2.7813,-2.9129,-3.0068,0.0,0.0,-2.8308,-2.7363,-2.8498,-2.8129,-2.4146,0.0,0.0,0.0,0.0,0.0,0.0,0.0,0.0,0.0,0.0,0.0,0.0,0.0,0.0,0.0,0.0,0.0,0.0,0.0,0.0,0.0,0.0,0.0,0.0,0.0,0.0,0.0,0.0,0.0,0.0,0.0,0.0,0.0,0.0,0.0,0.0,0.0,0.0,0.0,0.0,0.0,0.0,0.0,0.0,0.0,0.0,0.0,0.0,0.0,0.0,0.0,0.0,0.0,-3.2077,-3.5481,-4.0527,-4.3912,-4.5518,-4.5594,-4.4806,-4.3143,-4.1308,-3.7866,0.0,0.0,0.0,0.0,0.0,0.0,0.0,0.0,0.0,0.0,0.0,0.0,0.0,0.0,0.0,0.0,0.0,0.0,0.0,0.0,0.0,0.0,0.0,0.0,0.0,0.0,0.0,0.0,-1.549,-1.5695,-1.5519,0.0,0.0,0.0,0.0,0.0,0.0,0.0,0.0,0.0,0.0,-2.8275,-2.9313,-3.0,0.0,0.0,-2.9942,-2.9118,-2.8633,-2.8634,-2.7793,-2.5105,-2.3776,0.0,0.0,0.0,0.0,0.0,0.0,0.0,0.0,0.0,0.0,0.0,0.0,0.0,0.0,0.0,0.0,0.0,0.0,0.0,0.0,0.0,0.0,0.0,0.0,0.0,0.0,0.0,0.0,0.0,0.0,0.0,0.0,0.0,0.0,0.0,0.0,0.0,0.0,0.0,0.0,0.0,0.0,0.0,0.0,0.0,0.0,0.0,0.0,0.0,0.0,0.0,0.0,-3.2327,-3.5481,-4.0527,-4.3912,-4.5556,-4.5594,-4.4778,-4.3143,-4.1594,-3.8301,0.0,0.0,0.0,0.0,0.0,0.0,0.0,0.0,0.0,0.0,0.0,0.0,0.0,0.0,0.0,0.0,0.0,0.0,0.0,0.0,0.0,0.0,0.0,0.0,0.0,0.0,0.0,0.0,-1.7157,-1.693,-1.583,0.0,0.0,0.0,0.0,0.0,0.0,0.0,0.0,0.0,0.0,-2.8506,-3.0154,-3.0615,-3.0887,-3.1169,-3.0309,-2.9467,-2.9006,-2.86,-2.7631,-2.5394,0.0,0.0,0.0,0.0,0.0,0.0,0.0,0.0,0.0,0.0,0.0,0.0,0.0,0.0,0.0,0.0,0.0,0.0,0.0,0.0,0.0,0.0,0.0,0.0,0.0,0.0,0.0,0.0,0.0,0.0,-2.5336,0.0,0.0,0.0,0.0,0.0,0.0,0.0,0.0,0.0,0.0,0.0,0.0,0.0,0.0,0.0,0.0,0.0,0.0,0.0,0.0,0.0,0.0,0.0,-3.5538,-4.0546,-4.3912,-4.5537,-4.5594,-4.4797,-4.3162,-4.2,-3.9082,-3.4217,0.0,0.0,0.0,0.0,0.0,0.0,0.0,0.0,0.0,0.0,0.0,0.0,0.0,0.0,0.0,0.0,0.0,0.0,0.0,0.0,0.0,0.0,0.0,0.0,0.0,0.0,-1.7718,-1.7003,-1.5923,0.0,0.0,0.0,0.0,0.0,0.0,0.0,0.0,0.0,0.0,-2.6279,-2.8506,-3.0192,-3.1135,-3.1499,-3.1083,-3.0269,-2.9279,-2.8098,-2.8477,-2.7897,0.0,0.0,0.0,0.0,0.0,0.0,0.0,0.0,0.0,0.0,0.0,0.0,0.0,0.0,0.0,0.0,0.0,0.0,0.0,0.0,0.0,0.0,0.0,0.0,0.0,0.0,0.0,-3.3218,-3.1583,0.0,0.0,0.0,0.0,0.0,0.0,0.0,0.0,0.0,0.0,0.0,-3.7219,-3.8892,0.0,0.0,0.0,0.0,0.0,0.0,0.0,0.0,0.0,0.0,0.0,0.0,-3.3212,-3.6346,-4.0777,-4.3912,-4.5537,-4.5594,-4.4806,-4.3143,-4.2172,-3.8665,-3.2348,0.0,0.0,0.0,0.0,0.0,0.0,0.0,0.0,0.0,0.0,0.0,0.0,0.0,0.0,0.0,0.0,0.0,0.0,0.0,0.0,0.0,0.0,0.0,0.0,0.0,-1.9446,0.0,0.0,0.0,0.0,0.0,0.0,0.0,0.0,0.0,0.0,0.0,-2.3548,-2.551,-2.7948,-2.9981,-3.1115,-3.1819,-3.1939,0.0,0.0,0.0,0.0,0.0,0.0,0.0,0.0,0.0,0.0,0.0,0.0,0.0,0.0,-2.4457,-2.0304,-1.9092,-1.8645,-1.8353,0.0,0.0,0.0,0.0,0.0,0.0,0.0,0.0,0.0,0.0,0.0,0.0,0.0,0.0,-3.7176,0.0,-3.4793,0.0,0.0,0.0,0.0,0.0,0.0,0.0,0.0,-3.9392,-4.1239,-4.1535,-4.2882,-4.2354,0.0,-3.9623,-3.6757,0.0,0.0,0.0,0.0,0.0,0.0,0.0,0.0,-3.4083,-3.718,-4.1354,-4.4182,-4.5518,-4.5594,-4.4797,-4.3124,-4.1281,-3.7823,-3.2558,-2.8977,-2.6228,0.0,0.0,0.0,0.0,0.0,0.0,0.0,0.0,0.0,0.0,0.0,0.0,0.0,0.0,0.0,0.0,0.0,0.0,0.0,0.0,0.0,0.0,0.0,-2.0596,0.0,0.0,0.0,0.0,0.0,0.0,0.0,0.0,0.0,-2.1566,-2.3312,-2.5351,-2.7615,-2.9102,-3.0462,-3.191,0.0,0.0,0.0,0.0,0.0,0.0,0.0,-2.8246,-2.8227,-2.8246,-2.8246,-2.8227,-2.8805,-2.8685,-2.692,0.0,0.0,-2.3017,-2.191,-2.1549,-2.1541,-2.1974,-2.231,-2.2225,-2.2887,-2.3309,0.0,0.0,0.0,0.0,0.0,0.0,0.0,0.0,-3.9974,-4.013,0.0,-3.9347,0.0,0.0,0.0,0.0,0.0,0.0,0.0,0.0,-4.4816,-4.6471,-4.5671,-4.4913,-4.4489,-4.4412,-4.4335,-4.2566,-3.9065,-3.2743,0.0,0.0,0.0,0.0,0.0,0.0,-3.5545,-3.8123,-4.2181,-4.472,-4.5556,-4.5594,-4.4825,-4.3096,-3.9562,-3.6796,-3.4879,-3.2812,-3.0216,-2.6862,-2.5071,0.0,0.0,0.0,0.0,0.0,0.0,0.0,0.0,0.0,0.0,0.0,0.0,0.0,0.0,0.0,0.0,0.0,0.0,0.0,0.0,-2.0546,0.0,0.0,0.0,0.0,0.0,0.0,0.0,0.0,0.0,0.0,-2.4336,-2.5043,-2.6687,-2.9981,0.0,0.0,0.0,0.0,-3.157,-3.209,-3.1996,-3.1481,-3.0404,-3.0846,-3.0779,-2.9317,0.0,0.0,-2.939,-2.9133,-2.8693,-2.7079,-2.6906,-2.6961,-2.7651,-2.6311,-2.5311,-2.5293,-2.5266,-2.5403,-2.5485,-2.586,-2.6429,-4.6358,0.0,0.0,0.0,0.0,-4.257,-4.4683,-4.8352,-4.6459,-4.5453,-4.4946,-4.283,0.0,0.0,0.0,0.0,0.0,0.0,-4.2066,-4.3316,-4.5759,-4.7394,-4.8298,-4.8711,-4.8221,-4.7028,-4.6432,-4.4739,-4.195,-3.8784,-3.4436,-2.9058,0.0,0.0,0.0,0.0,-3.7238,-3.9804,-4.2766,-4.472,-4.5594,-4.5594,-4.4806,-4.3143,-4.0662,-3.8194,-3.5758,-3.373,-3.157,-2.9248,-2.6539,0.0,0.0,0.0,0.0,0.0,0.0,0.0,0.0,0.0,0.0,0.0,0.0,0.0,0.0,0.0,0.0,0.0,0.0,0.0,-2.1489,-2.1581,-2.1427,0.0,0.0,0.0,0.0,0.0,0.0,0.0,0.0,0.0,-2.8269,-2.8788,-2.9538,0.0,0.0,-3.2064,-3.2814,-3.3015,-3.2887,-3.2307,0.0,0.0,0.0,-3.076,-3.0595,-3.0668,-3.1586,-3.21,-3.1647,-3.1574,-3.1225,-3.0173,-2.9567,-2.9255,-2.9329,-2.7732,-2.6374,-2.6264,-2.6264,-2.6447,-2.699,-2.731,-2.7475,-5.093,-4.7627,-4.5021,-4.5106,-4.6862,-4.642,-4.8288,-5.1563,-4.9926,-4.9276,-4.9265,-4.6963,-4.4519,-4.198,-3.9786,0.0,0.0,0.0,-4.472,-4.6355,-4.7242,-4.8442,-4.9865,-4.9919,-4.9661,-4.9067,-4.7605,-4.6269,-4.5066,-4.2989,-3.9457,-3.4526,0.0,0.0,-3.3526,-3.6603,-3.9315,-4.1535,-4.3682,-4.5075,-4.5594,-4.5267,-4.4378,-4.2936,-4.1302,-3.9264,-3.6848,-3.5168,-3.3462,-3.1672,-2.8851,-2.666,0.0,0.0,0.0,0.0,0.0,0.0,0.0,0.0,0.0,0.0,0.0,-1.6172,0.0,0.0,0.0,0.0,-1.8978,-2.1281,-2.3144,-2.306,0.0,0.0,0.0,0.0,0.0,0.0,0.0,-2.6794,-2.7544,-2.8731,-3.1077,-3.1692,-3.2077,-3.2485,-3.2644,-3.2941,-3.3528,0.0,-3.3497,-3.3037,-3.3269,-3.3219,-3.2476,-3.1935,-3.1806,-3.2265,-3.2742,-3.3073,-3.3073,-3.2852,-3.2449,-3.1935,-3.1219,-3.0668,-3.0699,-2.9219,-2.7886,-2.7629,-2.7537,-2.7721,-2.8191,-2.8264,-2.8282,-5.4583,-5.4271,-5.0472,-4.9297,-4.9978,-4.9996,-5.0617,-5.1584,-5.1185,-5.1807,-5.3026,-5.1031,-4.9461,-4.8141,-4.5552,0.0,0.0,-4.6876,-4.8086,-4.9481,-4.9127,-4.957,-5.0615,-4.951,-4.9532,-5.0519,-4.8221,-4.7413,-4.7836,-4.5624,-4.3278,-4.09,-3.8565,-3.7642,-3.8161,-3.9823,-4.1527,-4.3181,-4.4778,-4.5594,-4.5594,-4.478,-4.3808,-4.261,-4.1473,-3.9889,-3.7895,-3.6736,-3.5459,-3.3844,-3.1494,-2.917,-2.6943,0.0,0.0,0.0,0.0,0.0,0.0,0.0,0.0,0.0,0.0,0.0,0.0,0.0,0.0,0.0,-2.1225,0.0,-2.4168,-2.465,0.0,0.0,0.0,-2.3837,-2.3356,-2.5428,-2.7236,-2.8082,0.0,0.0,0.0,0.0,-3.4206,-3.3999,-3.3231,-3.3202,-3.4546,-3.4073,-3.3717,-3.4117,-3.4228,-3.4116,-3.3703,-3.3623,-3.3605,-3.3642,-3.3807,-3.377,-3.3715,-3.3238,-3.2748,-3.2693,-3.2045,-3.1476,-3.1494,-3.076,-3.0044,-2.9207,-2.8987,-2.895,-2.8932,-2.8932,-2.8932,-5.6235,-5.6106,-5.4509,-5.3628,-5.3243,-5.3261,-5.3747,-5.4441,-5.3193,-5.2856,-5.3076,-5.1389,-5.0099,-4.9196,-4.9765,-4.9489,-4.8649,-5.0065,-5.0606,-5.0394,-5.0297,-5.0393,-5.0664,-5.0393,-5.0047,-4.9683,-4.9106,-4.824,-4.7192,-4.6586,-4.5643,-4.4402,-4.3767,-4.197,-3.92,-4.1316,-4.297,-4.4008,-4.5056,-4.5594,-4.5586,-4.516,-4.4178,-4.2648,-4.1254,-3.9405,-3.7062,-3.591,-3.4839,-3.3807,-3.1494,-2.9934,-2.9329,-2.4566,0.0,0.0,0.0,0.0,0.0,0.0,0.0,0.0,0.0,-1.9482,-1.4695,0.0,-2.1491,0.0,-2.1452,-2.343,-2.548,-2.4712,0.0,0.0,-2.6684,-2.7083,-2.7563,-2.8717,-2.9833,-3.0698,-3.1872,-3.2949,-3.3776,-3.4476,-3.5011,-3.5324,-3.4878,-3.4622,-3.495,-3.4846,-3.4661,-3.4605,-3.4599,-3.4386,-3.3902,-3.3807,-3.3807,-3.3807,-3.3807,-3.3807,-3.3807,-3.366,-3.3513,-3.3476,-3.2839,-3.2375,-3.232,-3.1659,-3.087,-3.0081,-2.9439,-2.8987,-2.8987,-2.8987,-2.8987,-5.7336,-5.7299,-5.684,-5.64,-5.5941,-5.5225,-5.5188,-5.5522,-5.4656,-5.4069,-5.3628,-5.2032,-5.0959,-5.0379,-5.1288,-5.1393,-5.0963,-5.1811,-5.1856,-5.1231,-5.1041,-5.0879,-5.0702,-5.0523,-5.0265,-4.9971,-4.9567,-4.8721,-4.7471,-4.7058,-4.6471,-4.5614,-4.5594,-4.444,-4.2266,-4.3508,-4.4432,-4.4874,-4.5364,-4.5541,-4.5371,-4.4848,-4.3637,-4.1676,-4.0483,-3.883,-3.6599,-3.5202,-3.4252,-3.377,-3.1494,-3.0026,-2.961,-2.6043,-2.363,0.0,0.0,0.0,0.0,0.0,0.0,0.0,0.0,0.0,0.0,0.0,-2.3148,0.0,-2.4271,0.0,-2.7059,-2.7136,-2.7547,-2.8517,-2.9448,-3.003,-3.0094,-3.1148,-3.2051,-3.2413,-3.328,-3.4189,-3.5032,-3.542,-3.5817,-3.6367,-3.6176,-3.5941,-3.586,-3.5902,-3.5788,-3.5152,-3.516,-3.4891,-3.3963,-3.3807,-3.3807,-3.3807,-3.3807,-3.3807,-3.3807,-3.3807,-3.3807,-3.377,-3.344,-3.3146,-3.3091,-3.2485,-3.1788,-3.128,-3.0326,-2.9482,-2.9078,-2.8987,-2.8987,-5.8088,-5.7978,-5.7978,-5.7978,-5.7886,-5.6492,-5.5926,-5.5886,-5.5776,-5.5244,-5.4308,-5.2913,-5.2035,-5.1565,-5.1618,-5.1971,-5.2572,-5.2716,-5.2497,-5.1966,-5.1522,-5.1105,-5.0758,-5.0298,-5.0302,-5.0595,-4.9904,-4.9125,-4.8259,-4.7442,-4.6605,-4.5778,-4.5643,-4.5594,-4.5594,-4.5559,-4.5559,-4.5594,-4.5559,-4.54,-4.5107,-4.4328,-4.2839,-4.0653,-3.9634,-3.8192,-3.6207,-3.4614,-3.3752,-3.3587,-3.1641,-3.0155,-2.9317,-2.7714,-2.6043,0.0,-2.3602,0.0,0.0,0.0,0.0,0.0,0.0,0.0,0.0,-2.3515,-2.5415,-2.6301,-2.7922,-2.8837,-2.8696,-3.0246,-3.1016,-3.0426,-3.1721,-3.2403,-3.1775,-3.3081,-3.3976,-3.3741,-3.469,-3.5643,-3.6252,-3.6368,-3.6548,-3.7122,-3.7189,-3.7182,-3.7195,-3.714,-3.6764,-3.5855,-3.5799,-3.5274,-3.4125,-3.3807,-3.3807,-3.3807,-3.3807,-3.3807,-3.3807,-3.3807,-3.3807,-3.3807,-3.377,-3.377,-3.3788,-3.322,-3.2729,-3.2491,-3.1311,-3.0136,-2.9409,-2.9078,-2.8987,-5.8602,-5.7997,-5.7978,-5.7978,-5.796,-5.7666,-5.7538,-5.7483,-5.6859,-5.5757,-5.4399,-5.4087,-5.3542,-5.2876,-5.3161,-5.3048,-5.2568,-5.3258,-5.3175,-5.2443,-5.1655,-5.1266,-5.1142,-5.0453,-5.0147,-5.0237,-5.0371,-5.001,-4.9144,-4.8298,-4.7471,-4.6644,-4.596,-4.5594,-4.5586,0.0,0.0,0.0,-4.5332,-4.5169,-4.5085,-4.4365,-4.3133,-4.1399,-3.9704,0.0,-3.5367,-3.4302,-3.3513,-3.2858,-3.2381,0.0,0.0,0.0,0.0,0.0,0.0,0.0,0.0,0.0,0.0,0.0,-2.7662,-2.6773,-2.476,-2.6856,-2.8519,-2.8884,-2.929,-2.9689,-3.0066,-3.0659,-3.1266,-3.1758,-3.2666,-3.327,-3.3358,-3.4604,-3.548,-3.5438,-3.6184,-3.6753,-3.6904,-3.6772,-3.6996,-3.7902,-3.7889,-3.823,-3.9252,-3.8318,-3.7462,-3.7167,-3.6284,-3.5192,-3.3979,-3.3807,-3.3807,-3.3807,-3.3807,-3.3807,-3.3807,-3.3807,-3.3807,-3.3807,-3.3807,-3.3807,-3.3807,-3.3678,-3.333,-3.2729,-3.1843,-3.0938,-3.0136,-2.9445,-2.8987,-5.8988,0.0,-5.8162,-5.7978,0.0,-5.7978,-5.7978,-5.7978,-5.7574,-5.673,-5.5537,-5.4766,-5.4161,-5.3775,-5.3607,-5.3383,-5.3144,-5.3614,-5.3482,-5.2883,-5.2442,-5.1797,-5.0995,-5.0583,-5.0278,-5.0111,-5.0294,-5.0052,-4.9394,-4.8971,-4.8105,-4.6923,-4.6471,-4.5936,-4.5361,-4.503,-4.4931,-4.5107,-4.5096,-4.4931,-4.4555,-4.3811,-4.2564,-4.0811,0.0,0.0,0.0,0.0,0.0,0.0,0.0,0.0,0.0,0.0,0.0,-2.8404,-2.7982,-2.7945,-2.833,-2.8734,-2.9494,-3.0693,-3.1506,-3.0785,-2.8,-2.9362,-3.0535,-3.1047,-3.2093,-3.276,-3.2748,-3.36,-3.4283,-3.4441,-3.4908,-3.5248,-3.5283,-3.5852,-3.6227,-3.6162,-3.6583,-3.7042,-3.744,-3.7527,-3.7894,-3.8761,-3.8969,-3.9228,-3.9841,-3.9404,-3.8575,-3.7547,-3.6335,-3.5126,-3.4084,-3.3807,-3.3807,-3.3807,-3.3807,-3.3807,-3.3807,-3.3807,-3.3807,-3.3807,-3.3807,-3.3807,-3.3807,-3.3807,-3.3678,-3.3225,-3.2559,-3.1751,-3.0925,-2.9843,-2.8987,-5.9459,-5.9129,-5.8492,-5.8125,-5.7978,-5.7978,-5.7978,-5.7978,0.0,0.0,0.0,-5.5409,-5.4675,-5.4363,-5.372,-5.3509,-5.3683,-5.3777,-5.3603,-5.3303,-5.3153,-5.2363,-5.1046,-5.0726,-5.0459,-5.0203,-5.0125,-4.9931,-4.9635,-4.949,-4.8702,-4.7432,-4.7038,-4.6282,-4.5068,-4.4732,-4.4527,-4.4419,-4.4745,-4.4594,-4.3994,-4.3286,-4.21,-4.0357,-3.9551,-3.7973,-3.5536,-3.4816,-3.4009,-3.306,-3.254,-3.2173,-3.2045,-3.2039,-3.1984,-3.1837,-3.1825,-3.188,-3.2008,-3.2045,-3.2394,-3.3188,-3.4504,-3.4094,-3.1256,-3.1788,-3.254,-3.3206,-3.4981,-3.5874,-3.5366,-3.6554,-3.7256,-3.6807,-3.6868,-3.6849,-3.6733,-3.6798,-3.6771,-3.6587,-3.6883,-3.7304,-3.7958,-3.8215,-3.8643,-3.9352,-3.9667,-4.0032,-4.0091,-4.0024,-3.9355,-3.7783,-3.6561,-3.5355,-3.4331,-3.3862,-3.3825,-3.3807,-3.3807,-3.3807,-3.3807,-3.3807,-3.3807,-3.3807,-3.3807,-3.3807,-3.3807,-3.3807,-3.3807,-3.3807,-3.3151,-3.2417,-3.1678,-3.0467,-2.9427,-6.0474,-5.9184,-5.9074,-5.8616,-5.7978,-5.7978,-5.7978,-5.7978,-5.7978,-5.7556,-5.6785,-5.6565,-5.5702,-5.4399,-5.4289,-5.3891,-5.3334,-5.3625,-5.3758,0.0,-5.3009,-5.2561,-5.2263,-5.0864,-5.0352,-5.0562,-5.0266,-5.0237,-5.0413,-4.976,-4.926,-4.8894,-4.7625,-4.6164,-4.4783,-4.4637,-4.428,-4.3679,-4.3971,-4.4102,-4.3982,-4.3615,-4.2958,-4.1992,-4.1167,-3.9643,-3.7257,-3.7033,-3.6266,-3.4784,-3.5275,-3.5293,-3.4546,-3.4472,-3.4197,-3.355,-3.3458,-3.3752,-3.4435,-3.4491,-3.4857,-3.5711,-3.6202,-3.5847,-3.4532,-3.5128,-3.5661,-3.5799,-3.649,-3.6818,-3.6534,-3.6922,-3.7225,-3.7066,-3.6682,-3.6486,-3.6742,-3.7161,-3.74,-3.736,-3.8,-3.8375,-3.8497,-3.8612,-3.8776,-3.9147,-3.9498,-3.9786,-4.0022,-4.0101,-3.9592,-3.842,-3.7258,-3.6129,-3.4972,-3.4197,-3.3917,-3.3807,-3.3807,-3.3807,-3.3807,-3.3807,-3.3807,-3.3807,-3.3807,-3.3807,-3.3807,-3.3807,-3.3807,-3.377,-3.317,-3.2601,-3.2375,-3.1568,-3.0577,-6.1172,-6.0419,-5.9575,-5.9006,-5.8621,-5.818,-5.7978,-5.7978,-5.7978,-5.7795,-5.7428,-5.7005,-5.64,-5.5666,-5.4803,-5.4216,-5.383,-5.3584,-5.3484,-5.3447,-5.3077,-5.269,-5.2228,-5.1488,-5.0878,-5.041,-5.0411,-5.0399,-5.0377,-5.0171,-4.9856,-4.9308,-4.752,-4.6126,-4.5279,-4.4599,-4.402,-4.3531,-4.3836,-4.3909,-4.3742,-4.358,-4.3112,-4.2323,-4.1937,-4.0836,-3.8888,-3.8814,-3.823,-3.7059,-3.6964,-3.6762,-3.6395,-3.5954,-3.555,-3.5183,-3.5147,-3.5495,-3.6303,-3.6765,-3.7169,-3.7569,-3.7712,-3.7575,-3.7052,-3.7109,-3.7114,-3.7004,-3.77,-3.8071,-3.7813,-3.8007,-3.8147,-3.7997,-3.7741,-3.7662,-3.7778,-3.7982,-3.8153,-3.8157,-3.8469,-3.8707,-3.8707,-3.8833,-3.8966,-3.9112,-3.9389,-3.9731,-4.0012,-3.9757,-3.9227,-3.8283,-3.7667,-3.671,-3.5345,-3.4729,-3.4289,-3.3899,-3.3807,-3.3807,-3.3807,-3.3807,-3.3807,-3.3807,-3.3807,-3.3807,-3.3807,-3.3807,-3.3807,-3.377,-3.355,-3.3164,-3.2674,-3.1971,-3.1017,-6.1759,-6.1447,-6.0272,-5.9515,-5.9148,-5.8547,-5.8162,-5.7997,-5.7978,-5.7978,-5.7905,-5.7336,-5.6987,-5.6675,-5.5482,-5.4748,-5.4344,-5.3757,-5.339,-5.3203,-5.3185,-5.2876,-5.227,-5.2107,-5.1502,-5.0687,-5.0611,-5.0496,-5.0404,-5.0506,-5.0172,-4.9288,-4.7722,-4.6521,-4.5782,-4.4803,-4.4053,-4.3548,-4.374,-4.3756,-4.3496,-4.3479,-4.3204,-4.2635,-4.2561,-4.1882,-4.0543,-4.0432,-4.0065,-3.9294,-3.8652,-3.8319,-3.8267,-3.7716,-3.7386,-3.7386,-3.7386,-3.7643,-3.8248,-3.8872,-3.9258,-3.9258,-3.9332,-3.9332,-3.9197,-3.8933,-3.8442,-3.7982,-3.8554,-3.8952,-3.8792,-3.8915,-3.9027,-3.8818,-3.8735,-3.8615,-3.8689,-3.8707,-3.8707,-3.8707,-3.8707,-3.8707,-3.8735,-3.8884,-3.9027,-3.9112,-3.9282,-3.9505,-3.9731,-3.9358,-3.8757,-3.8284,-3.7931,-3.7285,-3.5795,-3.5389,-3.4968,-3.4229,-3.41,-3.4045,-3.3935,-3.3807,-3.3807,-3.3807,-3.3807,-3.3807,-3.3807,-3.3807,-3.3807,-3.3807,-3.3733,-3.3568,-3.3036,-3.2302,-3.1458,-6.2273,-6.1612,-6.1392,-6.0529,-5.9258,-5.9093,-5.8676,-5.807,-5.7978,-5.7978,-5.796,-5.7905,-5.7483,-5.684,-5.6602,-5.5776,-5.4509,-5.4326,-5.3904,-5.3259,-5.3185,-5.3151,-5.2983,-5.2344,-5.2092,-5.201,-5.0888,-5.0601,-5.1002,-5.0448,-4.9885,-4.9404,-4.889,-4.7661,-4.5989,-4.5394,-4.4607,-4.3533,-4.3531,-4.3549,-4.3496,-4.3479,-4.346,-4.3404,-4.3369,-4.2983,-4.2066,-4.2084,-4.1717,-4.0967,-4.0799,-4.0747,-4.071,-4.0636,-4.0618,-4.0563,-4.0581,-4.071,-4.0728,-4.0855,-4.082,-4.0907,-4.1058,-4.107,-4.0848,-4.1048,-4.0455,-3.9153,-3.8933,-3.9161,-3.9077,-3.9146,-3.923,-3.9203,-3.8925,-3.8707,-3.8744,-3.8707,-3.8707,-3.8707,-3.8707,-3.8707,-3.8707,-3.8732,-3.884,-3.9072,-3.898,-3.8994,-3.9218,-3.9017,-3.8773,-3.8523,-3.8066,-3.7566,-3.707,-3.6597,-3.5881,-3.5096,-3.4894,-3.4637,-3.4211,-3.3917,-3.3807,-3.3825,-3.3807,-3.3807,-3.3807,-3.3807,-3.3807,-3.3807,-3.3807,-3.377,-3.3587,-3.3036,-3.2234,-6.2597,-6.2273,-6.1796,-6.0951,-5.9924,-5.9404,-5.9001,-5.8694,-5.818,-5.7978,-5.7978,-5.7978,-5.7813,-5.7483,-5.7024,-5.6418,-5.5776,-5.484,-5.4252,-5.3885,-5.3424,-5.3185,-5.3148,-5.2894,-5.2559,-5.2245,-5.1732,-5.1175,-5.0579,-5.0019,-4.9637,-4.9398,-4.8808,-4.7942,-4.6904,-4.5805,-4.489,-4.4231,-4.3736,-4.3479,-4.3479,-4.3479,-4.3479,-4.3479,-4.3479,-4.3368,-4.3057,-4.3019,-4.2855,-4.2506,-4.2084,-4.1811,-4.1809,-4.1352,-4.1113,-4.1113,-4.1113,-4.1113,-4.1113,-4.1113,-4.1113,-4.1113,-4.122,-4.1235,-4.1128,-4.122,-4.0922,-4.0315,-4.0222,-4.028,-4.0258,-4.0277,-4.028,-4.021,-3.9774,-3.9405,-3.9405,-3.9001,-3.8707,-3.8707,-3.8707,-3.8707,-3.8707,-3.8707,-3.8833,-3.9013,-3.8888,-3.8818,-3.9022,-3.8869,-3.8719,-3.8652,-3.8377,-3.801,-3.7621,-3.7272,-3.6666,-3.6046,-3.5789,-3.5495,-3.4766,-3.4509,-3.438,-3.3935,-3.388,-3.3862,-3.3807,-3.3807,-3.3807,-3.3807,-3.3807,-3.3807,-3.3807,-3.355,-3.3146,-6.2823,-6.2713,-6.2163,-6.1465,-6.0694,-6.0126,-5.9606,-5.9148,-5.8584,-5.8217,-5.7997,-5.7978,-5.7978,-5.7905,-5.7373,-5.7042,-5.6675,-5.5592,-5.4803,-5.4399,-5.3794,-5.3427,-5.3203,-5.3185,-5.2894,-5.2406,-5.232,-5.1565,-5.0238,-4.9953,-4.9715,-4.9433,-4.8867,-4.8262,-4.7604,-4.6233,-4.5261,-4.4671,-4.3901,-4.3529,-4.3612,-4.3629,-4.3597,-4.3513,-4.3597,-4.3597,-4.3496,-4.3479,-4.3479,-4.3461,-4.2928,-4.2635,-4.2616,-4.2066,-4.1772,-4.1754,-4.1772,-4.1756,-4.1772,-4.1756,-4.1772,-4.1772,-4.1756,-4.1772,-4.1756,-4.1772,-4.1772,-4.1772,-4.1754,-4.1644,-4.1132,-4.1113,-4.1113,-4.1058,-4.0543,-4.023,-4.0194,-3.9662,-3.9313,-3.9093,-3.9093,-3.8909,-3.8744,-3.8707,-3.8773,-3.8909,-3.8815,-3.8765,-3.8923,-3.8815,-3.8707,-3.8707,-3.8689,-3.8469,-3.7951,-3.786,-3.7474,-3.6923,-3.6615,-3.634,-3.5573,-3.5389,-3.5059,-3.4578,-3.4284,-3.3972,-3.3844,-3.3807,-3.3807,-3.3807,-3.3807,-3.3807,-3.3807,-3.3788,-3.3788,-6.2823,-6.2823,-6.2768,-6.2254,-6.1539,-6.1447,-6.0603,-5.9349,-5.9148,-5.8731,-5.8088,-5.7997,-5.7978,-5.7978,-5.7886,-5.7519,-5.6877,-5.6675,-5.5831,-5.462,-5.4363,-5.3922,-5.3222,-5.3185,-5.3167,-5.2986,-5.2443,-5.1485,-5.026,-5.0413,-5.0262,-4.9516,-4.9355,-4.8795,-4.7774,-4.685,-4.5853,-4.4891,-4.403,-4.3682,-4.3962,-4.3989,-4.3852,-4.3631,-4.3804,-4.3802,-4.3565,-4.3496,-4.3479,-4.3479,-4.3423,-4.3423,-4.3406,-4.3351,-4.3277,-4.3296,-4.3314,-4.3332,-4.3277,-4.3258,-4.3259,-4.3296,-4.3185,-4.3314,-4.3149,-4.3149,-4.3149,-4.3314,-4.3167,-4.2671,-4.1517,-4.1407,-4.1315,-4.1279,-4.1113,-4.1056,-4.1058,-4.0875,-4.0616,-4.0029,-3.9769,-3.9405,-3.8799,-3.8707,-3.8689,-3.875,-3.8704,-3.8719,-3.8735,-3.8704,-3.8707,-3.8707,-3.8707,-3.867,-3.8634,-3.8469,-3.8157,-3.7734,-3.7367,-3.718,-3.6666,-3.6138,-3.5697,-3.5224,-3.4912,-3.4527,-3.4045,-3.3807,-3.3807,-3.3807,-3.3807,-3.3807,-3.3807,-3.3807,-3.3807,-6.2823,-6.2823,-6.2823,-6.264,-6.2328,-6.1814,-6.1245,-6.0658,-5.963,-5.9038,-5.8712,-5.8235,-5.7978,-5.7978,-5.7978,-5.785,-5.7538,-5.706,-5.6492,-5.5831,-5.4895,-5.4252,-5.3959,-5.3442,-5.3185,-5.313,-5.2913,-5.2261,-5.1299,-5.0454,-4.9859,-4.9507,-4.8987,-4.8491,-4.8015,-4.7277,-4.6653,-4.614,-4.4966,-4.4437,-4.4709,-4.4528,-4.4304,-4.4213,-4.4061,-4.394,-4.3818,-4.3631,-4.3479,-4.3479,-4.3479,-4.3479,-4.3479,-4.3479,-4.3479,-4.3479,-4.3479,-4.3479,-4.3479,-4.3479,-4.3479,-4.3479,-4.3479,-4.3479,-4.3479,-4.3479,-4.3479,-4.3479,-4.3479,-4.313,-4.2873,-4.2653,-4.2616,-4.258,-4.2176,-4.1864,-4.1772,-4.1425,-4.0948,-4.0636,-4.0249,-3.9588,-3.8982,-3.8707,-3.8707,-3.8707,-3.8707,-3.8726,-3.8707,-3.8707,-3.8707,-3.8707,-3.8707,-3.8707,-3.8707,-3.8689,-3.856,-3.8432,-3.8175,-3.7823,-3.7345,-3.7107,-3.6707,-3.5991,-3.561,-3.5096,-3.4578,-3.41,-3.4045,-3.3807,-3.3807,-3.3807,-3.3807,-3.3807,-3.3807,-6.2823,-6.2823,-6.2823,-6.2823,-6.2732,-6.2218,-6.1832,-6.1502,-6.0456,-5.968,-5.9166,-5.8621,-5.8253,-5.8015,-5.7978,-5.7978,-5.7941,-5.7428,-5.7042,-5.673,-5.5684,-5.4913,-5.4363,-5.3849,-5.3463,-5.3222,-5.3185,-5.2803,-5.1977,-5.0914,-5.0143,-4.9593,-4.8985,-4.8563,-4.8233,-4.7498,-4.7094,-4.6819,-4.5755,-4.5208,-4.5331,-4.5124,-4.4972,-4.4843,-4.4436,-4.4117,-4.4016,-4.3677,-4.3479,-4.3479,-4.3479,-4.3479,-4.3479,-4.3479,-4.3479,-4.3479,-4.3479,-4.3479,-4.3479,-4.3479,-4.3479,-4.3479,-4.3479,-4.3479,-4.3479,-4.3479,-4.3479,-4.3479,-4.3479,-4.3479,-4.3479,-4.3461,-4.3479,-4.3441,-4.3002,-4.269,-4.2653,-4.2231,-4.1827,-4.1423,-4.0524,-3.9735,-3.9239,-3.9129,-3.8982,-3.8762,-3.8891,-3.9019,-3.8762,-3.8707,-3.8707,-3.8707,-3.8707,-3.8707,-3.8707,-3.8707,-3.8707,-3.8597,-3.8542,-3.8248,-3.8065,-3.7896,-3.7547,-3.6831,-3.6211,-3.5661,-3.5078,-3.4546,-3.4179,-3.3917,-3.3807,-3.3807,-3.3807,-3.3807,-3.3807,-6.2823,-6.2823,-6.2823,-6.2823,-6.2805,-6.2732,-6.2328,-6.1722,-6.1502,-6.0639,-5.9593,-5.9184,-5.8712,-5.8162,-5.8052,-5.7978,-5.796,-5.7886,-5.7538,-5.6932,-5.6693,-5.5868,-5.4656,-5.4381,-5.3867,-5.3222,-5.3185,-5.2803,-5.2123,-5.183,-5.1116,-4.9941,-4.961,-4.9095,-4.8361,-4.7645,-4.7168,-4.7003,-4.6361,-4.5916,-4.582,-4.5854,-4.5733,-4.5534,-4.4972,-4.4435,-4.4035,-4.3679,-4.3479,-4.3479,-4.3479,-4.3479,-4.3479,-4.3479,-4.3479,-4.3479,-4.3479,-4.3479,-4.3479,-4.3479,-4.3479,-4.3479,-4.3479,-4.3479,-4.3479,-4.3479,-4.3479,-4.3479,-4.3479,-4.3479,-4.3479,-4.3479,-4.3479,-4.3479,-4.3369,-4.3369,-4.3387,-4.3442,-4.3149,-4.2231,-4.1001,-4.0029,-3.9918,-3.9918,-3.968,-3.9313,-3.9496,-3.9717,-3.9184,-3.9019,-3.8781,-3.8781,-3.8762,-3.8707,-3.8707,-3.8707,-3.8707,-3.8689,-3.867,-3.8542,-3.8487,-3.8358,-3.8138,-3.7551,-3.7125,-3.6523,-3.5188,-3.4674,-3.4362,-3.4119,-3.399,-3.3825,-3.3807,-3.3807,-3.3807,-6.2823,-6.2823,-6.2823,-6.2823,-6.2823,-6.2823,-6.2615,-6.2383,-6.1869,-6.13,-6.0713,-5.968,-5.9079,-5.8726,-5.8272,-5.7997,-5.7978,-5.7978,-5.7868,-5.7556,-5.7079,-5.6565,-5.5923,-5.4913,-5.3995,-5.3295,-5.3185,-5.3096,-5.2784,-5.227,-5.1665,-5.1153,-5.0124,-4.95,-4.9132,-4.8379,-4.792,-4.7847,-4.7131,-4.6952,-4.733,-4.6905,-4.6462,-4.6086,-4.5652,-4.5002,-4.4087,-4.3679,-4.3496,-4.3479,-4.3479,-4.3479,-4.3479,-4.3479,-4.3479,-4.3479,-4.3479,-4.3479,-4.3479,-4.3479,-4.3479,-4.3479,-4.3479,-4.3479,-4.3479,-4.3479,-4.3479,-4.3479,-4.3479,-4.3479,-4.3479,-4.3479,-4.3479,-4.3479,-4.3479,-4.3479,-4.3479,-4.3479,-4.313,-4.247,-4.1846,-4.135,-4.0873,-4.0726,-4.0598,-4.0343,-4.0526,-4.0543,-4.0306,-3.979,-3.9551,-3.9515,-3.9184,-3.8854,-3.8891,-3.8909,-3.8854,-3.8762,-3.8707,-3.8707,-3.8707,-3.867,-3.8487,-3.8285,-3.7878,-3.7092,-3.5738,-3.5078,-3.4894,-3.4289,-3.4009,-3.3899,-3.3825,-3.3807,-3.3807,-6.2823,-6.2823,-6.2823,-6.2823,-6.2823,-6.2823,-6.2823,-6.275,-6.2273,-6.1887,-6.141,-6.0566,-5.9716,-5.9184,-5.8657,-5.829,-5.8015,-5.7978,-5.7978,-5.7941,-5.7538,-5.7116,-5.6657,-5.517,-5.4179,-5.3683,-5.3353,-5.3185,-5.3167,-5.2711,-5.2289,-5.1811,-5.0967,-5.0161,-4.9647,-4.9077,-4.8673,-4.8288,-4.781,-4.7767,-4.8014,-4.7697,-4.7231,-4.6777,-4.6424,-4.5796,-4.4929,-4.4564,-4.4121,-4.3625,-4.3479,-4.3479,-4.3479,-4.3479,-4.3479,-4.3479,-4.3479,-4.3479,-4.3479,-4.3479,-4.3479,-4.3479,-4.3479,-4.3479,-4.3479,-4.3479,-4.3479,-4.3479,-4.3479,-4.3479,-4.3479,-4.3479,-4.3479,-4.3479,-4.3479,-4.3479,-4.3479,-4.3479,-4.3332,-4.2837,-4.2451,-4.2066,-4.1701,-4.1535,-4.1389,-4.1242,-4.1352,-4.1334,-4.1132,-4.0655,-4.0469,-4.0304,-4.012,-3.9735,-3.9258,-3.9129,-3.9038,-3.8872,-3.8707,-3.8707,-3.8707,-3.8707,-3.8597,-3.856,-3.8248,-3.779,-3.6633,-3.6303,-3.6028,-3.5147,-3.4229,-3.4105,-3.41,-3.3862,-3.3807,-6.2823,-6.2823,-6.2823,-6.2823,-6.2823,-6.2823,-6.2823,-6.2805,-6.2768,-6.2365,-6.1777,-6.1484,-6.0713,-5.9606,-5.9373,-5.8877,-5.8198,-5.8143,-5.8088,-5.8015,-5.785,-5.7538,-5.6675,-5.5427,-5.4675,-5.4234,-5.3665,-5.3295,-5.3185,-5.3112,-5.2821,-5.216,-5.1885,-5.1263,-5.0124,-4.9702,-4.9132,-4.8581,-4.8324,-4.823,-4.828,-4.8244,-4.7956,-4.7485,-4.7151,-4.6723,-4.612,-4.5767,-4.5039,-4.3809,-4.3571,-4.3479,-4.3479,-4.3479,-4.3479,-4.3479,-4.3479,-4.3479,-4.3479,-4.3479,-4.3479,-4.3479,-4.3479,-4.3479,-4.3479,-4.3479,-4.3479,-4.3479,-4.3479,-4.3479,-4.3479,-4.3479,-4.3479,-4.3479,-4.3479,-4.3479,-4.3479,-4.3479,-4.3406,-4.3314,-4.2837,-4.2378,-4.2378,-4.2359,-4.2047,-4.1754,-4.1992,-4.1992,-4.168,-4.1442,-4.1224,-4.1058,-4.091,-4.0506,-3.9992,-3.9955,-3.9863,-3.9735,-3.9405,-3.9148,-3.8854,-3.8726,-3.8707,-3.867,-3.8597,-3.8138,-3.7661,-3.7147,-3.6505,-3.5587,-3.4949,-3.4619,-3.4491,-3.4486,-3.4412,-6.2823,-6.2823,-6.2823,-6.2823,-6.2823,-6.2823,-6.2798,-6.278,-6.2798,-6.2677,-6.2383,-6.1851,-6.1374,-6.0933,-6.0309,-5.9648,-5.9043,-5.8859,-5.851,-5.8052,-5.7978,-5.7556,-5.6932,-5.64,-5.5537,-5.4564,-5.4234,-5.3794,-5.3222,-5.3259,-5.3075,-5.2876,-5.2307,-5.183,-5.1279,-5.0216,-4.9555,-4.9187,-4.8581,-4.8495,-4.8702,-4.8704,-4.8343,-4.7709,-4.757,-4.7039,-4.6171,-4.5956,-4.5461,-4.447,-4.3773,-4.3479,-4.3534,-4.3497,-4.3479,-4.3479,-4.3479,-4.3479,-4.3479,-4.3479,-4.3479,-4.3479,-4.3479,-4.3479,-4.3479,-4.3479,-4.3479,-4.3479,-4.3479,-4.3479,-4.3479,-4.3479,-4.3479,-4.3479,-4.3479,-4.3479,-4.3479,-4.3479,-4.3479,-4.3442,-4.3277,-4.3149,-4.3094,-4.3075,-4.3002,-4.2837,-4.2873,-4.302,-4.2543,-4.2213,-4.1992,-4.1754,-4.1534,-4.1148,-4.0855,-4.0799,-4.0744,-4.0691,-4.0361,-3.9884,-3.9368,-3.8781,-3.8744,-3.8689,-3.867,-3.8358,-3.7878,-3.7382,-3.6633,-3.6119,-3.5899,-3.5679,-3.5734,-3.5734,-3.5624,-6.2823,-6.2823,-6.2823,-6.2592,-6.235,-6.2661,-6.261,-6.242,-6.2661,-6.2823,-6.2695,-6.2346,-6.1906,-6.1539,-6.1098,-6.0474,-5.9735,-5.9349,-5.8927,-5.8547,-5.8162,-5.774,-5.7299,-5.7005,-5.6308,-5.55,-5.506,-5.4454,-5.3849,-5.372,-5.3537,-5.317,-5.2747,-5.2344,-5.1885,-5.1169,-5.0418,-5.0051,-4.9298,-4.903,-4.9367,-4.9064,-4.8708,-4.8261,-4.8189,-4.7745,-4.7004,-4.6617,-4.603,-4.5241,-4.4488,-4.4011,-4.3956,-4.3644,-4.3497,-4.3479,-4.3479,-4.3479,-4.3479,-4.3479,-4.3479,-4.3479,-4.3479,-4.3479,-4.3479,-4.3479,-4.3479,-4.3479,-4.3479,-4.3479,-4.3479,-4.3479,-4.3479,-4.3479,-4.3479,-4.3479,-4.3479,-4.3479,-4.3479,-4.3479,-4.3479,-4.3479,-4.3479,-4.3479,-4.3479,-4.3442,-4.3332,-4.3406,-4.3314,-4.3002,-4.2727,-4.2488,-4.2341,-4.2084,-4.1735,-4.1607,-4.1368,-4.1332,-4.1242,-4.0765,-4.0047,-3.9258,-3.9038,-3.9001,-3.8836,-3.8615,-3.8248,-3.7915,-3.7547,-3.7147,-3.696,-3.6666,-3.656,-3.6633,-3.6597,-6.2823,-6.2823,-6.2823,-6.2376,-6.1969,-6.2471,-6.2446,-6.1996,-6.2515,-6.2823,-6.2805,-6.2805,-6.2365,-6.1722,-6.1741,-6.1282,-6.0511,-5.9979,-5.9446,-5.8969,-5.8419,-5.7905,-5.7813,-5.7336,-5.6895,-5.651,-5.5996,-5.5299,-5.4711,-5.4528,-5.4087,-5.361,-5.3332,-5.2894,-5.2344,-5.1958,-5.1573,-5.0894,-5.0105,-4.9858,-4.9916,-4.9467,-4.9021,-4.8928,-4.865,-4.8492,-4.8033,-4.7553,-4.6892,-4.6214,-4.5314,-4.4874,-4.4745,-4.4103,-4.3773,-4.3718,-4.3736,-4.3681,-4.3497,-4.3479,-4.3479,-4.3479,-4.3479,-4.3479,-4.3479,-4.3479,-4.3479,-4.3479,-4.3479,-4.3479,-4.3479,-4.3479,-4.3479,-4.3479,-4.3479,-4.3479,-4.3479,-4.3479,-4.3479,-4.3479,-4.3479,-4.3479,-4.3479,-4.3479,-4.3479,-4.3479,-4.3479,-4.3479,-4.3479,-4.3296,-4.3204,-4.3204,-4.313,-4.3094,-4.2745,-4.2415,-4.2103,-4.1882,-4.1901,-4.157,-4.0873,-4.0175,-3.9698,-3.9441,-3.9423,-3.9258,-3.8946,-3.8634,-3.8248,-3.801,-3.7679,-3.7257,-3.6927,-3.7184,-3.7239,-6.2823,-6.2823,-6.2823,-6.2705,-6.2567,-6.2712,-6.2705,-6.2515,-6.2705,-6.2823,-6.2823,-6.2823,-6.2695,-6.253,-6.2438,-6.2108,-6.1374,-6.0951,-6.0493,-5.9111,-5.8364,-5.8015,-5.7978,-5.7721,-5.7391,-5.695,-5.6675,-5.6124,-5.5519,-5.528,-5.4932,-5.4252,-5.4014,-5.3739,-5.3004,-5.2362,-5.1958,-5.161,-5.0949,-5.0623,-5.0501,-4.9914,-4.9472,-4.9361,-4.8845,-4.8457,-4.8326,-4.8159,-4.7957,-4.7498,-4.6507,-4.5736,-4.5608,-4.5406,-4.5002,-4.4562,-4.4433,-4.4195,-4.3698,-4.3644,-4.3516,-4.3662,-4.3699,-4.3479,-4.3479,-4.3534,-4.3516,-4.3479,-4.3479,-4.3479,-4.3479,-4.3479,-4.3479,-4.3479,-4.3479,-4.3479,-4.3479,-4.3479,-4.3479,-4.3479,-4.3479,-4.3479,-4.3479,-4.3479,-4.3479,-4.3479,-4.3479,-4.3479,-4.3479,-4.3479,-4.3479,-4.3479,-4.3442,-4.3332,-4.3204,-4.2928,-4.2745,-4.2506,-4.2506,-4.2451,-4.1754,-4.1258,-4.0818,-4.0414,-4.0084,-3.9882,-3.9662,-3.9074,-3.8652,-3.8524,-3.8414,-3.8065,-3.7845,-3.7936,-3.7863,-6.2823,-6.2823,-6.2823,-6.2567,-6.2342,-6.2618,-6.2567,-6.2368,-6.2661,-6.2823,-6.2823,-6.2823,-6.2823,-6.2823,-6.2805,-6.253,-6.2053,-6.13,-6.0382,-5.9208,-5.84,-5.7997,-5.7978,-5.7978,-5.774,-5.7373,-5.7354,-5.6914,-5.6363,-5.6088,-5.5757,-5.495,-5.4638,-5.4197,-5.372,-5.2968,-5.2637,-5.2417,-5.1793,-5.1371,-5.1224,-5.0582,-4.9904,-4.9647,-4.9133,-4.8765,-4.8343,-4.8306,-4.8306,-4.8086,-4.748,-4.6819,-4.6434,-4.6122,-4.57,-4.5388,-4.5259,-4.5112,-4.4709,-4.4617,-4.4671,-4.4598,-4.4616,-4.436,-4.4176,-4.4066,-4.3828,-4.3589,-4.3479,-4.3479,-4.3479,-4.3479,-4.3479,-4.3479,-4.3479,-4.3479,-4.3479,-4.3479,-4.3479,-4.3479,-4.3479,-4.3479,-4.3479,-4.3479,-4.3479,-4.3479,-4.3479,-4.3479,-4.3479,-4.3479,-4.3479,-4.3479,-4.3479,-4.3461,-4.3461,-4.3369,-4.3332,-4.3185,-4.313,-4.3075,-4.2745,-4.2359,-4.1992,-4.1442,-4.0836,-4.0618,-4.0359,-3.9717,-3.9258,-3.9184,-3.9093,-3.8872,-3.867,-3.8487,-3.8414,-6.2823,-6.2823,-6.2823,-6.2376,-6.1969,-6.2515,-6.2446,-6.2023,-6.249,-6.2823,-6.2823,-6.2823,-6.2823,-6.2823,-6.2823,-6.2823,-6.242,-6.141,-6.0327,-5.9496,-5.8694,-5.8217,-5.807,-5.7978,-5.796,-5.7978,-5.7886,-5.7483,-5.7134,-5.6932,-5.6565,-5.5812,-5.5188,-5.473,-5.4326,-5.3794,-5.328,-5.3023,-5.2509,-5.2179,-5.2032,-5.1389,-5.0637,-4.9996,-4.9574,-4.9225,-4.8691,-4.8453,-4.8324,-4.8324,-4.8324,-4.7957,-4.7333,-4.6728,-4.614,-4.614,-4.6104,-4.5902,-4.5663,-4.57,-4.5736,-4.5902,-4.5847,-4.5553,-4.5039,-4.4837,-4.4507,-4.3975,-4.3663,-4.3479,-4.3479,-4.3479,-4.3479,-4.3479,-4.3479,-4.3479,-4.3479,-4.3479,-4.3479,-4.3479,-4.3479,-4.3479,-4.3479,-4.3479,-4.3479,-4.3479,-4.3479,-4.3479,-4.3479,-4.3479,-4.3479,-4.3479,-4.3479,-4.3479,-4.3479,-4.3479,-4.3479,-4.3479,-4.3479,-4.3442,-4.3404,-4.3094,-4.2598,-4.2066,-4.157,-4.137,-4.1077,-4.0561,-4.0194,-4.001,-3.9863,-3.9753,-3.9423,-3.9019,-3.8982,-6.2823,-6.2823,-6.2823,-6.273,-6.2618,-6.2755,-6.273,-6.2618,-6.2712,-6.2805,-6.2823,-6.2823,-6.2823,-6.2823,-6.2823,-6.2823,-6.2567,-6.1704,-6.0915,-6.0144,-5.9318,-5.8676,-5.8198,-5.8015,-5.7997,-5.7978,-5.7978,-5.7868,-5.7776,-5.774,-5.7281,-5.6693,-5.6363,-5.5776,-5.4821,-5.4216,-5.3812,-5.3408,-5.3002,-5.2876,-5.2692,-5.2179,-5.1408,-5.0637,-5.0161,-4.9702,-4.9335,-4.8728,-4.8324,-4.8324,-4.8324,-4.8233,-4.8031,-4.7829,-4.7462,-4.7058,-4.6911,-4.6709,-4.6287,-4.603,-4.5938,-4.5902,-4.6049,-4.5993,-4.5773,-4.5663,-4.5296,-4.4635,-4.3975,-4.3571,-4.3497,-4.3736,-4.3571,-4.3552,-4.3589,-4.3571,-4.3571,-4.3516,-4.3497,-4.3479,-4.3479,-4.3479,-4.3479,-4.3479,-4.3479,-4.3479,-4.3479,-4.3479,-4.3479,-4.3479,-4.3479,-4.3479,-4.3479,-4.3479,-4.3479,-4.3479,-4.3479,-4.3479,-4.3479,-4.3479,-4.3442,-4.3461,-4.3112,-4.2616,-4.2323,-4.2158,-4.1791,-4.1368,-4.1093,-4.0873,-4.0763,-4.0618,-4.0251,-3.9884,-3.9735,-6.2823,-6.2823,-6.2823,-6.2823,-6.2823,-6.2823,-6.2823,-6.2823,-6.2823,-6.2823,-6.2823,-6.2823,-6.2823,-6.2823,-6.2823,-6.2823,-6.2603,-6.1979,-6.1392,-6.0823,-5.9813,-5.9038,-5.8529,-5.8235,-5.8015,-5.7978,-5.7978,-5.7978,-5.7978,-5.796,-5.7758,-5.7428,-5.706,-5.6363,-5.5574,-5.4785,-5.4308,-5.3794,-5.3424,-5.3203,-5.3185,-5.2747,-5.2197,-5.1499,-5.1022,-5.0675,-5.0178,-4.9903,-4.9389,-4.9095,-4.8967,-4.8728,-4.8471,-4.8269,-4.814,-4.7773,-4.7681,-4.7571,-4.7223,-4.715,-4.7186,-4.7168,-4.7113,-4.6911,-4.6673,-4.6452,-4.6104,-4.5461,-4.5112,-4.4727,-4.4819,-4.469,-4.4745,-4.4654,-4.4397,-4.414,-4.403,-4.3754,-4.3626,-4.3552,-4.3497,-4.3497,-4.3479,-4.3479,-4.3479,-4.3479,-4.3479,-4.3479,-4.3479,-4.3479,-4.3479,-4.3479,-4.3479,-4.3479,-4.3479,-4.3479,-4.3479,-4.3479,-4.3479,-4.3479,-4.3479,-4.3479,-4.3479,-4.3259,-4.3057,-4.2782,-4.2635,-4.2268,-4.1992,-4.168,-4.1352,-4.1113,-4.0985,-4.0783,-4.0616,-6.2823,-6.2823,-6.2823,-6.2823,-6.2823,-6.2823,-6.2823,-6.2823,-6.2823,-6.2823,-6.2823,-6.2823,-6.2823,-6.2823,-6.2823,-6.2805,-6.2743,-6.2108,-6.1814,-6.1318,-6.0419,-5.9667,-5.9038,-5.8657,-5.8217,-5.7978,-5.7978,-5.7978,-5.7978,-5.7978,-5.7978,-5.7776,-5.7262,-5.6914,-5.6473,-5.5611,-5.4913,-5.4216,-5.383,-5.3445,-5.3222,-5.3148,-5.2931,-5.2252,-5.2105,-5.161,-5.1096,-5.071,-5.0343,-4.9921,-4.9609,-4.928,-4.8673,-4.8398,-4.8324,-4.8324,-4.8324,-4.8324,-4.8269,-4.8214,-4.8049,-4.8031,-4.8233,-4.7901,-4.7498,-4.7094,-4.6764,-4.6287,-4.5865,-4.5736,-4.5645,-4.581,-4.581,-4.5681,-4.5259,-4.4911,-4.4727,-4.4433,-4.3975,-4.3828,-4.3643,-4.3534,-4.3552,-4.3479,-4.3479,-4.3479,-4.3479,-4.3479,-4.3479,-4.3479,-4.3479,-4.3479,-4.3479,-4.3479,-4.3479,-4.3479,-4.3479,-4.3479,-4.3479,-4.3479,-4.3479,-4.3479,-4.3479,-4.3479,-4.3442,-4.3185,-4.3167,-4.3094,-4.2763,-4.2378,-4.1902,-4.1774,-4.1974,-4.1719,-4.1389,-6.2823,-6.2823,-6.2823,-6.2823,-6.2823,-6.2823,-6.2823,-6.2823,-6.2823,-6.2823,-6.2823,-6.2823,-6.2823,-6.2823,-6.2823,-6.2823,-6.275,-6.264,-6.2236,-6.1722,-6.1245,-6.0438,-5.9423,-5.9166,-5.8621,-5.8217,-5.8033,-5.7978,-5.7978,-5.7978,-5.7978,-5.7905,-5.7813,-5.7538,-5.695,-5.6436,-5.5794,-5.4693,-5.4326,-5.3904,-5.3371,-5.3222,-5.3093,-5.2876,-5.2435,-5.2032,-5.1811,-5.1408,-5.0894,-5.0655,-5.0014,-4.9629,-4.9353,-4.8691,-4.8398,-4.8324,-4.8324,-4.8324,-4.8324,-4.8324,-4.8324,-4.8324,-4.8324,-4.8251,-4.7938,-4.7516,-4.7168,-4.7003,-4.6452,-4.6159,-4.6195,-4.603,-4.5957,-4.5993,-4.5957,-4.5792,-4.5645,-4.5094,-4.4617,-4.4433,-4.4342,-4.3901,-4.3681,-4.3571,-4.3479,-4.3479,-4.3479,-4.3479,-4.3479,-4.3479,-4.3479,-4.3479,-4.3479,-4.3479,-4.3479,-4.3479,-4.3479,-4.3479,-4.3479,-4.3479,-4.3479,-4.3479,-4.3479,-4.3479,-4.3479,-4.3479,-4.3369,-4.3314,-4.3314,-4.3112,-4.269,-4.2873,-4.324,-4.2818,-4.2176,-6.2823,-6.2823,-6.2823,-6.2823,-6.2823,-6.2823,-6.2823,-6.2823,-6.2823,-6.2823,-6.2823,-6.2823,-6.2823,-6.2823,-6.2823,-6.2823,-6.2823,-6.2823,-6.2658,-6.2181,-6.1814,-6.1227,-6.0511,-5.9661,-5.8909,-5.8731,-5.8253,-5.7978,-5.7978,-5.7997,-5.7978,-5.7978,-5.7978,-5.7868,-5.7373,-5.7024,-5.6473,-5.5684,-5.495,-5.4252,-5.3867,-5.3482,-5.3185,-5.3185,-5.2839,-5.2692,-5.2546,-5.2417,-5.1885,-5.1591,-5.1059,-5.0729,-5.0235,-4.9554,-4.904,-4.9003,-4.8545,-4.8324,-4.8324,-4.8324,-4.8324,-4.8324,-4.8324,-4.8306,-4.8233,-4.8012,-4.7755,-4.7773,-4.748,-4.7241,-4.7186,-4.726,-4.726,-4.7168,-4.6764,-4.6636,-4.6434,-4.581,-4.5351,-4.5204,-4.5039,-4.4617,-4.4176,-4.3938,-4.3736,-4.3479,-4.3479,-4.3479,-4.3479,-4.3479,-4.3479,-4.3479,-4.3479,-4.3479,-4.3479,-4.3479,-4.3479,-4.3479,-4.3479,-4.3479,-4.3479,-4.3479,-4.3479,-4.3479,-4.3479,-4.3479,-4.3479,-4.3461,-4.3406,-4.3442,-4.3461,-4.3479,-4.3479,-4.3406,-4.28,-6.2823,-6.2823,-6.2823,-6.2823,-6.2823,-6.2823,-6.2823,-6.2823,-6.2823,-6.2823,-6.2823,-6.2823,-6.2823,-6.2823,-6.2823,-6.2823,-6.2823,-6.2823,-6.2823,-6.2585,-6.2254,-6.1814,-6.1227,-6.0309,-5.9753,-5.9459,-5.8749,-5.8437,-5.829,-5.8125,-5.7978,-5.7978,-5.7978,-5.796,-5.7831,-5.7483,-5.6987,-5.6528,-5.539,-5.4675,-5.4308,-5.383,-5.3463,-5.3259,-5.3185,-5.3185,-5.3185,-5.313,-5.2747,-5.2435,-5.194,-5.1518,-5.1059,-5.0362,-4.9921,-4.9793,-4.9389,-4.9003,-4.8746,-4.8526,-4.8361,-4.8324,-4.8324,-4.8324,-4.8306,-4.8324,-4.8306,-4.8214,-4.8177,-4.8196,-4.8306,-4.8214,-4.8104,-4.7902,-4.77,-4.7535,-4.7259,-4.6636,-4.6177,-4.6049,-4.581,-4.5443,-4.5002,-4.4507,-4.4085,-4.3608,-4.3479,-4.3534,-4.3534,-4.3571,-4.3516,-4.3516,-4.3479,-4.3479,-4.3479,-4.3479,-4.3479,-4.3479,-4.3479,-4.3479,-4.3479,-4.3479,-4.3479,-4.3479,-4.3479,-4.3479,-4.3479,-4.3479,-4.3479,-4.3479,-4.3479,-4.3479,-4.3479,-4.3479,-4.3387,-6.2823,-6.2823,-6.2823,-6.2823,-6.2823,-6.2823,-6.2823,-6.2823,-6.2823,-6.2823,-6.2823,-6.2823,-6.2823,-6.2823,-6.2823,-6.2823,-6.2823,-6.2823,-6.2823,-6.2805,-6.2695,-6.2254,-6.1759,-6.1337,-6.0896,-6.0291,-5.952,-5.9129,-5.8964,-5.8621,-5.8253,-5.7978,-5.8033,-5.7997,-5.7941,-5.7795,-5.7446,-5.6932,-5.5959,-5.5207,-5.4803,-5.4363,-5.4014,-5.3427,-5.324,-5.3185,-5.3185,-5.3185,-5.313,-5.2931,-5.2472,-5.216,-5.183,-5.1132,-5.0747,-5.0637,-5.0398,-4.9976,-4.9554,-4.8875,-4.8379,-4.8324,-4.8324,-4.8324,-4.8324,-4.8324,-4.8324,-4.8324,-4.8324,-4.8324,-4.8324,-4.8324,-4.8324,-4.8251,-4.8086,-4.8049,-4.7755,-4.7406,-4.7003,-4.6856,-4.6617,-4.6324,-4.5993,-4.5535,-4.4892,-4.4415,-4.4176,-4.4213,-4.3828,-4.3773,-4.3608,-4.3552,-4.3497,-4.3479,-4.3479,-4.3479,-4.3479,-4.3479,-4.3479,-4.3479,-4.3479,-4.3479,-4.3479,-4.3479,-4.3479,-4.3479,-4.3479,-4.3479,-4.3479,-4.3479,-4.3479,-4.3479,-4.3479,-4.3479,-4.3479,-6.2823,-6.2823,-6.2823,-6.2823,-6.2823,-6.2823,-6.2823,-6.2823,-6.2823,-6.2823,-6.2823,-6.2823,-6.2823,-6.2823,-6.2823,-6.2823,-6.2823,-6.2823,-6.2823,-6.2823,-6.2732,-6.2603,-6.2236,-6.1832,-6.1392,-6.1006,-6.0364,-5.9942,-5.9869,-5.9465,-5.9134,-5.8822,-5.8364,-5.8033,-5.7978,-5.7978,-5.7758,-5.7446,-5.6785,-5.6124,-5.5923,-5.5299,-5.4748,-5.4032,-5.3959,-5.3647,-5.3316,-5.3203,-5.3185,-5.3112,-5.2858,-5.2729,-5.2564,-5.1903,-5.1591,-5.1463,-5.1206,-5.0765,-5.0325,-4.9554,-4.8893,-4.8361,-4.8324,-4.8379,-4.8508,-4.8361,-4.8324,-4.8324,-4.8324,-4.8324,-4.8324,-4.8324,-4.8324,-4.8324,-4.8324,-4.8324,-4.8177,-4.781,-4.77,-4.7498,-4.7461,-4.7333,-4.6966,-4.6599,-4.592,-4.5278,-4.5057,-4.48,-4.447,-4.4195,-4.4121,-4.3993,-4.3956,-4.3699,-4.3681,-4.3608,-4.3516,-4.3479,-4.3479,-4.3479,-4.3479,-4.3479,-4.3479,-4.3479,-4.3479,-4.3479,-4.3479,-4.3479,-4.3479,-4.3479,-4.3479,-4.3479,-4.3479,-4.3479,-4.3479,-6.2823,-6.2823,-6.2823,-6.2823,-6.2823,-6.2823,-6.2823,-6.2823,-6.2823,-6.2823,-6.2823,-6.2823,-6.2823,-6.2823,-6.2823,-6.2823,-6.2823,-6.2823,-6.2823,-6.2823,-6.2823,-6.2823,-6.2622,-6.2346,-6.2034,-6.1759,-6.1208,-6.075,-6.075,-6.0529,-6.0052,-5.9501,-5.9006,-5.8676,-5.7978,-5.7978,-5.7978,-5.7813,-5.7538,-5.6969,-5.6748,-5.6253,-5.5574,-5.4803,-5.4509,-5.4124,-5.3647,-5.3424,-5.3185,-5.3185,-5.313,-5.3167,-5.2965,-5.2729,-5.2417,-5.2142,-5.1867,-5.1426,-5.1004,-5.0398,-4.9701,-4.9352,-4.9205,-4.9169,-4.8984,-4.8838,-4.882,-4.8746,-4.8563,-4.8343,-4.8379,-4.8324,-4.8324,-4.8324,-4.8324,-4.8324,-4.8324,-4.8122,-4.8159,-4.8122,-4.8067,-4.792,-4.7773,-4.7351,-4.6636,-4.5957,-4.5535,-4.5351,-4.5223,-4.5002,-4.4892,-4.4745,-4.458,-4.4268,-4.3956,-4.4048,-4.403,-4.3479,-4.3479,-4.3479,-4.3479,-4.3497,-4.3497,-4.3479,-4.3479,-4.3479,-4.3479,-4.3479,-4.3479,-4.3479,-4.3479,-4.3479,-4.3479,-4.3479,-4.3479,-6.2823,-6.2823,-6.2823,-6.2823,-6.2823,-6.2823,-6.2823,-6.2823,-6.2823,-6.2823,-6.2823,-6.2823,-6.2823,-6.2823,-6.2823,-6.2823,-6.2823,-6.2823,-6.2823,-6.2823,-6.2823,-6.2823,-6.2787,-6.2658,-6.253,-6.2548,-6.2034,-6.1557,-6.1557,-6.1117,-6.0658,-6.0364,-6.0015,-5.9391,-5.8143,-5.7997,-5.7997,-5.7978,-5.7905,-5.7483,-5.7079,-5.684,-5.6345,-5.5647,-5.5097,-5.4748,-5.4124,-5.368,-5.3405,-5.3203,-5.3185,-5.3185,-5.313,-5.3093,-5.2983,-5.2965,-5.2983,-5.2637,-5.2013,-5.1242,-5.0784,-5.0435,-5.016,-5.0288,-5.0398,-5.0068,-4.9574,-4.9517,-4.9077,-4.8636,-4.8453,-4.8471,-4.86,-4.8691,-4.8765,-4.8655,-4.871,-4.86,-4.8655,-4.8398,-4.8324,-4.8288,-4.8288,-4.8049,-4.7315,-4.6654,-4.6085,-4.5883,-4.5902,-4.581,-4.5718,-4.5333,-4.5131,-4.5002,-4.4745,-4.4709,-4.4525,-4.3883,-4.3608,-4.3754,-4.3663,-4.3571,-4.3552,-4.3516,-4.3479,-4.3479,-4.3479,-4.3479,-4.3479,-4.3479,-4.3479,-4.3479,-4.3479,-4.3479,-4.3479,-6.2823,-6.2823,-6.2823,-6.2823,-6.2823,-6.2823,-6.2823,-6.2823,-6.2823,-6.2823,-6.2823,-6.2823,-6.2823,-6.2823,-6.2823,-6.2823,-6.2823,-6.2823,-6.2823,-6.2823,-6.2823,-6.2823,-6.2823,-6.2823,-6.2823,-6.275,-6.2456,-6.2328,-6.2401,-6.1906,-6.1575,-6.1318,-6.0694,-5.9832,-5.8914,-5.8382,-5.7978,-5.7978,-5.796,-5.785,-5.7611,-5.7519,-5.7189,-5.6418,-5.6051,-5.5445,-5.462,-5.4161,-5.3739,-5.3353,-5.3277,-5.3185,-5.3185,-5.3185,-5.3185,-5.3185,-5.3185,-5.3133,-5.2821,-5.2417,-5.1848,-5.1316,-5.0967,-5.0986,-5.0747,-5.0618,-5.0417,-5.0343,-5.0013,-4.9793,-4.9994,-4.9994,-5.0068,-5.0086,-5.005,-4.9682,-4.9554,-4.9315,-4.915,-4.8581,-4.8324,-4.8324,-4.8343,-4.8324,-4.7755,-4.7609,-4.715,-4.6838,-4.6764,-4.6636,-4.6507,-4.5975,-4.5663,-4.5645,-4.559,-4.5535,-4.5388,-4.4929,-4.4544,-4.4397,-4.4195,-4.3993,-4.3718,-4.3718,-4.3589,-4.3479,-4.3479,-4.3479,-4.3479,-4.3479,-4.3479,-4.3479,-4.3479,-4.3479,-4.3479,-6.2823,-6.2823,-6.2823,-6.2823,-6.2823,-6.2823,-6.2823,-6.2823,-6.2823,-6.2823,-6.2823,-6.2823,-6.2823,-6.2823,-6.2823,-6.2823,-6.2823,-6.2823,-6.2823,-6.2823,-6.2823,-6.2823,-6.2823,-6.2823,-6.2823,-6.2823,-6.2823,-6.2787,-6.2732,-6.2787,-6.2493,-6.1924,-6.1208,-6.0694,-5.9905,-5.9226,-5.8474,-5.8419,-5.829,-5.796,-5.7905,-5.7868,-5.7721,-5.7262,-5.6822,-5.6267,-5.539,-5.473,-5.4197,-5.3739,-5.3387,-5.324,-5.3203,-5.3203,-5.3185,-5.3185,-5.3185,-5.3206,-5.313,-5.3112,-5.2488,-5.1922,-5.1646,-5.1646,-5.1536,-5.1426,-5.1279,-5.1151,-5.1041,-5.0875,-5.0839,-5.0912,-5.093,-5.093,-5.0802,-5.0417,-5.0251,-5.0031,-4.9721,-4.9095,-4.8691,-4.86,-4.8398,-4.8324,-4.8141,-4.8196,-4.8233,-4.7883,-4.7553,-4.7406,-4.7278,-4.6893,-4.6544,-4.6599,-4.6526,-4.6342,-4.6177,-4.5938,-4.5553,-4.5149,-4.5076,-4.4911,-4.4415,-4.3975,-4.403,-4.3956,-4.3589,-4.3479,-4.3479,-4.3479,-4.3479,-4.3479,-4.3479,-4.3479,-4.3479,-6.2823,-6.2823,-6.2823,-6.2823,-6.2823,-6.2823,-6.2823,-6.2823,-6.2823,-6.2823,-6.2823,-6.2823,-6.2823,-6.2823,-6.2823,-6.2823,-6.2823,-6.2823,-6.2823,-6.2823,-6.2823,-6.2823,-6.2823,-6.2823,-6.2823,-6.2823,-6.2823,-6.2823,-6.2823,-6.2823,-6.2768,-6.2603,-6.1961,-6.1594,-6.1025,-6.0272,-5.9386,-5.8946,-5.8547,-5.8217,-5.8052,-5.796,-5.7905,-5.7629,-5.7299,-5.6877,-5.6161,-5.55,-5.484,-5.4271,-5.3757,-5.3424,-5.3259,-5.3222,-5.3203,-5.3185,-5.3185,-5.3185,-5.3185,-5.3185,-5.3148,-5.2745,-5.2892,-5.3093,-5.2876,-5.2325,-5.2105,-5.1885,-5.1701,-5.1334,-5.1096,-5.1169,-5.1224,-5.1224,-5.1206,-5.1041,-5.093,-5.0674,-5.0362,-4.9921,-4.9537,-4.9225,-4.871,-4.8526,-4.8489,-4.8324,-4.8324,-4.8269,-4.7993,-4.803,-4.792,-4.7938,-4.77,-4.7682,-4.7498,-4.7149,-4.704,-4.6819,-4.6305,-4.5938,-4.5883,-4.5736,-4.5204,-4.4819,-4.469,-4.447,-4.4066,-4.3718,-4.3479,-4.3479,-4.3497,-4.3479,-4.3479,-4.3479,-4.3479,-6.2823,-6.2823,-6.2823,-6.2823,-6.2823,-6.2823,-6.2823,-6.2823,-6.2823,-6.2823,-6.2823,-6.2823,-6.2823,-6.2823,-6.2823,-6.2823,-6.2823,-6.2823,-6.2823,-6.2823,-6.2823,-6.2823,-6.2823,-6.2823,-6.2823,-6.2823,-6.2823,-6.2823,-6.2823,-6.2823,-6.2823,-6.2713,-6.2493,-6.2401,-6.2053,-6.141,-6.0364,-5.9423,-5.8927,-5.8474,-5.8107,-5.7978,-5.7978,-5.7831,-5.774,-5.7336,-5.673,-5.6363,-5.5776,-5.5188,-5.4491,-5.4087,-5.4032,-5.3555,-5.3185,-5.3185,-5.3185,-5.3185,-5.3185,-5.3185,-5.3185,-5.3185,-5.3185,-5.3185,-5.3115,-5.2986,-5.2766,-5.2546,-5.2417,-5.216,-5.2068,-5.2087,-5.2105,-5.2087,-5.205,-5.1958,-5.183,-5.1573,-5.1206,-5.0618,-5.0235,-4.9757,-4.9205,-4.8838,-4.8765,-4.8471,-4.8361,-4.8416,-4.8361,-4.8379,-4.8324,-4.8324,-4.8269,-4.8086,-4.8122,-4.7865,-4.7829,-4.7682,-4.715,-4.6728,-4.6673,-4.6434,-4.5957,-4.5571,-4.5278,-4.4911,-4.4507,-4.4158,-4.3773,-4.357,-4.3533,-4.3497,-4.3479,-4.3479,-4.3479,-6.2823,-6.2823,-6.2823,-6.2823,-6.2823,-6.2823,-6.2823,-6.2823,-6.2823,-6.2823,-6.2823,-6.2823,-6.2823,-6.2823,-6.2823,-6.2823,-6.2823,-6.2823,-6.2823,-6.2823,-6.2823,-6.2823,-6.2823,-6.2823,-6.2823,-6.2823,-6.2823,-6.2823,-6.2823,-6.2823,-6.2823,-6.2823,-6.2823,-6.2823,-6.2603,-6.2144,-6.119,-6.012,-5.93,-5.8749,-5.8309,-5.7978,-5.7978,-5.7978,-5.7978,-5.7648,-5.7281,-5.7079,-5.6528,-5.6014,-5.5299,-5.4876,-5.473,-5.4161,-5.3405,-5.335,-5.3185,-5.3185,-5.3185,-5.3185,-5.3185,-5.3185,-5.3185,-5.3185,-5.3185,-5.3112,-5.3075,-5.302,-5.3093,-5.3112,-5.3148,-5.3167,-5.3148,-5.313,-5.302,-5.2928,-5.2729,-5.2509,-5.1958,-5.1316,-5.0802,-5.0306,-4.9866,-4.9444,-4.9279,-4.9389,-4.9242,-4.8985,-4.8783,-4.8526,-4.8416,-4.8324,-4.8324,-4.8269,-4.8324,-4.8324,-4.8196,-4.8067,-4.7884,-4.7572,-4.7461,-4.7278,-4.6948,-4.6361,-4.5718,-4.5424,-4.5186,-4.4525,-4.4085,-4.3956,-4.3808,-4.3662,-4.3589,-4.3479,-4.3479,-6.275,-6.2823,-6.2823,-6.2823,-6.2823,-6.2823,-6.2823,-6.2823,-6.2823,-6.2823,-6.2823,-6.2823,-6.2823,-6.2823,-6.2823,-6.2823,-6.2823,-6.2823,-6.2823,-6.2823,-6.2823,-6.2823,-6.2823,-6.2823,-6.2823,-6.2823,-6.2823,-6.2823,-6.2823,-6.2823,-6.2823,-6.2823,-6.2823,-6.2823,-6.2768,-6.2713,-6.1851,-6.0694,-5.9777,-5.9061,-5.8272,-5.7978,-5.7978,-5.7978,-5.7978,-5.7905,-5.7758,-5.7409,-5.6895,-5.6638,-5.6216,-5.5721,-5.5262,-5.4913,-5.4179,-5.3665,-5.3497,-5.3335,-5.3259,-5.3185,-5.3185,-5.3185,-5.3185,-5.3185,-5.3185,-5.3185,-5.3185,-5.3185,-5.3185,-5.3185,-5.3185,-5.3185,-5.3185,-5.3185,-5.313,-5.3075,-5.3004,-5.2858,-5.2601,-5.1995,-5.1444,-5.1004,-5.0784,-5.0398,-4.9994,-5.0288,-5.0196,-4.9756,-4.9499,-4.9095,-4.8691,-4.8508,-4.8343,-4.8343,-4.8324,-4.8324,-4.8324,-4.8251,-4.8214,-4.8177,-4.7939,-4.792,-4.7993,-4.7278,-4.6544,-4.6232,-4.5883,-4.5259,-4.4819,-4.4727,-4.4488,-4.3992,-4.379,-4.3828,-4.3552,-6.2254,-6.2787,-6.2823,-6.2823,-6.2823,-6.2823,-6.2823,-6.2823,-6.2823,-6.2823,-6.2823,-6.2823,-6.2823,-6.2823,-6.2823,-6.2823,-6.2823,-6.2823,-6.2823,-6.2823,-6.2823,-6.2823,-6.2823,-6.2823,-6.2823,-6.2823,-6.2823,-6.2823,-6.2823,-6.2823,-6.2823,-6.2823,-6.2823,-6.2823,-6.2823,-6.2805,-6.2218,-6.1153,-6.0493,-5.9391,-5.829,-5.8033,-5.7978,-5.7978,-5.7978,-5.7978,-5.7886,-5.7831,-5.7685,-5.7574,-5.6914,-5.6271,-5.5611,-5.5431,-5.4913,-5.4308,-5.4051,-5.3757,-5.3445,-5.3259,-5.3185,-5.3185,-5.3185,-5.3185,-5.3185,-5.3185,-5.3185,-5.3185,-5.3185,-5.3185,-5.3185,-5.3185,-5.3185,-5.3185,-5.3185,-5.3185,-5.3185,-5.313,-5.3075,-5.2656,-5.2087,-5.183,-5.1628,-5.1353,-5.0949,-5.0765,-5.071,-5.0508,-5.0472,-5.0141,-4.9352,-4.9022,-4.8471,-4.8379,-4.8343,-4.8324,-4.8324,-4.8324,-4.8269,-4.8288,-4.8324,-4.8251,-4.814,-4.792,-4.748,-4.7076,-4.6617,-4.6067,-4.5718,-4.559,-4.5296,-4.4837,-4.4745,-4.4782,-4.4158,-6.1539,-6.2273,-6.2652,-6.2823,-6.2823,-6.2823,-6.2823,-6.2823,-6.2823,-6.2823,-6.2823,-6.2823,-6.2823,-6.2823,-6.2823,-6.2823,-6.2823,-6.2823,-6.2823,-6.2823,-6.2823,-6.2823,-6.2823,-6.2823,-6.2823,-6.2823,-6.2823,-6.2823,-6.2823,-6.2823,-6.2823,-6.2823,-6.2823,-6.2823,-6.2823,-6.275,-6.242,-6.1594,-6.1117,-6.007,-5.8639,-5.829,-5.8033,-5.7978,-5.7978,-5.7978,-5.7978,-5.7978,-5.7978,-5.796,-5.7519,-5.6932,-5.64,-5.6161,-5.5702,-5.506,-5.4583,-5.4197,-5.3812,-5.346,-5.3277,-5.3259,-5.3185,-5.3185,-5.3185,-5.3185,-5.3185,-5.3185,-5.3185,-5.3185,-5.3185,-5.3185,-5.3185,-5.3185,-5.3185,-5.3185,-5.3185,-5.3167,-5.313,-5.3002,-5.2674,-5.2619,-5.2491,-5.2454,-5.2087,-5.1958,-5.1793,-5.1371,-5.1298,-5.1169,-5.038,-4.9719,-4.9297,-4.8618,-4.8343,-4.8324,-4.8324,-4.8324,-4.8324,-4.8324,-4.8324,-4.8324,-4.8251,-4.8086,-4.7957,-4.7847,-4.7352,-4.6838,-4.6581,-4.6415,-4.6122,-4.5736,-4.5736,-4.5681,-4.5168,-6.0786,-6.1649,-6.2346,-6.2713,-6.2823,-6.2823,-6.2823,-6.2823,-6.2823,-6.2823,-6.2823,-6.2823,-6.2823,-6.2823,-6.2823,-6.2823,-6.2823,-6.2823,-6.2823,-6.2823,-6.2823,-6.2823,-6.2823,-6.2823,-6.2823,-6.2823,-6.2823,-6.2823,-6.2823,-6.2823,-6.2823,-6.2823,-6.2823,-6.2823,-6.2823,-6.275,-6.2456,-6.1998,-6.1465,-6.0805,-5.9722,-5.8621,-5.8253,-5.807,-5.7978,-5.7978,-5.7978,-5.7978,-5.7978,-5.796,-5.7905,-5.7538,-5.7189,-5.6932,-5.6436,-5.5868,-5.5335,-5.495,-5.4473,-5.3904,-5.3625,-5.3405,-5.3277,-5.3203,-5.3203,-5.3185,-5.3185,-5.3185,-5.3185,-5.3185,-5.3185,-5.3185,-5.3185,-5.3185,-5.3185,-5.3185,-5.3185,-5.3185,-5.3185,-5.3185,-5.3167,-5.313,-5.313,-5.313,-5.3075,-5.3004,-5.2803,-5.2435,-5.2105,-5.1903,-5.1426,-5.0894,-5.0453,-4.9701,-4.8783,-4.8434,-4.8471,-4.8324,-4.8324,-4.8324,-4.8324,-4.8324,-4.8324,-4.8306,-4.8196,-4.8104,-4.7994,-4.7571,-4.7388,-4.7186,-4.7095,-4.6801,-4.6617,-4.6526,-4.6214,-6.0291,-6.1612,-6.1777,-6.2199,-6.275,-6.2823,-6.2823,-6.2823,-6.2823,-6.2823,-6.2823,-6.2823,-6.2823,-6.2823,-6.2823,-6.2823,-6.2823,-6.2823,-6.2823,-6.2823,-6.2823,-6.2823,-6.2823,-6.2823,-6.2823,-6.2823,-6.2823,-6.2823,-6.2823,-6.2823,-6.2823,-6.2823,-6.2823,-6.2823,-6.2823,-6.2768,-6.2695,-6.2328,-6.1942,-6.1355,-6.0896,-5.9813,-5.8676,-5.8309,-5.7978,-5.7978,-5.7978,-5.7978,-5.7978,-5.7978,-5.7978,-5.7868,-5.774,-5.7574,-5.7189,-5.6712,-5.618,-5.5794,-5.5299,-5.4601,-5.4271,-5.3959,-5.3757,-5.3298,-5.3259,-5.3185,-5.3185,-5.3185,-5.3185,-5.3185,-5.3185,-5.3185,-5.3185,-5.3185,-5.3185,-5.3185,-5.3185,-5.3185,-5.3185,-5.3185,-5.3185,-5.3167,-5.3167,-5.3167,-5.3167,-5.3112,-5.3093,-5.2803,-5.2747,-5.2582,-5.2362,-5.1958,-5.1481,-5.0637,-4.9646,-4.8875,-4.8691,-4.8489,-4.8398,-4.8563,-4.8563,-4.8343,-4.8324,-4.8324,-4.8324,-4.8251,-4.8122,-4.803,-4.8012,-4.7846,-4.8012,-4.7902,-4.7627,-4.7333,-4.7021]},{"header":{"parameterUnit":"m.s-1","parameterCategory":1,"la1":31.0,"la2":29.5877,"lo1":-88.7671,"lo2":-86.6584,"dy":0.0162,"dx":0.0185,"nx":115,"ny":88,"refTime":"2026-03-10T12:00:00:Z","depth":0,"parameterNumber":3,"parameterNumberName":"V-component_of_WINDS"},"data":[0.0,0.0,0.0,0.0,0.0,0.0,0.0,0.0,0.0,0.0,0.0,0.0,0.0,0.0,0.0,0.0,0.0,0.0,0.0,0.0,0.0,0.0,0.0,0.0,0.0,0.0,0.0,0.0,0.0,0.0,0.0,0.0,0.0,0.0,0.0,0.0,0.0,0.0,0.0,0.0,0.0,0.0,0.0,0.0,0.0,0.0,0.0,0.0,0.0,0.0,0.0,0.0,0.0,0.0,0.0,0.0,0.0,0.0,0.0,0.0,0.0,0.0,0.0,0.0,0.0,0.0,0.0,0.0,0.0,0.0,0.0,0.0,0.0,0.0,0.0,0.0,0.0,0.0,0.0,0.0,0.0,0.0,0.0,0.0,0.0,0.0,0.0,0.0,0.0,0.0,0.0,0.0,0.0,0.0,0.0,0.0,0.0,0.0,0.0,0.0,0.0,0.0,0.0,0.0,0.0,0.0,0.0,0.0,0.0,0.0,0.0,0.0,0.0,0.0,0.0,0.0,0.0,0.0,0.0,0.0,0.0,0.0,0.0,0.0,0.0,0.0,0.0,0.0,0.0,0.0,0.0,0.0,0.0,0.0,0.0,0.0,0.0,0.0,0.0,0.0,0.0,0.0,0.0,0.0,0.0,0.0,0.0,0.0,0.0,0.0,0.0,0.0,0.0,0.0,0.0,0.0,0.0,0.0,0.0,0.0,0.0,0.0,0.0,0.0,0.0,0.0,0.0,0.0,0.0,0.0,0.0,0.0,0.0,0.0,0.0,0.0,0.0,0.0,0.0,0.0,0.0,0.0,0.0,0.0,0.0,0.0,0.0,0.0,0.0,0.0,0.0,0.0,0.0,0.0,0.0,0.0,0.0,0.0,0.0,0.0,0.0,0.0,0.0,0.0,0.0,0.0,0.0,0.0,0.0,0.0,0.0,0.0,0.0,0.0,0.0,0.0,0.0,0.0,0.0,0.0,0.0,0.0,0.0,0.0,0.0,0.0,0.0,0.0,0.0,0.0,0.0,0.0,0.0,0.0,0.0,0.0,0.0,0.0,0.0,0.0,0.0,0.0,0.0,0.0,0.0,0.0,0.0,0.0,0.0,0.0,0.0,0.0,0.0,0.0,0.0,0.0,0.0,0.0,0.0,0.0,0.0,0.0,0.0,0.0,0.0,0.0,0.0,0.0,0.0,0.0,0.0,0.0,0.0,0.0,0.0,0.0,0.0,0.0,0.0,0.0,0.0,0.0,0.0,0.0,0.0,0.0,0.0,0.0,0.0,0.0,0.0,0.0,0.0,0.0,0.0,0.0,0.0,0.0,0.0,0.0,0.0,0.0,0.0,0.0,0.0,0.0,0.0,0.0,0.0,0.0,0.0,0.0,0.0,0.0,0.0,0.0,0.0,0.0,0.0,0.0,0.0,0.0,0.0,0.0,0.0,0.0,0.0,0.0,0.0,0.0,0.0,0.0,0.0,0.0,0.0,0.0,0.0,0.0,0.0,0.0,0.0,0.0,0.0,0.0,0.0,0.0,0.0,0.0,0.0,0.0,0.0,0.0,0.0,0.0,0.0,0.0,0.0,0.0,0.0,0.0,0.0,0.0,0.0,0.0,0.0,0.0,0.0,0.0,0.0,0.0,0.0,0.0,0.0,0.0,0.0,0.0,0.0,0.0,0.0,0.0,0.0,0.0,0.0,0.0,0.0,0.0,0.0,0.0,0.0,0.0,0.0,0.0,0.0,0.0,0.0,0.0,0.0,0.0,0.0,0.0,0.0,0.0,0.0,0.0,0.0,0.0,0.0,0.0,0.0,0.0,0.0,0.0,0.0,0.0,0.0,0.0,0.0,0.0,0.0,0.0,0.0,0.0,0.0,0.0,0.0,0.0,0.0,0.0,0.0,0.0,0.0,0.0,0.0,0.0,0.0,0.0,0.0,0.0,0.0,0.0,0.0,0.0,0.0,0.0,0.0,0.0,0.0,0.0,0.0,0.0,0.0,0.0,0.0,0.0,0.0,0.0,0.0,0.0,0.0,0.0,0.0,0.0,0.0,0.0,0.0,0.0,0.0,0.0,0.0,0.0,0.0,0.0,0.0,0.0,0.0,0.0,0.0,0.0,0.0,0.0,0.0,0.0,0.0,0.0,0.0,0.0,0.0,0.0,0.0,0.0,0.0,0.0,0.0,0.0,0.0,0.0,0.0,0.0,0.0,0.0,0.0,0.0,0.0,0.0,0.0,0.0,0.0,0.0,0.0,0.0,0.0,0.0,0.0,0.0,0.0,0.0,0.0,0.0,0.0,0.0,0.0,0.0,0.0,0.0,0.0,0.0,0.0,0.0,0.0,0.0,0.0,0.0,0.0,0.0,0.0,0.0,0.0,0.0,0.0,0.0,0.0,0.0,0.0,0.0,0.0,0.0,0.0,0.0,0.0,0.0,0.0,0.0,0.0,0.0,0.0,0.0,0.0,0.0,0.0,0.0,0.0,0.0,0.0,0.0,0.0,0.0,0.0,0.0,0.0,0.0,0.0,0.0,0.0,0.0,0.0,0.0,0.0,0.0,0.0,0.0,0.0,0.0,0.0,0.0,0.0,0.0,0.0,0.0,0.0,0.0,0.0,0.0,0.0,0.0,0.0,0.0,0.0,0.0,0.0,0.0,0.0,0.0,0.0,0.0,0.0,0.0,0.0,0.0,0.0,0.0,0.0,0.0,0.0,0.0,0.0,0.0,0.0,0.0,0.0,0.0,0.0,0.0,0.0,0.0,0.0,0.0,0.0,0.0,0.0,0.0,0.0,0.0,0.0,0.0,0.0,0.0,0.0,0.0,0.0,0.0,0.0,0.0,0.0,0.0,0.0,0.0,0.0,0.0,0.0,0.0,0.0,0.0,0.0,0.0,0.0,0.0,0.0,0.0,0.0,0.0,0.0,0.0,0.0,0.0,0.0,0.0,0.0,0.0,0.0,0.0,0.0,0.0,0.0,0.0,0.0,0.0,0.0,0.0,0.0,0.0,0.0,0.0,0.0,0.0,0.0,0.0,0.0,0.0,0.0,0.0,0.0,0.0,0.0,0.0,0.0,0.0,0.0,0.0,0.0,0.0,0.0,0.0,0.0,0.0,0.0,0.0,0.0,0.0,0.0,0.0,0.0,0.0,0.0,0.0,0.0,0.0,0.0,0.0,0.0,0.0,0.0,0.0,0.0,0.0,0.0,0.0,0.0,0.0,0.0,0.0,0.0,0.0,0.0,0.0,0.0,0.0,0.0,0.0,0.0,0.0,0.0,0.0,0.0,0.0,0.0,0.0,0.0,0.0,0.0,0.0,0.0,0.0,0.0,0.0,0.0,0.0,0.0,0.0,0.0,0.0,0.0,0.0,0.0,0.0,0.0,0.0,0.0,0.0,0.0,0.0,0.0,0.0,0.0,0.0,0.0,0.0,0.0,0.0,0.0,0.0,0.0,0.0,0.0,0.0,0.0,0.0,0.0,0.0,0.0,0.0,0.0,0.0,0.0,0.0,0.0,0.0,0.0,0.0,0.0,0.0,0.0,0.0,0.0,0.0,0.0,0.0,0.0,0.0,0.0,0.0,0.0,0.0,0.0,0.0,0.0,0.0,0.0,0.0,0.0,0.0,0.0,0.0,0.0,0.0,0.0,0.0,0.0,0.0,0.0,0.0,0.0,0.0,0.0,0.0,0.0,0.0,0.0,0.0,0.0,0.0,0.0,0.0,0.0,0.0,0.0,0.0,0.0,0.0,0.0,0.0,0.0,0.0,0.0,0.0,0.0,0.0,0.0,0.0,0.0,0.0,0.0,0.0,0.0,0.0,0.0,0.0,0.0,0.0,0.0,0.0,0.0,0.0,0.0,0.0,0.0,0.0,0.0,0.0,0.0,0.0,0.0,0.0,0.0,0.0,0.0,0.0,0.0,0.0,0.0,0.0,0.0,0.0,0.0,0.0,0.0,0.0,0.0,0.0,0.0,0.0,0.0,0.0,0.0,0.0,0.0,0.0,0.0,0.0,0.0,0.0,0.0,0.0,0.0,0.0,0.0,0.0,0.0,0.0,0.0,0.0,0.0,0.0,0.0,0.0,0.0,0.0,0.0,0.0,0.0,0.0,0.0,0.0,0.0,0.0,0.0,0.0,0.0,0.0,0.0,0.0,0.0,0.0,0.0,0.0,0.0,0.0,0.0,0.0,0.0,0.0,0.0,0.0,0.0,0.0,0.0,0.0,0.0,0.0,0.0,0.0,0.0,0.0,0.0,0.0,0.0,0.0,0.4491,0.0,0.0,0.0,0.0,0.0,0.0,0.0,0.0,0.0,0.0,0.0,0.0,0.0,0.0,0.0,0.0,0.0,0.0,0.0,0.0,0.0,0.0,0.0,0.0,0.0,0.0,0.0,0.0,0.0,0.0,0.0,0.0,0.0,0.0,0.0,0.0,0.0,0.0,0.0,0.0,0.0,0.0,0.0,0.0,0.0,0.0,0.0,0.0,0.0,0.0,0.0,0.0,0.0,0.0,0.0,0.0,0.0,0.0,0.0,0.0,0.0,0.0,0.0,0.0,0.0,0.0,0.0,0.0,0.0,0.0,0.0,0.0,0.0,0.0,0.0,0.0,0.0,0.0,0.0,0.0,0.0,0.0,0.0,0.0,0.0,0.0,0.0,0.0,0.0,0.0,0.0,0.0,0.0,0.0,0.0,0.0,0.0,0.0,0.0,0.0,0.0,0.0,0.0,0.0,0.0,0.0,0.0,0.0,0.0,0.0,0.4491,0.4491,0.4491,0.4491,0.4491,0.0,0.0,0.0,0.0,0.0,0.0,0.0,0.0,0.0,0.0,0.0,0.0,0.0,0.0,0.0,0.0,0.0,0.0,0.0,0.0,0.0,0.0,0.0,0.0,0.0,0.0,0.0,0.0,0.0,0.0,0.0,0.0,0.0,0.0,0.0,0.0,0.0,0.0,0.0,0.0,0.0,0.0,0.0,0.0,0.0,0.0,0.0,0.0,0.0,0.0,0.0,0.0,0.0,0.0,0.0,0.0,0.0,0.0,0.0,0.0,0.0,0.0,0.0,0.0,0.0,0.0,0.0,0.0,0.0,0.0,0.0,0.0,0.0,0.0,0.0,0.0,0.0,0.0,0.0,0.0,0.0,0.0,0.0,0.0,0.0,0.0,0.0,0.0,0.0,0.0,0.0,0.0,0.0,0.0,0.0,0.0,0.0,0.0,0.0,0.0,0.0,0.0,0.0,0.0,0.0,0.0,0.0,0.0,0.0,0.0,0.0,0.0,0.4597,0.4593,0.4593,0.0,0.0,0.0,0.0,0.0,0.0,0.0,0.0,0.0,0.0,0.0,0.0,0.0,0.0,0.0,0.0,0.0,0.0,0.0,0.0,0.0,0.0,0.0,0.0,0.0,0.0,0.0,0.0,0.0,0.0,0.0,0.0,0.0,0.0,0.0,0.0,0.0,0.0,0.0,0.0,0.0,0.0,0.0,0.0,0.0,0.0,0.0,0.0,0.0,0.0,0.0,0.0,0.0,0.0,0.0,0.0,0.0,0.0,0.0,0.0,0.0,0.0,0.0,0.0,0.0,0.0,0.0,0.0,0.0,0.0,0.0,0.0,0.0,0.0,0.0,0.0,0.0,0.0,0.0,0.0,0.0,0.0,0.0,0.0,0.0,0.0,0.0,0.0,0.0,0.0,0.0,0.0,0.0,0.0,0.0,0.0,0.0,0.0,0.0,0.0,0.0,0.0,0.0,0.0,0.0,0.0,0.0,0.0,0.0,0.0,0.4624,0.4837,0.4877,0.0,0.4847,0.0,0.0,0.0,0.0,0.0,0.0,0.0,0.0,0.0,0.0,0.0,0.0,0.0,0.0,0.0,0.0,0.0,0.0,0.0,0.0,0.0,0.0,0.0,0.0,0.0,0.0,0.0,0.0,0.0,0.0,0.0,0.0,0.0,0.0,0.0,0.0,0.0,0.0,0.0,0.0,0.0,0.0,0.0,0.0,0.0,0.0,0.0,0.0,0.0,0.0,0.0,0.0,0.0,0.0,0.0,0.0,0.0,0.0,0.0,0.0,0.0,0.0,0.0,0.0,0.0,0.0,0.0,0.0,0.0,0.0,0.0,0.0,0.0,0.0,0.0,0.0,0.0,0.0,0.0,0.0,0.0,0.0,0.0,0.0,0.0,0.0,0.0,0.0,0.0,0.0,0.0,0.0,0.0,0.0,0.0,0.0,0.0,0.0,0.0,0.0,0.0,0.0,0.0,0.0,0.0,0.0,0.0,0.0,0.0,0.0,0.0,0.4918,0.5339,0.5336,0.0,0.0,0.0,0.0,0.0,0.0,0.0,0.0,0.0,0.0,0.0,0.0,0.0,0.0,0.0,0.0,0.0,0.0,0.0,0.0,0.0,0.0,0.0,0.0,0.0,0.0,0.0,0.0,0.0,0.0,0.0,0.0,0.0,0.0,0.0,0.0,0.0,0.0,0.0,0.0,0.0,0.0,0.0,0.0,0.0,0.0,0.0,0.0,0.0,0.0,0.0,0.0,0.0,0.0,0.0,0.0,0.0,0.0,0.0,0.0,0.0,0.0,0.0,0.0,0.0,0.0,0.0,0.0,0.0,0.0,0.0,0.0,0.0,0.0,0.0,0.0,0.0,0.0,0.0,0.0,0.0,0.0,0.0,0.0,0.0,0.0,0.0,0.0,0.0,0.0,0.0,0.0,0.0,0.0,0.0,0.0,0.0,0.0,0.0,0.0,0.0,0.0,0.0,0.0,0.0,0.0,0.0,0.0,0.0,0.0,0.485,0.0,0.5064,0.5732,0.5722,0.4887,0.0,0.0,0.0,0.0,0.0,0.0,0.0,0.0,0.0,0.0,0.0,0.0,0.0,0.0,0.0,0.0,0.0,0.0,0.0,0.0,0.0,0.0,0.0,0.0,0.0,0.0,0.0,0.0,0.0,0.0,0.0,0.0,0.0,0.0,0.0,0.0,0.0,0.0,0.0,0.0,0.0,0.0,0.0,0.0,0.0,0.0,0.0,0.0,0.0,0.0,0.0,0.0,0.0,0.0,0.0,0.0,0.0,0.0,0.0,0.0,0.0,0.0,0.0,0.0,0.0,0.0,0.0,0.0,0.0,0.0,0.0,0.0,0.0,0.0,0.0,0.0,0.0,0.0,0.0,0.0,0.0,0.0,0.0,0.0,0.0,0.0,0.0,0.0,0.0,0.0,0.0,0.0,0.0,0.0,0.0,0.0,0.0,0.0,0.0,0.0,0.0,0.0,0.0,0.0,0.0,0.0,0.0,0.0,0.0,0.505,0.5057,0.5358,0.6025,0.5843,0.0,0.0,0.0,0.0,0.0,0.0,0.0,0.0,0.0,0.0,0.0,0.0,0.0,0.0,0.0,0.0,0.0,0.0,0.0,0.0,0.0,0.0,0.0,0.0,0.0,0.0,0.0,0.0,0.0,0.0,0.0,0.0,0.0,0.0,0.0,0.0,0.0,0.0,0.0,0.0,0.0,0.0,0.0,0.0,0.0,0.0,0.0,0.0,0.0,0.0,0.0,0.0,0.0,0.0,0.0,0.0,0.0,0.0,0.0,0.0,0.0,0.0,0.0,0.0,0.0,0.0,0.0,0.0,0.0,0.0,0.0,0.0,0.0,0.0,0.0,0.0,0.0,0.0,0.0,0.0,0.0,0.0,0.0,0.0,0.0,0.0,0.0,0.0,0.0,0.0,0.0,0.0,0.0,0.0,0.0,0.0,0.0,0.0,0.0,0.0,0.0,0.0,0.0,0.0,0.0,0.0,0.0,0.0,0.0,0.4805,0.487,0.5108,0.5508,0.5856,0.5638,0.0,0.0,0.0,0.0,0.0,0.0,0.0,0.0,0.0,0.0,0.0,0.0,0.0,0.0,0.0,0.0,0.0,0.0,0.0,0.0,0.0,0.0,0.0,0.0,0.0,0.0,0.0,0.0,0.0,0.0,0.0,0.0,0.0,0.0,0.0,0.0,0.0,0.0,0.0,0.0,0.0,0.0,0.0,0.0,0.0,0.0,0.0,0.0,0.0,0.0,0.0,0.0,0.0,0.0,0.0,0.0,0.0,0.0,0.0,0.0,0.0,0.0,0.0,0.0,0.0,0.0,0.0,0.0,0.0,0.0,0.0,0.0,0.0,0.0,0.0,0.0,0.0,0.0,0.0,0.0,0.0,0.0,0.0,0.0,0.0,0.0,0.0,0.0,0.0,0.0,0.0,0.0,0.0,0.0,0.0,0.0,0.0,0.0,0.0,0.0,0.0,0.0,0.0,0.0,0.0,0.0,0.0,0.0,0.0,0.4781,0.0,0.526,0.0,0.5762,0.5494,0.0,0.0,0.0,0.0,0.0,0.0,0.0,0.0,0.0,0.0,0.0,0.0,0.0,0.0,0.0,0.0,0.0,0.0,0.0,0.0,0.0,0.0,0.0,0.0,0.0,0.0,0.0,0.0,0.0,0.0,0.0,0.0,0.0,0.0,0.0,0.0,0.0,0.0,0.0,0.0,0.0,0.0,0.0,0.0,0.0,0.0,0.0,0.0,0.0,0.0,0.0,0.0,0.0,0.0,0.0,0.0,0.0,0.0,0.0,0.0,0.0,0.0,0.0,0.0,0.0,0.0,0.0,0.0,0.0,0.0,0.0,0.0,0.0,0.0,0.0,0.0,0.0,0.0,0.0,0.0,0.0,0.0,0.0,0.0,0.0,0.0,0.0,0.0,0.0,0.0,0.0,0.0,0.0,0.0,0.0,0.0,0.0,0.0,0.0,0.0,0.0,0.0,0.0,0.0,0.0,0.0,0.0,0.0,0.4788,0.5347,0.5511,0.5488,0.5395,0.5755,0.5352,0.0,0.0,0.0,0.0,0.0,0.0,0.0,0.0,0.0,0.0,0.0,0.0,0.0,0.0,0.0,0.0,0.0,0.0,0.0,0.0,0.0,0.0,0.0,0.0,0.0,0.0,0.0,0.0,0.0,0.0,0.0,0.0,0.0,0.0,0.0,0.0,0.0,0.0,0.0,0.0,0.0,0.0,0.0,0.0,0.0,0.0,0.0,0.0,0.0,0.0,0.0,0.0,0.0,0.0,0.0,0.0,0.0,0.0,0.0,0.0,0.0,0.0,0.0,0.0,0.0,0.0,0.0,0.0,0.0,0.0,0.0,0.0,0.0,0.0,0.0,0.0,0.0,0.0,0.0,0.0,0.0,0.0,0.0,0.0,0.0,0.0,0.0,0.0,0.0,0.0,0.0,0.0,0.0,0.0,0.0,0.0,0.0,0.0,0.0,0.0,0.0,0.0,0.0,0.0,0.0,0.0,0.0,0.0,0.0,0.4908,0.5142,0.5352,0.5521,0.5171,0.489,0.0,0.0,0.0,0.0,0.0,0.0,0.0,0.0,0.0,0.0,0.0,0.0,0.0,0.0,0.0,0.0,0.0,0.0,0.0,0.0,0.0,0.0,0.0,0.0,0.0,0.0,0.0,0.0,0.0,0.0,0.0,0.0,0.0,0.0,0.0,0.0,0.0,0.0,0.0,0.0,0.0,0.0,0.0,0.0,0.0,0.0,0.0,0.0,0.0,0.0,0.0,0.0,0.0,0.0,0.0,0.0,0.0,0.0,0.0,0.0,0.0,0.0,0.0,0.0,0.0,0.0,0.0,0.0,0.0,0.0,0.0,0.0,0.0,0.0,0.0,0.0,0.0,0.0,0.0,0.0,0.0,0.0,0.0,0.0,0.0,0.0,0.0,0.0,0.0,0.0,0.0,0.0,0.0,0.0,0.0,0.0,0.0,0.0,0.0,0.0,0.0,0.0,0.0,0.0,0.0,0.0,0.0,0.0,0.0,0.5125,0.5396,0.5586,0.5664,0.5047,0.4765,0.4863,0.0,0.0,0.0,0.0,0.0,0.0,0.0,0.0,0.0,0.0,0.0,0.0,0.0,0.0,0.0,0.0,0.0,0.0,0.0,0.0,0.0,0.0,0.0,0.0,0.0,0.0,0.0,0.0,0.0,0.0,0.0,0.0,0.0,0.0,0.0,0.0,0.0,0.0,0.0,0.0,0.0,0.0,0.0,0.0,0.0,0.0,0.0,0.0,0.0,0.0,0.0,0.0,0.0,0.0,0.0,0.0,0.0,0.0,0.0,0.0,0.0,0.0,0.0,0.0,0.0,0.0,0.0,0.0,0.0,0.0,0.0,0.0,0.0,0.0,0.0,0.0,0.0,0.0,0.0,0.0,0.0,0.0,0.0,0.0,0.0,0.0,0.0,0.0,0.0,0.0,0.0,0.0,0.0,0.0,0.0,0.0,0.0,0.0,0.0,0.0,0.0,0.0,0.0,0.0,0.0,0.0,0.0,0.0,0.5837,0.6194,0.6211,0.5861,0.5369,0.4958,0.0,0.0,0.0,0.0,0.0,0.0,0.0,0.0,0.0,0.0,0.0,0.0,0.0,0.0,0.0,0.0,0.0,0.0,0.0,0.0,0.0,0.0,0.0,0.0,0.0,0.0,0.0,0.0,0.0,0.0,0.0,0.0,0.0,0.0,0.0,0.0,0.0,0.0,0.0,0.0,0.0,0.0,0.0,0.0,0.0,0.0,0.0,0.0,0.0,0.0,0.0,0.0,0.0,0.0,0.0,0.0,0.0,0.0,0.0,0.0,0.0,0.0,0.0,0.0,0.0,0.0,0.0,0.0,0.0,0.0,0.0,0.0,0.0,0.0,0.0,0.0,0.0,0.0,0.0,0.0,0.0,0.0,0.0,0.0,0.0,0.0,0.0,0.0,0.0,0.0,0.0,0.0,0.0,0.0,0.0,0.0,0.0,0.0,0.0,0.0,0.0,0.0,0.0,0.0,0.0,0.0,0.0,0.0,0.0,0.6295,0.6852,0.6885,0.6468,0.5817,0.5413,0.0,0.0,0.0,0.0,0.0,0.0,0.0,0.0,0.0,0.0,0.0,0.0,0.0,0.0,0.0,0.0,0.0,0.0,0.0,0.0,0.0,0.0,0.0,0.0,0.0,0.0,0.0,0.0,0.0,0.0,0.0,0.0,0.0,0.0,0.0,0.0,0.0,0.0,0.0,0.0,0.0,0.0,0.0,0.0,0.0,0.0,0.0,0.0,0.0,0.0,0.0,0.0,0.0,0.0,0.0,0.0,0.0,0.0,0.0,0.0,0.0,0.0,0.0,0.0,0.0,0.0,0.0,0.0,0.0,0.0,0.0,0.0,0.0,0.0,0.0,0.0,0.0,0.0,0.0,0.0,0.0,0.0,0.0,0.0,0.0,0.0,0.0,0.0,0.0,0.0,0.0,0.0,0.0,0.0,0.0,0.0,0.0,0.0,0.0,0.0,0.0,0.0,0.0,0.0,0.0,0.0,0.0,0.0,0.6146,0.6658,0.7248,0.7404,0.7085,0.6478,0.5942,0.0,0.0,0.0,0.0,0.0,0.0,0.0,0.0,0.0,0.0,0.0,0.0,0.0,0.0,0.0,0.0,0.0,0.0,0.0,0.0,0.0,0.0,0.0,0.0,0.0,0.0,0.0,0.0,0.0,0.0,0.0,0.0,0.0,0.0,0.0,0.0,0.0,0.0,0.0,0.0,0.0,0.0,0.0,0.0,0.0,0.0,0.0,0.0,0.0,0.0,0.0,0.0,0.0,0.0,0.0,0.0,0.0,0.0,0.0,0.0,0.0,0.0,0.0,0.0,0.0,0.0,0.0,0.0,0.0,0.0,0.0,0.0,0.0,0.0,0.0,0.0,0.0,0.0,0.0,0.0,0.0,0.0,0.0,0.0,0.0,0.0,0.0,0.0,0.0,0.0,0.0,0.0,0.0,0.0,0.0,0.0,0.0,0.0,0.0,0.0,0.0,0.0,0.0,0.0,0.0,0.0,0.0,0.0,0.6327,0.6966,0.7536,0.7767,0.7614,0.7245,0.6513,0.0,0.0,0.0,0.0,0.0,0.0,0.0,0.0,0.0,0.0,0.0,0.0,0.0,0.0,0.0,0.0,0.0,0.0,0.0,0.0,0.0,0.0,0.0,0.0,0.0,0.0,0.0,0.0,0.0,0.0,0.0,0.0,0.0,0.0,0.0,0.0,0.0,0.0,0.0,0.0,0.0,0.0,0.0,0.0,0.0,0.0,0.0,0.0,0.0,0.0,0.0,0.0,0.0,0.0,0.0,0.0,0.0,0.0,0.0,0.0,0.0,0.0,0.0,0.0,0.0,0.0,0.0,0.0,0.0,0.0,0.0,0.0,0.0,0.0,0.0,0.0,0.0,0.0,0.0,0.0,0.0,0.0,0.0,0.0,0.0,0.0,0.0,0.0,0.0,0.0,0.0,0.0,0.0,0.0,0.0,0.0,0.0,0.0,0.0,0.0,0.0,0.0,0.0,0.0,0.0,0.0,0.0,0.0,0.6671,0.7265,0.7698,0.7919,0.7767,0.788,0.7245,0.0,0.0,0.0,0.0,0.0,0.0,0.0,0.0,0.0,0.0,0.0,0.0,0.0,0.0,0.0,0.0,0.0,0.0,0.0,0.0,0.0,0.0,0.0,0.0,0.0,0.0,0.0,0.0,0.0,0.0,0.0,0.0,0.0,0.0,0.0,0.0,0.0,0.0,0.0,0.0,0.0,0.0,0.0,0.0,0.0,0.0,0.0,0.0,0.2986,0.0,0.0,0.0,0.0,0.0,0.0,0.0,0.0,0.0,0.0,0.0,0.0,0.0,0.0,0.0,0.0,0.0,0.0,0.0,0.0,0.0,0.0,0.0,0.0,0.0,0.0,0.0,0.0,0.0,0.0,0.0,0.0,0.0,0.0,0.0,0.0,0.0,0.0,0.0,0.0,0.0,0.0,0.0,0.0,0.0,0.0,0.0,0.0,0.0,0.0,0.0,0.0,0.0,0.0,0.0,0.0,0.0,0.0,0.0,0.6871,0.7465,0.7845,0.7951,0.7902,0.8313,0.7681,0.0,0.0,0.0,0.0,0.0,0.0,0.0,0.0,0.0,0.0,0.0,0.0,0.0,0.0,0.0,0.0,0.0,0.0,0.0,0.0,0.0,0.0,0.0,0.0,0.0,0.0,0.0,0.0,0.0,0.0,0.0,0.0,0.0,0.0,0.0,0.0,0.0,0.0,0.0,0.0,0.0,0.0,0.0,0.0,0.0,0.0,0.0,0.0,0.0,0.0,0.0,0.0,0.0,0.0,0.0,0.0,0.0,0.0,0.0,0.0,0.0,0.0,0.0,0.0,0.0,0.0,0.0,0.0,0.0,0.0,0.0,0.0,0.0,0.0,0.0,0.0,0.0,0.0,0.0,0.0,0.0,0.0,0.0,0.0,0.0,0.0,0.0,0.0,0.0,0.0,0.0,0.0,0.0,0.0,0.0,0.0,0.0,0.0,0.0,0.0,0.0,0.0,0.0,0.0,0.0,0.0,0.0,0.642,0.6983,0.7611,0.7899,0.7988,0.7982,0.8442,0.785,0.6139,0.0,0.0,0.0,0.0,0.0,0.0,0.0,0.0,0.0,0.0,0.0,0.0,0.0,0.0,0.0,0.0,0.0,0.0,0.0,0.0,0.0,0.0,0.0,0.0,0.0,0.0,0.0,0.0,0.0,0.0,0.0,0.0,0.0,0.0,0.0,0.0,0.0,0.0,0.3719,0.4216,0.0,0.0,0.0,0.0,0.0,0.0,0.0,0.0,0.3252,0.0,0.0,0.0,0.0,0.0,0.0,0.0,0.0,0.0,0.0,0.0,0.0,0.0,0.0,0.0,0.0,0.0,0.0,0.0,0.0,0.0,0.0,0.0,0.0,0.0,0.0,0.0,0.0,0.0,0.0,0.0,0.0,0.0,0.0,0.0,0.0,0.0,0.0,0.0,0.0,0.0,0.0,0.0,0.0,0.0,0.0,0.0,0.0,0.0,0.0,0.0,0.0,0.0,0.0,0.0,0.0,0.6532,0.6525,0.6922,0.7753,0.7901,0.7988,0.7978,0.7742,0.718,0.6338,0.0,0.0,0.0,0.0,0.0,0.0,0.0,0.0,0.0,0.0,0.0,0.0,0.0,0.0,0.0,0.0,0.0,0.0,0.0,0.0,0.0,0.0,0.0,0.0,0.0,0.0,0.0,0.0,0.0,0.0,0.0,0.0,0.0,0.0,0.0,0.0,0.0,0.0,0.0,0.5053,0.5043,0.0,0.0,0.0,0.0,0.0,0.0,0.0,0.0,0.3353,0.0,0.0,0.0,0.0,0.0,0.0,0.0,0.0,0.0,0.0,0.0,0.0,0.0,0.0,0.0,0.0,0.0,0.0,0.0,0.0,0.0,0.0,0.0,0.0,0.0,0.0,0.0,0.0,0.0,0.0,0.0,0.0,0.0,0.0,0.0,0.0,0.0,0.0,0.0,0.0,0.0,0.0,0.0,0.0,0.0,0.0,0.0,0.0,0.0,0.0,0.0,0.0,0.0,0.0,0.0,0.6427,0.6818,0.7261,0.7902,0.7951,0.7988,0.7975,0.7458,0.6865,0.0,0.0,0.0,0.0,0.0,0.0,0.0,0.0,0.0,0.0,0.0,0.0,0.0,0.0,0.0,0.0,0.0,0.0,0.0,0.0,0.0,0.0,0.0,0.0,0.0,0.0,0.0,0.0,0.0,0.0,0.0,0.0,0.0,0.0,0.0,0.0,0.0,0.0,0.0,0.0,0.5195,0.5222,0.5293,0.0,0.0,0.0,0.0,0.0,0.0,0.3663,0.352,0.0,0.0,0.0,0.0,0.0,0.0,0.0,0.0,0.0,0.0,0.0,0.0,0.0,0.0,0.0,0.0,0.0,0.0,0.0,0.0,0.0,0.0,0.0,0.0,0.0,0.0,0.0,0.0,0.0,0.0,0.0,0.0,0.0,0.0,0.0,0.0,0.0,0.0,0.0,0.0,0.0,0.0,0.0,0.0,0.0,0.0,0.0,0.0,0.0,0.0,0.0,0.0,0.0,0.0,0.0,0.6296,0.6932,0.7529,0.7961,0.7988,0.7975,0.7934,0.736,0.6808,0.0,0.0,0.0,0.0,0.0,0.0,0.0,0.0,0.0,0.0,0.0,0.0,0.0,0.0,0.0,0.0,0.0,0.0,0.0,0.0,0.0,0.0,0.0,0.0,0.0,0.0,0.0,0.0,0.0,0.0,0.0,0.0,0.0,0.0,0.0,0.0,0.0,0.0,0.0,0.0,0.0,0.5214,0.533,0.5054,0.0,0.0,0.0,0.0,0.4082,0.3917,0.0,0.0,0.0,0.0,0.0,0.0,0.0,0.0,0.0,0.0,0.0,0.0,0.0,0.0,0.0,0.0,0.0,0.0,0.0,0.0,0.0,0.0,0.0,0.0,0.0,0.0,0.0,0.0,0.0,0.0,0.0,0.0,0.0,0.0,0.0,0.0,0.0,0.0,0.0,0.0,0.0,0.0,0.0,0.0,0.0,0.0,0.0,0.0,0.0,0.0,0.0,0.0,0.0,0.0,0.0,0.0,0.6276,0.6736,0.7277,0.7948,0.7988,0.7924,0.7838,0.7502,0.7215,0.0,0.0,0.0,0.0,0.0,0.0,0.0,0.0,0.0,0.0,0.0,0.0,0.0,0.0,0.0,0.0,0.0,0.0,0.0,0.0,0.0,0.0,0.0,0.0,0.0,0.0,0.0,0.0,0.0,0.0,0.0,0.0,0.0,0.0,0.0,0.0,0.0,0.0,0.0,0.0,0.0,0.4947,0.5401,0.4961,0.4515,0.0,0.0,0.4428,0.421,0.4412,0.0,0.0,0.0,0.0,0.0,0.0,0.0,0.0,0.0,0.0,0.0,0.0,0.0,0.0,0.0,0.0,0.0,0.0,0.0,0.0,0.0,0.0,0.0,0.0,0.0,0.0,0.0,0.0,0.0,0.0,0.0,0.0,0.0,0.0,0.0,0.0,0.0,0.0,0.0,0.0,0.0,0.0,0.0,0.0,0.0,0.0,0.0,0.0,0.0,0.0,0.0,0.0,0.0,0.0,0.0,0.562,0.6296,0.6953,0.7496,0.7968,0.7988,0.7917,0.7811,0.7282,0.7053,0.0,0.0,0.0,0.0,0.0,0.0,0.0,0.0,0.0,0.0,0.0,0.0,0.0,0.0,0.0,0.0,0.0,0.0,0.0,0.0,0.0,0.0,0.0,0.0,0.0,0.0,0.0,0.0,0.0,0.0,0.0,0.0,0.0,0.0,0.0,0.0,0.0,0.0,0.0,0.0,0.0,0.0,0.5018,0.5095,0.0,0.0,0.0,0.5836,0.5409,0.0,0.0,0.0,0.0,0.0,0.0,0.0,0.0,0.0,0.0,0.0,0.0,0.0,0.0,0.0,0.0,0.0,0.0,0.0,0.0,0.0,0.0,0.0,0.0,0.0,0.0,0.0,0.0,0.0,0.0,0.0,0.0,0.0,0.0,0.0,0.0,0.0,0.0,0.0,0.0,0.0,0.0,0.0,0.0,0.0,0.0,0.0,0.0,0.0,0.0,0.0,0.0,0.0,0.0,0.0,0.0,0.0,0.6303,0.7146,0.7743,0.7978,0.7988,0.7901,0.7753,0.7404,0.0,0.0,0.0,0.0,0.0,0.0,0.0,0.0,0.0,0.0,0.0,0.0,0.0,0.0,0.0,0.0,0.0,0.0,0.0,0.0,0.0,0.0,0.0,0.0,0.0,0.0,0.0,0.1943,0.0,0.0,0.0,0.0,0.0,0.0,0.0,0.0,0.0,0.0,0.0,0.0,0.0,0.0,0.4748,0.4745,0.5225,0.5498,0.0,0.0,0.6822,0.6566,0.6602,0.6578,0.0,0.0,0.0,0.0,0.0,0.0,0.0,0.0,0.0,0.0,0.0,0.0,0.0,0.0,0.0,0.0,0.0,0.0,0.0,0.0,0.0,0.0,0.0,0.0,0.0,0.0,0.0,0.0,0.0,0.0,0.0,0.0,0.0,0.0,0.0,0.0,0.0,0.0,0.0,0.0,0.0,0.0,0.0,0.0,0.0,0.0,0.0,0.0,0.0,0.0,0.0,0.0,0.0,0.0,0.0,0.6306,0.7143,0.7743,0.7975,0.7988,0.7902,0.7621,0.8218,0.8008,0.0,0.0,0.0,0.0,0.0,0.0,0.0,0.0,0.0,0.0,0.0,0.0,0.0,0.0,0.0,0.0,0.0,0.0,0.0,0.0,0.0,0.0,0.0,0.0,0.0,0.0,0.0,0.0,0.0,0.0,0.0,0.0,0.0,0.0,0.0,0.0,0.0,0.0,0.0,0.0,0.0,0.4874,0.4904,0.5202,0.5709,0.0,0.0,0.6666,0.73,0.7669,0.7537,0.6555,0.0,0.0,0.0,0.0,0.0,0.0,0.0,0.0,0.0,0.0,0.0,0.0,0.0,0.0,0.0,0.0,0.0,0.0,0.0,0.0,0.0,0.0,0.0,0.0,0.0,0.0,0.0,0.0,0.0,0.0,0.0,0.0,0.0,0.0,0.0,0.0,0.0,0.0,0.0,0.0,0.0,0.0,0.0,0.0,0.0,0.0,0.0,0.0,0.0,0.0,0.0,0.0,0.0,0.5692,0.6296,0.7146,0.7743,0.7975,0.7988,0.785,0.7607,0.7656,0.7661,0.0,0.0,0.0,0.0,0.0,0.0,0.0,0.0,0.0,0.0,0.0,0.0,0.0,0.0,0.0,0.0,0.0,0.0,0.0,0.0,0.0,0.0,0.0,0.0,0.0,0.0,0.0,0.0,0.2696,0.2768,0.2754,0.0,0.0,0.0,0.0,0.0,0.0,0.0,0.0,0.0,0.0,0.4986,0.5169,0.5324,0.0,0.0,0.7223,0.7768,0.8482,0.8618,0.8497,0.8187,0.693,0.0,0.0,0.0,0.0,0.0,0.0,0.0,0.0,0.0,0.0,0.0,0.0,0.0,0.0,0.0,0.0,0.0,0.0,0.0,0.0,0.0,0.0,0.0,0.0,0.0,0.0,0.0,0.0,0.0,0.0,0.0,0.0,0.0,0.0,0.0,0.0,0.0,0.0,0.0,0.0,0.0,0.0,0.0,0.0,0.0,0.0,0.0,0.0,0.0,0.0,0.0,0.0,0.5736,0.6296,0.7146,0.7743,0.7982,0.7988,0.7896,0.7607,0.7615,0.7575,0.0,0.0,0.0,0.0,0.0,0.0,0.0,0.0,0.0,0.0,0.0,0.0,0.0,0.0,0.0,0.0,0.0,0.0,0.0,0.0,0.0,0.0,0.0,0.0,0.0,0.0,0.0,0.0,0.3025,0.2966,0.2791,0.0,0.0,0.0,0.0,0.0,0.0,0.0,0.0,0.0,0.0,0.5026,0.5351,0.5433,0.5899,0.7124,0.7768,0.8484,0.939,0.95,0.9379,0.9149,0.0,0.0,0.0,0.0,0.0,0.0,0.0,0.0,0.0,0.0,0.0,0.0,0.0,0.0,0.0,0.0,0.0,0.0,0.0,0.0,0.0,0.0,0.0,0.0,0.0,0.0,0.0,0.0,0.0,0.0,0.4553,0.0,0.0,0.0,0.0,0.0,0.0,0.0,0.0,0.0,0.0,0.0,0.0,0.0,0.0,0.0,0.0,0.0,0.0,0.0,0.0,0.0,0.0,0.0,0.6306,0.7149,0.7743,0.7978,0.7988,0.7899,0.7611,0.8402,0.7951,0.6149,0.0,0.0,0.0,0.0,0.0,0.0,0.0,0.0,0.0,0.0,0.0,0.0,0.0,0.0,0.0,0.0,0.0,0.0,0.0,0.0,0.0,0.0,0.0,0.0,0.0,0.0,0.3104,0.2998,0.2826,0.0,0.0,0.0,0.0,0.0,0.0,0.0,0.0,0.0,0.0,0.4604,0.5026,0.5358,0.5525,0.623,0.7894,0.8075,0.85,0.9881,1.033,1.0154,0.0,0.0,0.0,0.0,0.0,0.0,0.0,0.0,0.0,0.0,0.0,0.0,0.0,0.0,0.0,0.0,0.0,0.0,0.0,0.0,0.0,0.0,0.0,0.0,0.0,0.0,0.0,0.5857,0.5569,0.0,0.0,0.0,0.0,0.0,0.0,0.0,0.0,0.0,0.0,0.0,0.6563,0.6858,0.0,0.0,0.0,0.0,0.0,0.0,0.0,0.0,0.0,0.0,0.0,0.0,0.5893,0.645,0.719,0.7743,0.7978,0.7988,0.785,0.7607,0.7816,0.7647,0.7134,0.0,0.0,0.0,0.0,0.0,0.0,0.0,0.0,0.0,0.0,0.0,0.0,0.0,0.0,0.0,0.0,0.0,0.0,0.0,0.0,0.0,0.0,0.0,0.0,0.0,0.3429,0.0,0.0,0.0,0.0,0.0,0.0,0.0,0.0,0.0,0.0,0.0,0.4126,0.4469,0.4928,0.532,0.5521,0.6221,0.7081,0.0,0.0,0.0,0.0,0.0,0.0,0.0,0.0,0.0,0.0,0.0,0.0,0.0,0.0,0.7245,0.6402,0.6088,0.5946,0.5897,0.0,0.0,0.0,0.0,0.0,0.0,0.0,0.0,0.0,0.0,0.0,0.0,0.0,0.0,0.7521,0.0,0.6684,0.0,0.0,0.0,0.0,0.0,0.0,0.0,0.0,0.6946,0.7272,0.7277,0.7513,0.7468,0.0,0.6987,0.6481,0.0,0.0,0.0,0.0,0.0,0.0,0.0,0.0,0.601,0.6556,0.7292,0.779,0.7975,0.7988,0.7899,0.7604,0.7697,0.7867,0.8118,0.8207,0.8459,0.0,0.0,0.0,0.0,0.0,0.0,0.0,0.0,0.0,0.0,0.0,0.0,0.0,0.0,0.0,0.0,0.0,0.0,0.0,0.0,0.0,0.0,0.0,0.3655,0.0,0.0,0.0,0.0,0.0,0.0,0.0,0.0,0.0,0.3778,0.4111,0.447,0.49,0.5131,0.5405,0.5627,0.0,0.0,0.0,0.0,0.0,0.0,0.0,1.0281,1.0274,1.0281,1.0281,1.0274,0.9989,0.9737,0.9698,0.0,0.0,0.7841,0.7518,0.7367,0.7391,0.7513,0.7736,0.8034,0.833,0.8484,0.0,0.0,0.0,0.0,0.0,0.0,0.0,0.0,1.0945,0.9959,0.0,0.8678,0.0,0.0,0.0,0.0,0.0,0.0,0.0,0.0,0.7902,0.8194,0.8002,0.7919,0.7845,0.7831,0.7818,0.7506,0.6888,0.5737,0.0,0.0,0.0,0.0,0.0,0.0,0.6268,0.6722,0.7438,0.7885,0.7982,0.7988,0.7853,0.7647,0.8139,0.8537,0.8899,0.9642,0.9964,0.9744,0.9125,0.0,0.0,0.0,0.0,0.0,0.0,0.0,0.0,0.0,0.0,0.0,0.0,0.0,0.0,0.0,0.0,0.0,0.0,0.0,0.0,0.36,0.0,0.0,0.0,0.0,0.0,0.0,0.0,0.0,0.0,0.0,0.4264,0.4416,0.4766,0.532,0.0,0.0,0.0,0.0,0.747,0.8449,0.944,1.0305,1.0916,1.1189,1.1202,1.0707,0.0,0.0,1.0734,1.064,1.0479,0.9889,0.9793,0.9813,1.003,0.9544,0.915,0.9143,0.9102,0.9183,0.9244,0.9412,0.9619,1.6302,0.0,0.0,0.0,0.0,1.3269,1.3024,1.273,1.2775,1.2232,1.1311,1.1226,0.0,0.0,0.0,0.0,0.0,0.0,0.7417,0.7638,0.8069,0.8357,0.8516,0.8534,0.8503,0.8292,0.8187,0.7889,0.7397,0.6795,0.6033,0.5156,0.0,0.0,0.0,0.0,0.6566,0.6974,0.7493,0.7885,0.7988,0.7988,0.785,0.7607,0.8319,0.8906,0.9165,0.9911,1.041,1.0609,0.9659,0.0,0.0,0.0,0.0,0.0,0.0,0.0,0.0,0.0,0.0,0.0,0.0,0.0,0.0,0.0,0.0,0.0,0.0,0.0,0.3765,0.3805,0.3778,0.0,0.0,0.0,0.0,0.0,0.0,0.0,0.0,0.0,0.5016,0.5109,0.5242,0.0,0.0,0.5654,0.5786,0.6717,0.7668,0.8468,0.0,0.0,0.0,1.1196,1.1136,1.1162,1.1496,1.1683,1.1558,1.1531,1.1404,1.0982,1.0762,1.0648,1.0675,1.0094,0.9599,0.9559,0.9559,0.9626,0.979,0.994,1.0,1.8537,1.7276,1.6386,1.5917,1.5737,1.5701,1.5399,1.4968,1.5264,1.4713,1.3547,1.3577,1.3029,1.2038,1.0893,0.0,0.0,0.0,0.7885,0.8174,0.8969,0.9142,0.8849,0.9421,0.9316,0.8652,0.8394,0.8211,0.7946,0.758,0.6913,0.6088,0.0,0.0,0.5911,0.6454,0.6932,0.7277,0.7702,0.7897,0.7988,0.7931,0.8025,0.8297,0.9156,0.9881,1.0305,1.1089,1.1522,1.1489,1.0501,0.967,0.0,0.0,0.0,0.0,0.0,0.0,0.0,0.0,0.0,0.0,0.0,0.3752,0.0,0.0,0.0,0.0,0.3496,0.3705,0.4055,0.4404,0.0,0.0,0.0,0.0,0.0,0.0,0.0,0.4724,0.4857,0.5098,0.5515,0.5624,0.5801,0.6278,0.6382,0.659,0.7127,0.0,0.8468,0.9356,1.0092,1.0834,1.162,1.1623,1.1577,1.1744,1.1917,1.2037,1.2037,1.1957,1.181,1.1623,1.1363,1.1162,1.1136,1.0635,1.0184,1.009,1.0057,1.0124,1.0261,1.0287,1.0294,1.9867,1.9753,1.837,1.7943,1.8129,1.8135,1.7552,1.6761,1.8,1.7146,1.4893,1.5724,1.5181,1.3577,1.1305,0.0,0.0,0.8371,0.8479,0.878,1.0107,1.0085,0.8982,1.0185,1.0077,0.8851,0.8503,0.836,0.8435,0.8045,0.7631,0.7166,0.68,0.6637,0.6729,0.6977,0.7322,0.7614,0.7896,0.7988,0.7988,0.7997,0.8416,0.93,1.0388,1.125,1.1857,1.2694,1.2906,1.2318,1.1463,1.0653,0.9806,0.0,0.0,0.0,0.0,0.0,0.0,0.0,0.0,0.0,0.0,0.0,0.0,0.0,0.0,0.0,0.4222,0.0,0.4316,0.5212,0.0,0.0,0.0,0.5094,0.4197,0.4484,0.4802,0.4952,0.0,0.0,0.0,0.0,0.6533,0.7537,0.7481,0.778,0.9015,0.8971,0.939,1.039,1.0628,1.1044,1.2018,1.2238,1.2231,1.2245,1.2305,1.2291,1.2271,1.2098,1.196,1.194,1.1663,1.1456,1.1463,1.1196,1.0935,1.0667,1.0586,1.0573,1.0566,1.0566,1.0566,2.0468,2.0421,1.984,1.9519,1.9379,1.9386,1.9363,1.9279,1.9229,1.8782,1.8211,1.8009,1.7495,1.676,1.4152,1.2626,1.1961,0.9902,0.8923,0.8886,0.9208,0.9226,0.8933,0.9226,0.9163,0.876,0.8659,0.8506,0.8374,0.8214,0.8048,0.7779,0.7668,0.74,0.6912,0.7285,0.7577,0.776,0.7894,0.7988,0.8038,0.8932,0.9441,0.9309,1.115,1.2,1.1641,1.2452,1.2723,1.2305,1.1463,1.0895,1.0675,0.8911,0.0,0.0,0.0,0.0,0.0,0.0,0.0,0.0,0.0,0.5817,0.4704,0.0,0.4937,0.0,0.4756,0.5034,0.5532,0.5479,0.0,0.0,0.5308,0.4989,0.486,0.5064,0.526,0.5413,0.562,0.581,0.5956,0.678,0.7842,0.8971,0.8333,0.7794,0.8109,0.8125,0.8481,0.9475,0.9717,1.0308,1.1922,1.2305,1.2305,1.2305,1.2305,1.2305,1.2305,1.2251,1.2198,1.2184,1.1993,1.1784,1.1764,1.1523,1.1236,1.0949,1.0715,1.0586,1.0586,1.0586,1.0586,2.0869,2.0855,2.0688,2.0528,2.0361,2.01,2.0087,2.014,1.9893,1.9679,1.9519,1.8938,1.8171,1.7163,1.5619,1.4132,1.2529,1.1013,0.9904,0.9091,0.969,0.9602,0.894,0.9592,0.9486,0.8811,0.874,0.8591,0.837,0.835,0.8194,0.7992,0.7988,0.7786,0.7405,0.7672,0.7834,0.7913,0.7948,0.8287,0.8871,0.9482,1.0074,1.0778,1.18,1.2336,1.2246,1.2466,1.2509,1.2291,1.1463,1.0929,1.0814,0.9479,0.8571,0.0,0.0,0.0,0.0,0.0,0.0,0.0,0.0,0.0,0.0,0.0,0.6203,0.0,0.5743,0.0,0.6841,0.6358,0.6139,0.6453,0.6125,0.5905,0.5986,0.6196,0.6557,0.7112,0.6884,0.6723,0.6889,0.7529,0.8434,0.9617,0.9187,0.8919,0.9316,0.9076,0.9047,0.9914,0.9668,1.0046,1.1985,1.2305,1.2305,1.2305,1.2305,1.2305,1.2305,1.2305,1.2305,1.2291,1.2171,1.2064,1.2044,1.1824,1.157,1.1424,1.1075,1.0767,1.062,1.0586,1.0586,2.1142,2.1102,2.1102,2.1102,2.1069,2.0561,2.0286,2.0341,2.0301,2.0107,1.9766,1.9259,1.8172,1.6692,1.6461,1.4964,1.244,1.1989,1.0979,0.9631,1.0775,1.0572,0.9293,1.0519,1.0406,0.9206,0.8856,0.8662,0.8509,0.8419,0.8218,0.8072,0.8048,0.7988,0.7988,0.8187,0.8187,0.7988,0.8187,0.8825,0.9948,1.0031,1.088,1.2526,1.2449,1.2594,1.3134,1.2599,1.2285,1.2225,1.1516,1.0975,1.0707,1.0087,0.9479,0.0,0.8591,0.0,0.0,0.0,0.0,0.0,0.0,0.0,0.0,0.7954,0.7922,0.748,0.693,0.7056,0.8127,0.7541,0.7089,0.7129,0.725,0.7332,0.719,0.7523,0.8157,0.908,0.8529,0.8147,0.8286,0.848,0.907,0.9817,1.0095,1.0268,1.0797,1.0126,0.9722,1.0578,1.0139,1.0407,1.1875,1.2305,1.2305,1.2305,1.2305,1.2305,1.2305,1.2305,1.2305,1.2305,1.2291,1.2291,1.2298,1.2091,1.1953,1.1866,1.1396,1.0969,1.074,1.062,1.0586,2.1329,2.1109,2.1102,2.1102,2.1096,2.0989,2.0942,2.0922,2.0695,2.0294,1.98,1.9686,1.9356,1.8724,1.7466,1.6472,1.5634,1.3094,1.1728,1.1327,1.1274,1.1131,1.0871,1.1012,1.0945,1.0621,0.9449,0.8818,0.8665,0.8516,0.837,0.8225,0.8052,0.7988,0.8038,0.0,0.0,0.0,0.9069,0.9756,1.0047,1.1991,1.3033,1.2954,1.343,0.0,1.2872,1.2485,1.2198,1.2,1.1826,0.0,0.0,0.0,0.0,0.0,0.0,0.0,0.0,0.0,0.0,0.0,1.0,0.9645,0.8951,0.9051,0.8924,0.8248,0.7882,0.8199,0.9408,0.8575,0.8049,0.825,0.8562,0.8411,0.7625,0.8548,0.9382,0.9537,0.9696,0.9762,0.9802,1.0501,1.0783,1.0378,1.0999,1.0872,0.9605,0.8978,0.8606,0.8752,0.985,1.1012,1.2116,1.2305,1.2305,1.2305,1.2305,1.2305,1.2305,1.2305,1.2305,1.2305,1.2305,1.2305,1.2305,1.2258,1.2131,1.1953,1.159,1.1222,1.0969,1.0754,1.0586,2.147,0.0,2.1169,2.1102,0.0,2.1102,2.1102,2.1102,2.0955,2.0648,2.0214,1.9933,1.9713,1.9573,1.8589,1.7668,1.6756,1.5184,1.3956,1.3063,1.2893,1.2735,1.2478,1.2436,1.1955,1.1109,1.0347,0.9559,0.871,0.8635,0.8482,0.8327,0.8194,0.841,0.9023,1.0293,1.0632,0.9948,0.9998,1.0632,1.1886,1.3082,1.3676,1.3754,0.0,0.0,0.0,0.0,0.0,0.0,0.0,0.0,0.0,0.0,0.0,1.0303,1.015,1.0137,1.0276,1.0423,1.0735,1.1209,1.1545,1.1243,1.0157,1.029,1.0365,1.0125,0.9316,0.9471,1.1077,0.9516,0.8786,0.9916,0.9845,0.9568,0.9661,1.0238,1.0903,1.1315,1.1141,1.0972,1.1002,1.0983,1.0911,1.0567,1.0396,1.01,0.9152,0.8691,0.864,0.8928,1.0034,1.1286,1.2112,1.2305,1.2305,1.2305,1.2305,1.2305,1.2305,1.2305,1.2305,1.2305,1.2305,1.2305,1.2305,1.2305,1.2258,1.2134,1.185,1.1557,1.1256,1.0862,1.0586,2.1715,2.1594,2.1289,2.1156,2.1102,2.1102,2.1102,2.1102,0.0,0.0,0.0,2.0167,1.99,1.9786,1.9553,1.8752,1.7443,1.7085,1.626,1.4845,1.4803,1.4583,1.4216,1.4127,1.3167,1.159,1.1227,1.0272,0.8808,0.8726,0.8587,0.8364,0.8347,0.8996,1.0301,1.1361,1.2139,1.2528,1.1312,1.1741,1.3819,1.3856,1.4087,1.4639,1.4396,1.3821,1.2978,1.2672,1.2378,1.2074,1.1844,1.171,1.1663,1.1622,1.1602,1.1549,1.1583,1.1603,1.165,1.1663,1.179,1.212,1.2388,1.2199,1.1376,1.157,1.1844,1.2127,1.057,1.0372,1.235,1.0266,0.9375,1.1209,1.1008,1.1003,1.1582,1.1956,1.2348,1.3001,1.2565,1.2166,1.2242,1.1683,1.099,1.0775,1.012,0.9104,0.8934,0.8873,0.9086,0.9683,1.0527,1.1402,1.2115,1.2325,1.2311,1.2305,1.2305,1.2305,1.2305,1.2305,1.2305,1.2305,1.2305,1.2305,1.2305,1.2305,1.2305,1.2305,1.2107,1.1839,1.153,1.1089,1.0747,2.2011,2.1614,2.1574,2.1407,2.1102,2.1102,2.1102,2.1102,2.1102,2.0949,2.0668,2.0588,2.0274,1.98,1.976,1.9482,1.8952,1.7618,1.6885,0.0,1.6333,1.6195,1.6103,1.5733,1.4795,1.3312,1.1836,1.0335,0.9003,0.8774,0.8686,0.8621,0.8397,0.9392,1.1477,1.1804,1.3011,1.5146,1.4022,1.3536,1.392,1.4912,1.5371,1.5284,1.4983,1.4429,1.3561,1.3433,1.32,1.2703,1.2839,1.2846,1.2616,1.2589,1.2489,1.2211,1.2178,1.2285,1.2576,1.2596,1.273,1.2954,1.2201,1.1907,1.2483,1.2786,1.2979,1.2941,1.1113,1.034,1.1432,1.0544,0.9887,1.0323,1.1742,1.2519,1.1938,1.266,1.3336,1.3506,1.369,1.3684,1.3633,1.3484,1.288,1.2109,1.0907,0.9966,0.9148,0.889,0.9277,1.0026,1.086,1.1739,1.247,1.2489,1.2345,1.2305,1.2305,1.2305,1.2305,1.2305,1.2305,1.2305,1.2305,1.2305,1.2305,1.2305,1.2305,1.2291,1.2114,1.1906,1.1784,1.149,1.1129,2.2265,2.1991,2.1683,2.1476,2.1336,2.1176,2.1102,2.1102,2.1102,2.1036,2.0902,2.0748,2.0528,2.0261,1.9947,1.9733,1.9593,1.8712,1.8286,1.8273,1.8147,1.795,1.7793,1.7603,1.6593,1.4872,1.3272,1.1694,1.0135,0.9242,0.8791,0.875,0.9076,1.0226,1.1974,1.2683,1.3932,1.5683,1.4561,1.4214,1.4902,1.5486,1.5691,1.5404,1.5264,1.4863,1.4106,1.4079,1.3915,1.3534,1.3454,1.338,1.3247,1.3086,1.2939,1.2806,1.2792,1.2919,1.3213,1.3427,1.3574,1.3674,1.3216,1.3076,1.344,1.2868,1.2734,1.3286,1.2022,1.1685,1.2744,1.1892,1.1436,1.2117,1.3134,1.3476,1.3146,1.345,1.384,1.3888,1.4001,1.4088,1.4088,1.3561,1.2991,1.2285,1.1295,1.0183,0.9192,1.0005,1.0787,1.1113,1.1471,1.1972,1.2646,1.2683,1.2522,1.2338,1.2305,1.2305,1.2305,1.2305,1.2305,1.2305,1.2305,1.2305,1.2305,1.2305,1.2305,1.2291,1.2211,1.2071,1.1933,1.1637,1.1289,2.2478,2.2365,2.1937,2.1735,2.1601,2.1309,2.1169,2.1109,2.1102,2.1102,2.1076,2.0869,2.0742,2.0628,2.0194,1.9927,1.978,1.9566,1.9432,1.943,1.9424,1.9245,1.9025,1.8901,1.7922,1.6103,1.4812,1.3177,1.1232,0.9989,0.9129,0.8857,0.9763,1.0954,1.2214,1.3378,1.4527,1.5635,1.4848,1.48,1.5778,1.5825,1.5725,1.5518,1.5491,1.5244,1.4756,1.4716,1.4583,1.4302,1.4068,1.39,1.3928,1.3728,1.3607,1.3607,1.3607,1.3701,1.3921,1.4148,1.4289,1.4289,1.4025,1.4025,1.417,1.3027,1.2583,1.345,1.2806,1.2656,1.3262,1.2832,1.2681,1.3603,1.3955,1.4055,1.4082,1.4088,1.4088,1.4088,1.4088,1.4088,1.3955,1.3294,1.2681,1.2285,1.1729,1.0956,1.0183,1.1472,1.2499,1.2439,1.2324,1.2475,1.2896,1.2924,1.277,1.2458,1.2412,1.2392,1.2351,1.2305,1.2305,1.2305,1.2305,1.2305,1.2305,1.2305,1.2305,1.2305,1.2278,1.2218,1.2024,1.1757,1.145,2.2665,2.2425,2.2345,2.2031,2.1641,2.1581,2.1356,2.1136,2.1102,2.1102,2.1096,2.1076,2.0922,2.0688,2.0601,2.0301,1.984,1.9773,1.9619,1.945,1.9424,1.9345,1.935,1.9052,1.8128,1.6711,1.5984,1.4211,1.1775,1.1126,1.0206,0.8989,1.0002,1.1223,1.2269,1.3446,1.4655,1.5791,1.5683,1.5689,1.5778,1.5825,1.5764,1.5744,1.5785,1.5645,1.5311,1.5317,1.5184,1.4961,1.485,1.4881,1.4867,1.4841,1.4834,1.4814,1.4821,1.4867,1.4874,1.487,1.4908,1.4839,1.3937,1.3842,1.4716,1.3784,1.334,1.3769,1.3027,1.2583,1.2462,1.2437,1.2558,1.2832,1.3593,1.4088,1.4102,1.4088,1.4088,1.4088,1.4088,1.4088,1.4088,1.3906,1.3421,1.2413,1.2948,1.2905,1.1943,1.2772,1.373,1.3736,1.362,1.3395,1.3447,1.332,1.306,1.2817,1.2744,1.265,1.2452,1.2345,1.2305,1.2311,1.2305,1.2305,1.2305,1.2305,1.2305,1.2305,1.2305,1.2291,1.2225,1.2024,1.1772,2.2861,2.2665,2.2492,2.2184,2.181,2.1695,2.1547,2.1363,2.1176,2.1102,2.1102,2.1102,2.1042,2.0922,2.0755,2.0535,2.0301,1.996,1.9746,1.9613,1.9511,1.9424,1.941,1.9252,1.8741,1.7926,1.6871,1.5585,1.4146,1.2994,1.2031,1.1518,1.1887,1.2678,1.3782,1.4113,1.4857,1.6044,1.5919,1.5825,1.5825,1.5825,1.5825,1.5825,1.5825,1.5731,1.5671,1.5604,1.5598,1.5471,1.5317,1.5269,1.5217,1.5102,1.5015,1.5015,1.5015,1.5015,1.5015,1.5015,1.5015,1.5015,1.4546,1.4501,1.4918,1.4546,1.4391,1.4524,1.4145,1.3919,1.3862,1.3868,1.3919,1.3943,1.4182,1.4342,1.4342,1.4195,1.4088,1.4088,1.4088,1.4088,1.4088,1.4088,1.3561,1.2723,1.3343,1.3603,1.2632,1.3336,1.3997,1.4068,1.3968,1.3834,1.3646,1.352,1.33,1.312,1.3026,1.2919,1.2697,1.2603,1.2556,1.2351,1.2331,1.2325,1.2305,1.2305,1.2305,1.2305,1.2305,1.2305,1.2305,1.2211,1.2064,2.2866,2.2826,2.2625,2.2372,2.2091,2.1884,2.1769,2.1601,2.1323,2.1189,2.1109,2.1102,2.1102,2.1076,2.0882,2.0762,2.0628,2.0234,1.9947,1.98,1.9579,1.9446,1.943,1.9424,1.9252,1.888,1.7887,1.6817,1.584,1.4206,1.3379,1.3303,1.3151,1.3725,1.4838,1.4577,1.498,1.6149,1.5979,1.5629,1.5337,1.5289,1.5439,1.573,1.5439,1.5439,1.5778,1.5825,1.5825,1.5818,1.5625,1.5518,1.5511,1.5311,1.5204,1.5197,1.5204,1.5249,1.5204,1.5249,1.5204,1.5204,1.5249,1.5204,1.5249,1.5204,1.5204,1.5204,1.5197,1.5157,1.5022,1.5015,1.5015,1.4995,1.4756,1.4643,1.4629,1.4436,1.4309,1.4229,1.4229,1.4162,1.4102,1.4088,1.373,1.316,1.3555,1.387,1.3118,1.3555,1.4088,1.4088,1.4082,1.4001,1.3766,1.3733,1.3593,1.3393,1.3327,1.3227,1.2991,1.2924,1.2804,1.2585,1.2478,1.2365,1.2318,1.2305,1.2305,1.2305,1.2305,1.2305,1.2305,1.2298,1.2298,2.2866,2.2866,2.2846,2.2659,2.2398,2.2365,2.2058,2.1675,2.1601,2.1376,2.1142,2.1109,2.1102,2.1102,2.1069,2.0935,2.0702,2.0628,2.0321,1.988,1.9786,1.9626,1.9437,1.9424,1.9417,1.9285,1.8893,1.7791,1.6028,1.4515,1.3527,1.3442,1.3514,1.3992,1.4949,1.4828,1.512,1.6228,1.6025,1.5255,1.4178,1.4028,1.4513,1.5343,1.4657,1.4603,1.5588,1.5778,1.5825,1.5825,1.5751,1.5751,1.5798,1.5778,1.5752,1.5758,1.5765,1.5772,1.5752,1.5691,1.5745,1.5758,1.5718,1.5765,1.5705,1.5705,1.5705,1.5765,1.5712,1.5531,1.5162,1.5122,1.5089,1.5075,1.5015,1.4943,1.4995,1.4928,1.4783,1.4569,1.4426,1.4342,1.4122,1.4088,1.4082,1.3913,1.4039,1.3997,1.3955,1.4039,1.4088,1.4088,1.4088,1.4075,1.4062,1.4001,1.3888,1.3734,1.3601,1.3487,1.33,1.3153,1.2993,1.2864,1.275,1.261,1.2392,1.2305,1.2305,1.2305,1.2305,1.2305,1.2305,1.2305,1.2305,2.2866,2.2866,2.2866,2.2799,2.2686,2.2498,2.2291,2.2078,2.1704,2.1561,2.137,2.1196,2.1102,2.1102,2.1102,2.1056,2.0942,2.0768,2.0561,2.0321,1.998,1.9746,1.9639,1.9517,1.9424,1.9403,1.9259,1.8764,1.7852,1.6882,1.6441,1.6325,1.6154,1.6284,1.6533,1.6394,1.6463,1.6794,1.6366,1.5464,1.415,1.3137,1.2861,1.3307,1.3734,1.4118,1.4555,1.5343,1.5825,1.5825,1.5825,1.5825,1.5825,1.5825,1.5825,1.5825,1.5825,1.5825,1.5825,1.5825,1.5825,1.5825,1.5825,1.5825,1.5825,1.5825,1.5825,1.5825,1.5825,1.5698,1.5605,1.5524,1.5511,1.5498,1.5351,1.5237,1.5204,1.5129,1.4955,1.4841,1.4649,1.4409,1.4188,1.4088,1.4088,1.4088,1.4088,1.4095,1.4088,1.4088,1.4088,1.4088,1.4088,1.4088,1.4088,1.4082,1.4035,1.3988,1.3895,1.372,1.3547,1.346,1.336,1.31,1.3005,1.2817,1.2585,1.2412,1.2392,1.2305,1.2305,1.2305,1.2305,1.2305,1.2305,2.2866,2.2866,2.2866,2.2866,2.2832,2.2645,2.2505,2.2385,2.2004,2.1795,2.1608,2.1336,2.1203,2.1116,2.1102,2.1102,2.1089,2.0902,2.0762,2.0648,2.0267,1.9987,1.9786,1.9599,1.9459,1.9437,1.9424,1.9219,1.8918,1.8468,1.8189,1.7928,1.7829,1.7675,1.7555,1.7347,1.7199,1.7099,1.671,1.5566,1.3859,1.262,1.1526,1.1077,1.2323,1.3488,1.3878,1.5092,1.5825,1.5825,1.5825,1.5825,1.5825,1.5825,1.5825,1.5825,1.5825,1.5825,1.5825,1.5825,1.5825,1.5825,1.5825,1.5825,1.5825,1.5825,1.5825,1.5825,1.5825,1.5825,1.5825,1.5818,1.5825,1.5758,1.5651,1.5538,1.5524,1.5371,1.5224,1.5077,1.475,1.4462,1.4282,1.4242,1.4188,1.4108,1.4155,1.4202,1.4108,1.4088,1.4088,1.4088,1.4088,1.4088,1.4088,1.4088,1.4088,1.4048,1.4028,1.3921,1.3854,1.3746,1.362,1.336,1.318,1.2979,1.2811,1.2616,1.2482,1.2345,1.2305,1.2305,1.2305,1.2305,1.2305,2.2866,2.2866,2.2866,2.2866,2.2859,2.2832,2.2686,2.2465,2.2385,2.2071,2.169,2.1614,2.137,2.1169,2.1129,2.1102,2.1096,2.1069,2.0942,2.0722,2.0635,2.0334,1.9893,1.9793,1.9606,1.9437,1.9424,1.9219,1.8971,1.8865,1.8542,1.8115,1.7995,1.7869,1.7602,1.74,1.7226,1.7166,1.6874,1.5363,1.2815,1.2394,1.1138,0.9057,1.0797,1.2689,1.3884,1.5146,1.5825,1.5825,1.5825,1.5825,1.5825,1.5825,1.5825,1.5825,1.5825,1.5825,1.5825,1.5825,1.5825,1.5825,1.5825,1.5825,1.5825,1.5825,1.5825,1.5825,1.5825,1.5825,1.5825,1.5825,1.5825,1.5825,1.5785,1.5785,1.5792,1.5812,1.5705,1.5371,1.4923,1.4569,1.4529,1.4529,1.4442,1.4309,1.4376,1.4456,1.4262,1.4202,1.4115,1.4115,1.4108,1.4088,1.4088,1.4088,1.4088,1.4082,1.4075,1.4028,1.4008,1.3961,1.3881,1.3667,1.3467,1.3293,1.2851,1.2663,1.2549,1.2418,1.2371,1.2311,1.2305,1.2305,1.2305,2.2866,2.2866,2.2866,2.2866,2.2866,2.2866,2.2867,2.2706,2.2519,2.2311,2.2098,2.1795,2.1503,2.1447,2.1209,2.1109,2.1102,2.1102,2.1062,2.0949,2.0775,2.0588,2.0354,1.9987,1.9653,1.9464,1.9424,1.9325,1.9212,1.9025,1.8804,1.8555,1.8182,1.7955,1.7883,1.7609,1.7501,1.7415,1.7213,1.5653,1.307,1.2623,1.153,0.9954,1.1224,1.2692,1.3848,1.5146,1.5778,1.5825,1.5825,1.5825,1.5825,1.5825,1.5825,1.5825,1.5825,1.5825,1.5825,1.5825,1.5825,1.5825,1.5825,1.5825,1.5825,1.5825,1.5825,1.5825,1.5825,1.5825,1.5825,1.5825,1.5825,1.5825,1.5825,1.5825,1.5825,1.5825,1.5698,1.5458,1.5231,1.505,1.4877,1.4823,1.4776,1.4733,1.48,1.4756,1.472,1.4482,1.4396,1.4382,1.4262,1.4142,1.4155,1.4162,1.4142,1.4108,1.4088,1.4088,1.4088,1.4075,1.4008,1.3935,1.374,1.35,1.3052,1.2811,1.2744,1.2522,1.2378,1.2338,1.2311,1.2305,1.2305,2.2866,2.2866,2.2866,2.2866,2.2866,2.2866,2.2866,2.2839,2.2665,2.2525,2.2352,2.2044,2.1809,2.1614,2.1349,2.1216,2.1116,2.1102,2.1102,2.1089,2.0942,2.0788,2.0621,2.008,1.972,1.9539,1.9419,1.9424,1.9417,1.9185,1.9032,1.8858,1.8551,1.8195,1.8009,1.7862,1.7716,1.7575,1.7402,1.5925,1.3598,1.2836,1.1995,1.0799,1.1682,1.297,1.4166,1.5454,1.6004,1.5824,1.5825,1.5825,1.5825,1.5825,1.5825,1.5825,1.5825,1.5825,1.5825,1.5825,1.5825,1.5825,1.5825,1.5825,1.5825,1.5825,1.5825,1.5825,1.5825,1.5825,1.5825,1.5825,1.5825,1.5825,1.5825,1.5825,1.5825,1.5825,1.5772,1.5591,1.5451,1.5311,1.5229,1.5169,1.5115,1.5062,1.5102,1.5095,1.5022,1.4847,1.473,1.4669,1.4603,1.4462,1.4289,1.4242,1.4208,1.4148,1.4088,1.4088,1.4088,1.4088,1.4048,1.4035,1.3921,1.3754,1.3333,1.3213,1.3113,1.2792,1.2458,1.2455,1.2412,1.2325,1.2305,2.2866,2.2866,2.2866,2.2866,2.2866,2.2866,2.2866,2.2859,2.2846,2.2699,2.2485,2.2378,2.2098,2.1769,2.161,2.143,2.1182,2.1162,2.1142,2.1116,2.1056,2.0942,2.0628,2.0174,1.99,1.974,1.9533,1.9464,1.9424,1.9397,1.9225,1.8985,1.8885,1.8595,1.8182,1.8029,1.7883,1.7682,1.7589,1.6079,1.3446,1.3209,1.2626,1.1291,1.2304,1.3563,1.493,1.6039,1.6393,1.5945,1.5858,1.5825,1.5825,1.5825,1.5825,1.5825,1.5825,1.5825,1.5825,1.5825,1.5825,1.5825,1.5825,1.5825,1.5825,1.5825,1.5825,1.5825,1.5825,1.5825,1.5825,1.5825,1.5825,1.5825,1.5825,1.5825,1.5825,1.5825,1.5798,1.5765,1.5591,1.5424,1.5424,1.5418,1.5304,1.5197,1.5284,1.5284,1.517,1.5084,1.5055,1.4995,1.489,1.4743,1.4556,1.4543,1.4509,1.4462,1.4342,1.4249,1.4142,1.4095,1.4088,1.4075,1.4048,1.3881,1.3707,1.352,1.3287,1.2953,1.2764,1.2643,1.2596,1.2552,1.2525,2.2866,2.2866,2.2866,2.2866,2.2866,2.2866,2.2934,2.2928,2.2934,2.2812,2.2706,2.2512,2.2338,2.2178,2.1951,2.171,2.149,2.1423,2.1296,2.1129,2.1102,2.0949,2.0722,2.0528,2.0214,1.986,1.974,1.9579,1.9437,1.945,1.9383,1.9245,1.9038,1.8865,1.8664,1.8215,1.7975,1.7903,1.7682,1.6757,1.5122,1.4716,1.4492,1.4019,1.4147,1.4944,1.6067,1.65,1.6547,1.6186,1.5932,1.5825,1.5845,1.5832,1.5825,1.5825,1.5825,1.5825,1.5825,1.5825,1.5825,1.5825,1.5825,1.5825,1.5825,1.5825,1.5825,1.5825,1.5825,1.5825,1.5825,1.5825,1.5825,1.5825,1.5825,1.5825,1.5825,1.5825,1.5825,1.5812,1.5752,1.5705,1.5685,1.5678,1.5651,1.5591,1.5605,1.5658,1.5484,1.5364,1.5284,1.5197,1.5117,1.4977,1.487,1.485,1.483,1.4861,1.474,1.4566,1.4329,1.4115,1.4102,1.4082,1.4075,1.3961,1.374,1.356,1.3333,1.3146,1.3066,1.2986,1.3006,1.3006,1.2966,2.2866,2.2866,2.2866,2.3324,2.3856,2.3195,2.3331,2.3727,2.3195,2.2866,2.2819,2.2692,2.2532,2.2398,2.2238,2.2011,2.1815,2.1675,2.1521,2.1309,2.1169,2.1015,2.0855,2.0748,2.0494,2.0201,2.004,1.982,1.9599,1.9553,1.9486,1.9352,1.9199,1.9052,1.8885,1.8624,1.8288,1.8155,1.7882,1.7062,1.5743,1.547,1.5299,1.5159,1.5194,1.5744,1.6876,1.6967,1.6754,1.6466,1.6192,1.6019,1.5999,1.5885,1.5832,1.5825,1.5825,1.5825,1.5825,1.5825,1.5825,1.5825,1.5825,1.5825,1.5825,1.5825,1.5825,1.5825,1.5825,1.5825,1.5825,1.5825,1.5825,1.5825,1.5825,1.5825,1.5825,1.5825,1.5825,1.5825,1.5825,1.5825,1.5825,1.5825,1.5825,1.5812,1.5772,1.5798,1.5765,1.5651,1.5551,1.5464,1.5411,1.5317,1.519,1.5144,1.5057,1.5044,1.5062,1.4888,1.4576,1.4289,1.4208,1.4195,1.4135,1.4055,1.3921,1.3753,1.362,1.352,1.3407,1.33,1.3307,1.3333,1.332,2.2866,2.2866,2.2866,2.3788,2.4723,2.359,2.3659,2.4655,2.3529,2.2866,2.2859,2.2859,2.2699,2.2465,2.2472,2.2305,2.2024,2.183,2.1637,2.1463,2.1263,2.1076,2.1042,2.0869,2.0708,2.0568,2.0381,2.0127,1.9913,1.9846,1.9686,1.9512,1.9477,1.9252,1.9052,1.8911,1.8771,1.8524,1.8237,1.7594,1.6581,1.6132,1.5987,1.5957,1.5866,1.6343,1.7187,1.7367,1.7125,1.682,1.6493,1.6333,1.6286,1.6052,1.5932,1.5912,1.5919,1.5899,1.5832,1.5825,1.5825,1.5825,1.5825,1.5825,1.5825,1.5825,1.5825,1.5825,1.5825,1.5825,1.5825,1.5825,1.5825,1.5825,1.5825,1.5825,1.5825,1.5825,1.5825,1.5825,1.5825,1.5825,1.5825,1.5825,1.5825,1.5825,1.5825,1.5825,1.5825,1.5758,1.5725,1.5725,1.5698,1.5685,1.5558,1.5438,1.5324,1.5244,1.5251,1.513,1.4877,1.4623,1.4449,1.4355,1.4349,1.4289,1.4175,1.4062,1.3921,1.3834,1.3714,1.3561,1.344,1.3534,1.3554,2.2866,2.2866,2.2866,2.3133,2.3393,2.3058,2.3133,2.3529,2.3133,2.2866,2.2866,2.2866,2.2819,2.2759,2.2726,2.2605,2.2338,2.2184,2.2017,2.1588,2.1243,2.1116,2.1102,2.1009,2.0889,2.0728,2.0628,2.0428,2.0207,2.012,1.9993,1.9746,1.9659,1.9559,1.9292,1.9058,1.8911,1.8784,1.8544,1.8238,1.7883,1.7492,1.7277,1.7298,1.7117,1.7219,1.747,1.7528,1.7514,1.7288,1.6927,1.6647,1.66,1.6526,1.638,1.6219,1.6172,1.6086,1.5851,1.5885,1.5838,1.5838,1.5905,1.5825,1.5825,1.5845,1.5838,1.5825,1.5825,1.5825,1.5825,1.5825,1.5825,1.5825,1.5825,1.5825,1.5825,1.5825,1.5825,1.5825,1.5825,1.5825,1.5825,1.5825,1.5825,1.5825,1.5825,1.5825,1.5825,1.5825,1.5825,1.5825,1.5812,1.5772,1.5725,1.5625,1.5558,1.5471,1.5471,1.5451,1.5197,1.5017,1.4856,1.471,1.4589,1.4516,1.4436,1.4222,1.4068,1.4021,1.3981,1.3854,1.3774,1.3808,1.3781,2.2866,2.2866,2.2866,2.3393,2.3931,2.3256,2.3393,2.3863,2.3195,2.2866,2.2866,2.2866,2.2866,2.2866,2.2859,2.2759,2.2585,2.2311,2.1977,2.155,2.1256,2.1109,2.1102,2.1102,2.1015,2.0882,2.0875,2.0715,2.0514,2.0414,2.0294,2.0,1.9887,1.9726,1.9553,1.9279,1.9158,1.9078,1.8851,1.8698,1.8644,1.841,1.8102,1.8009,1.7822,1.7749,1.7595,1.7582,1.7582,1.7502,1.7281,1.7041,1.6901,1.6787,1.6633,1.652,1.6473,1.642,1.6273,1.6239,1.6204,1.6177,1.6184,1.6146,1.6079,1.6039,1.5952,1.5865,1.5825,1.5825,1.5825,1.5825,1.5825,1.5825,1.5825,1.5825,1.5825,1.5825,1.5825,1.5825,1.5825,1.5825,1.5825,1.5825,1.5825,1.5825,1.5825,1.5825,1.5825,1.5825,1.5825,1.5825,1.5825,1.5818,1.5818,1.5785,1.5772,1.5718,1.5698,1.5678,1.5558,1.5418,1.5284,1.5084,1.4863,1.4834,1.4689,1.4456,1.4289,1.4262,1.4229,1.4148,1.4075,1.4008,1.3981,2.2866,2.2866,2.2866,2.3788,2.4723,2.3529,2.3659,2.4588,2.3597,2.2866,2.2866,2.2866,2.2866,2.2866,2.2866,2.2866,2.2719,2.2352,2.1957,2.1728,2.1363,2.1189,2.1136,2.1102,2.1096,2.1102,2.1069,2.0922,2.0795,2.0722,2.0588,2.0314,2.0087,1.992,1.9773,1.9579,1.9392,1.9299,1.9112,1.8991,1.8938,1.8704,1.843,1.8135,1.7982,1.7856,1.7722,1.7635,1.7589,1.7589,1.7589,1.7455,1.7286,1.7007,1.6794,1.6794,1.678,1.6707,1.662,1.6633,1.6647,1.6707,1.6687,1.658,1.6393,1.6319,1.6199,1.6005,1.5892,1.5825,1.5825,1.5825,1.5825,1.5825,1.5825,1.5825,1.5825,1.5825,1.5825,1.5825,1.5825,1.5825,1.5825,1.5825,1.5825,1.5825,1.5825,1.5825,1.5825,1.5825,1.5825,1.5825,1.5825,1.5825,1.5825,1.5825,1.5825,1.5825,1.5825,1.5812,1.5744,1.5685,1.5504,1.5311,1.513,1.5109,1.5001,1.4763,1.4629,1.4563,1.4509,1.4469,1.4349,1.4202,1.4188,2.2866,2.2866,2.2866,2.3065,2.3256,2.2996,2.3065,2.3256,2.3058,2.2859,2.2866,2.2866,2.2866,2.2866,2.2866,2.2866,2.2772,2.2458,2.2171,2.1891,2.159,2.1356,2.1182,2.1116,2.1109,2.1102,2.1102,2.1062,2.1029,2.1015,2.0848,2.0635,2.0514,2.0301,1.9953,1.9733,1.9586,1.9439,1.9357,1.9245,1.9178,1.8991,1.8711,1.843,1.8195,1.8029,1.7896,1.7736,1.7589,1.7589,1.7589,1.7555,1.7482,1.7408,1.7275,1.7128,1.7074,1.7001,1.6847,1.6754,1.672,1.6707,1.676,1.674,1.666,1.662,1.6486,1.6246,1.6005,1.5858,1.5832,1.5919,1.5858,1.5852,1.5865,1.5858,1.5858,1.5838,1.5832,1.5825,1.5825,1.5825,1.5825,1.5825,1.5825,1.5825,1.5825,1.5825,1.5825,1.5825,1.5825,1.5825,1.5825,1.5825,1.5825,1.5825,1.5825,1.5825,1.5825,1.5825,1.5812,1.5818,1.5691,1.5511,1.5404,1.5344,1.5211,1.5057,1.4957,1.4877,1.4836,1.4834,1.47,1.4566,1.4462,2.2866,2.2866,2.2866,2.2866,2.2866,2.2866,2.2866,2.2866,2.2866,2.2866,2.2866,2.2866,2.2866,2.2866,2.2866,2.2866,2.2786,2.2559,2.2345,2.2138,2.177,2.1561,2.1303,2.1196,2.1116,2.1102,2.1102,2.1102,2.1102,2.1096,2.1022,2.0902,2.0768,2.0514,2.0227,1.994,1.9766,1.9579,1.9511,1.943,1.9424,1.9199,1.8998,1.8744,1.8571,1.8382,1.8263,1.8163,1.7976,1.7869,1.7822,1.7736,1.7642,1.7569,1.7581,1.7447,1.7414,1.7373,1.7188,1.7161,1.7174,1.7168,1.7148,1.7074,1.6987,1.6965,1.6837,1.6547,1.642,1.6279,1.6313,1.6266,1.6286,1.6253,1.6159,1.6066,1.6025,1.5925,1.5879,1.5852,1.5832,1.5832,1.5825,1.5825,1.5825,1.5825,1.5825,1.5825,1.5825,1.5825,1.5825,1.5825,1.5825,1.5825,1.5825,1.5825,1.5825,1.5825,1.5825,1.5825,1.5825,1.5825,1.5825,1.5745,1.5671,1.5571,1.5518,1.5384,1.5284,1.517,1.5102,1.5015,1.4968,1.4894,1.4783,2.2866,2.2866,2.2866,2.2866,2.2866,2.2866,2.2866,2.2866,2.2866,2.2866,2.2866,2.2866,2.2866,2.2866,2.2866,2.2859,2.2914,2.2605,2.2498,2.2318,2.1991,2.1717,2.1561,2.1349,2.1189,2.1102,2.1102,2.1102,2.1102,2.1102,2.1102,2.1029,2.0842,2.0715,2.0555,2.0241,1.9987,1.9733,1.9593,1.9452,1.9437,1.941,1.9265,1.9018,1.8965,1.8784,1.8597,1.8457,1.8323,1.817,1.8056,1.7876,1.7716,1.7615,1.7589,1.7589,1.7589,1.7589,1.7569,1.7549,1.7488,1.7482,1.7555,1.7494,1.7347,1.7199,1.7079,1.6847,1.6693,1.6647,1.6613,1.6673,1.6673,1.6627,1.6473,1.6346,1.6279,1.6172,1.6005,1.5952,1.5831,1.5845,1.5852,1.5825,1.5825,1.5825,1.5825,1.5825,1.5825,1.5825,1.5825,1.5825,1.5825,1.5825,1.5825,1.5825,1.5825,1.5825,1.5825,1.5825,1.5825,1.5825,1.5825,1.5825,1.5812,1.5718,1.5712,1.5685,1.5565,1.5424,1.5303,1.5256,1.5277,1.5236,1.5115,2.2866,2.2866,2.2866,2.2866,2.2866,2.2866,2.2866,2.2866,2.2866,2.2866,2.2866,2.2866,2.2866,2.2866,2.2866,2.2866,2.2839,2.2799,2.2652,2.2465,2.2291,2.1997,2.1702,2.1608,2.1336,2.1189,2.1122,2.1102,2.1102,2.1102,2.1102,2.1076,2.1042,2.0942,2.0728,2.0541,2.0307,1.9907,1.9773,1.9619,1.9426,1.9437,1.939,1.9245,1.9085,1.8938,1.8858,1.8711,1.8524,1.8437,1.8142,1.8002,1.7902,1.7722,1.7615,1.7589,1.7589,1.7589,1.7589,1.7589,1.7589,1.7589,1.7589,1.7562,1.7507,1.7353,1.7226,1.7166,1.6907,1.68,1.6814,1.6754,1.6727,1.674,1.6727,1.6667,1.6613,1.6413,1.6239,1.6172,1.6139,1.5979,1.5899,1.5858,1.5825,1.5825,1.5825,1.5825,1.5825,1.5825,1.5825,1.5825,1.5825,1.5825,1.5825,1.5825,1.5825,1.5825,1.5825,1.5825,1.5825,1.5825,1.5825,1.5825,1.5825,1.5825,1.5785,1.5765,1.5765,1.5691,1.5538,1.5605,1.5738,1.5585,1.5351,2.2866,2.2866,2.2866,2.2866,2.2866,2.2866,2.2866,2.2866,2.2866,2.2866,2.2866,2.2866,2.2866,2.2866,2.2866,2.2866,2.2866,2.2866,2.2806,2.2632,2.2498,2.2285,2.2024,2.1789,2.1514,2.1376,2.1203,2.1102,2.1102,2.1109,2.1102,2.1102,2.1102,2.1062,2.0882,2.0755,2.0555,2.0267,2.0,1.9746,1.9606,1.9466,1.9424,1.9424,1.9232,1.9178,1.9125,1.9078,1.8885,1.8778,1.8584,1.8464,1.8222,1.8036,1.7849,1.7836,1.7669,1.7589,1.7589,1.7589,1.7589,1.7589,1.7589,1.7582,1.7555,1.7475,1.744,1.7447,1.734,1.7194,1.7174,1.7201,1.7201,1.7168,1.7021,1.6974,1.6901,1.6673,1.6506,1.6453,1.6393,1.6239,1.6079,1.5992,1.5919,1.5825,1.5825,1.5825,1.5825,1.5825,1.5825,1.5825,1.5825,1.5825,1.5825,1.5825,1.5825,1.5825,1.5825,1.5825,1.5825,1.5825,1.5825,1.5825,1.5825,1.5825,1.5825,1.5818,1.5798,1.5812,1.5818,1.5825,1.5825,1.5798,1.5578,2.2866,2.2866,2.2866,2.2866,2.2866,2.2866,2.2866,2.2866,2.2866,2.2866,2.2866,2.2866,2.2866,2.2866,2.2866,2.2866,2.2866,2.2866,2.2866,2.2779,2.2659,2.2498,2.2285,2.1951,2.1822,2.1715,2.1383,2.1269,2.1216,2.1156,2.1102,2.1102,2.1102,2.1096,2.1049,2.0922,2.0742,2.0575,2.016,1.99,1.9766,1.9593,1.9459,1.945,1.9424,1.9424,1.9424,1.9403,1.9199,1.9085,1.8905,1.8751,1.8584,1.833,1.817,1.8123,1.7976,1.7836,1.7742,1.7662,1.7602,1.7589,1.7589,1.7589,1.7582,1.7589,1.7582,1.7549,1.7535,1.7542,1.7582,1.7549,1.7508,1.7435,1.7361,1.736,1.7259,1.6974,1.6807,1.676,1.6673,1.654,1.638,1.6199,1.6046,1.5872,1.5825,1.5845,1.5845,1.5858,1.5838,1.5838,1.5825,1.5825,1.5825,1.5825,1.5825,1.5825,1.5825,1.5825,1.5825,1.5825,1.5825,1.5825,1.5825,1.5825,1.5825,1.5825,1.5825,1.5825,1.5825,1.5825,1.5825,1.5825,1.5792,2.2866,2.2866,2.2866,2.2866,2.2866,2.2866,2.2866,2.2866,2.2866,2.2866,2.2866,2.2866,2.2866,2.2866,2.2866,2.2866,2.2866,2.2866,2.2866,2.2859,2.2819,2.2659,2.2478,2.2325,2.2164,2.1944,2.1663,2.1594,2.1534,2.1336,2.1203,2.1102,2.1122,2.1109,2.1089,2.1036,2.0909,2.0722,2.0368,2.0094,1.9947,1.9786,1.9659,1.9446,1.9444,1.9424,1.9424,1.9424,1.9403,1.9265,1.9098,1.8985,1.8865,1.8611,1.847,1.843,1.8343,1.819,1.8036,1.7789,1.7609,1.7589,1.7589,1.7589,1.7589,1.7589,1.7589,1.7589,1.7589,1.7589,1.7589,1.7589,1.7589,1.7562,1.7502,1.7488,1.744,1.7313,1.7166,1.7112,1.7025,1.686,1.674,1.6573,1.6339,1.6166,1.6079,1.6092,1.5952,1.5932,1.5872,1.5852,1.5832,1.5825,1.5825,1.5825,1.5825,1.5825,1.5825,1.5825,1.5825,1.5825,1.5825,1.5825,1.5825,1.5825,1.5825,1.5825,1.5825,1.5825,1.5825,1.5825,1.5825,1.5825,1.5825,2.2866,2.2866,2.2866,2.2866,2.2866,2.2866,2.2866,2.2866,2.2866,2.2866,2.2866,2.2866,2.2866,2.2866,2.2866,2.2866,2.2866,2.2866,2.2866,2.2866,2.2832,2.2786,2.2652,2.2505,2.2345,2.2205,2.1971,2.1817,2.179,2.1643,2.1523,2.141,2.1243,2.1122,2.1102,2.1102,2.1022,2.0909,2.0668,2.0428,2.0354,2.0127,1.9927,1.9666,1.9639,1.9526,1.9406,1.943,1.9424,1.9397,1.9239,1.9192,1.9132,1.8891,1.8778,1.8731,1.8637,1.8477,1.8317,1.8036,1.7796,1.7602,1.7589,1.7609,1.7655,1.7602,1.7589,1.7589,1.7589,1.7589,1.7589,1.7589,1.7589,1.7589,1.7589,1.7589,1.7535,1.746,1.742,1.7347,1.7333,1.7286,1.7152,1.7018,1.6714,1.648,1.64,1.6306,1.6186,1.6086,1.6059,1.6012,1.5999,1.5905,1.5899,1.5872,1.5838,1.5825,1.5825,1.5825,1.5825,1.5825,1.5825,1.5825,1.5825,1.5825,1.5825,1.5825,1.5825,1.5825,1.5825,1.5825,1.5825,1.5825,1.5825,2.2866,2.2866,2.2866,2.2866,2.2866,2.2866,2.2866,2.2866,2.2866,2.2866,2.2866,2.2866,2.2866,2.2866,2.2866,2.2866,2.2866,2.2866,2.2866,2.2866,2.2866,2.2866,2.2792,2.2692,2.2579,2.2478,2.2278,2.2111,2.2111,2.2031,2.1857,2.1657,2.1476,2.1356,2.1102,2.1102,2.1102,2.1042,2.0942,2.0735,2.0655,2.0474,2.0227,1.9947,1.984,1.97,1.9526,1.9511,1.9424,1.9424,1.9403,1.9417,1.9343,1.9192,1.9078,1.8978,1.8878,1.8718,1.8564,1.8343,1.809,1.7963,1.7909,1.7896,1.7889,1.7776,1.7769,1.7742,1.7675,1.7595,1.7609,1.7589,1.7589,1.7589,1.7589,1.7589,1.7589,1.7515,1.7528,1.7515,1.7495,1.7501,1.7447,1.7293,1.6974,1.6727,1.6573,1.6506,1.646,1.638,1.6339,1.6286,1.6226,1.6112,1.5999,1.6032,1.6025,1.5825,1.5825,1.5825,1.5825,1.5832,1.5832,1.5825,1.5825,1.5825,1.5825,1.5825,1.5825,1.5825,1.5825,1.5825,1.5825,1.5825,1.5825,2.2866,2.2866,2.2866,2.2866,2.2866,2.2866,2.2866,2.2866,2.2866,2.2866,2.2866,2.2866,2.2866,2.2866,2.2866,2.2866,2.2866,2.2866,2.2866,2.2866,2.2866,2.2866,2.2853,2.2806,2.2759,2.2766,2.2579,2.2405,2.2405,2.2245,2.2078,2.1971,2.1844,2.1617,2.1162,2.1109,2.1109,2.1102,2.1076,2.0922,2.0775,2.0688,2.0508,2.0254,2.0054,1.9927,1.97,1.9604,1.9504,1.943,1.9424,1.9424,1.9403,1.939,1.935,1.9343,1.935,1.9158,1.8931,1.8651,1.8484,1.8357,1.8257,1.8303,1.8343,1.8223,1.7982,1.8023,1.7862,1.7702,1.7635,1.7642,1.7689,1.7722,1.7749,1.7709,1.7729,1.7689,1.7709,1.7615,1.7589,1.7575,1.7575,1.7488,1.7221,1.6981,1.6774,1.67,1.6707,1.6673,1.664,1.65,1.6426,1.638,1.6286,1.6273,1.6206,1.5972,1.5872,1.5925,1.5892,1.5858,1.5852,1.5838,1.5825,1.5825,1.5825,1.5825,1.5825,1.5825,1.5825,1.5825,1.5825,1.5825,1.5825,2.2866,2.2866,2.2866,2.2866,2.2866,2.2866,2.2866,2.2866,2.2866,2.2866,2.2866,2.2866,2.2866,2.2866,2.2866,2.2866,2.2866,2.2866,2.2866,2.2866,2.2866,2.2866,2.2866,2.2866,2.2866,2.2839,2.2732,2.2686,2.2712,2.2532,2.2412,2.2318,2.2091,2.1777,2.1443,2.1249,2.1102,2.1102,2.1096,2.1056,2.0969,2.0935,2.0815,2.0535,2.0401,2.018,1.988,1.9713,1.9559,1.9419,1.9457,1.9424,1.9424,1.9424,1.9424,1.9424,1.9424,1.9339,1.9225,1.9078,1.8871,1.8677,1.8551,1.8557,1.847,1.8424,1.835,1.8323,1.8203,1.8123,1.8196,1.8196,1.8223,1.823,1.8217,1.8083,1.8036,1.7949,1.7889,1.7682,1.7589,1.7589,1.7595,1.7589,1.7382,1.7328,1.7161,1.7048,1.7079,1.7032,1.6985,1.6734,1.662,1.6613,1.6593,1.6573,1.652,1.6353,1.6213,1.6159,1.6086,1.6012,1.5912,1.5912,1.5865,1.5825,1.5825,1.5825,1.5825,1.5825,1.5825,1.5825,1.5825,1.5825,1.5825,2.2866,2.2866,2.2866,2.2866,2.2866,2.2866,2.2866,2.2866,2.2866,2.2866,2.2866,2.2866,2.2866,2.2866,2.2866,2.2866,2.2866,2.2866,2.2866,2.2866,2.2866,2.2866,2.2866,2.2866,2.2866,2.2866,2.2866,2.2853,2.2832,2.2853,2.2746,2.2539,2.2278,2.2091,2.1804,2.1557,2.1283,2.1263,2.1216,2.1096,2.1076,2.1062,2.1009,2.0842,2.0681,2.0549,2.016,1.992,1.9726,1.9559,1.9497,1.9444,1.943,1.943,1.9424,1.9424,1.9424,1.9366,1.9403,1.9397,1.9169,1.8898,1.8798,1.8798,1.8758,1.8718,1.8664,1.8617,1.8577,1.8517,1.8504,1.8531,1.8537,1.8537,1.849,1.835,1.829,1.821,1.8035,1.7869,1.7722,1.7689,1.7615,1.7589,1.7522,1.7542,1.7555,1.7487,1.7367,1.7313,1.7266,1.7068,1.6941,1.6961,1.6934,1.6867,1.6807,1.672,1.658,1.6433,1.6406,1.6346,1.6166,1.6005,1.6025,1.5999,1.5865,1.5825,1.5825,1.5825,1.5825,1.5825,1.5825,1.5825,1.5825,2.2866,2.2866,2.2866,2.2866,2.2866,2.2866,2.2866,2.2866,2.2866,2.2866,2.2866,2.2866,2.2866,2.2866,2.2866,2.2866,2.2866,2.2866,2.2866,2.2866,2.2866,2.2866,2.2866,2.2866,2.2866,2.2866,2.2866,2.2866,2.2866,2.2866,2.2846,2.2786,2.2552,2.2418,2.2211,2.1937,2.1688,2.1527,2.1309,2.1189,2.1129,2.1096,2.1076,2.0975,2.0855,2.0702,2.0441,2.0201,1.996,1.9753,1.9566,1.9511,1.945,1.9437,1.943,1.9424,1.9424,1.9424,1.9424,1.9424,1.941,1.9263,1.9316,1.939,1.9245,1.9045,1.8965,1.8885,1.8818,1.8684,1.8597,1.8624,1.8644,1.8644,1.8637,1.8577,1.8537,1.8444,1.833,1.817,1.7969,1.7856,1.7729,1.7662,1.7649,1.7589,1.7589,1.7569,1.7527,1.7541,1.7501,1.7507,1.7361,1.7355,1.7347,1.7219,1.7121,1.7041,1.6854,1.672,1.67,1.6647,1.6453,1.6313,1.6266,1.6186,1.6039,1.5912,1.5825,1.5825,1.5832,1.5825,1.5825,1.5825,1.5825,2.2866,2.2866,2.2866,2.2866,2.2866,2.2866,2.2866,2.2866,2.2866,2.2866,2.2866,2.2866,2.2866,2.2866,2.2866,2.2866,2.2866,2.2866,2.2866,2.2866,2.2866,2.2866,2.2866,2.2866,2.2866,2.2866,2.2866,2.2866,2.2866,2.2866,2.2866,2.2826,2.2746,2.2712,2.2585,2.2352,2.1971,2.1702,2.1521,2.1283,2.1149,2.1102,2.1102,2.1049,2.1015,2.0869,2.0648,2.0514,2.0301,2.0087,1.9833,1.9686,1.9666,1.9492,1.9424,1.9424,1.9424,1.9424,1.9424,1.9424,1.9424,1.9424,1.9424,1.9424,1.9332,1.9285,1.9205,1.9125,1.9078,1.8985,1.8951,1.8958,1.8965,1.8958,1.8945,1.8911,1.8865,1.8771,1.8637,1.8424,1.8222,1.8049,1.7909,1.7776,1.7749,1.7642,1.7602,1.7622,1.7602,1.7609,1.7589,1.7589,1.7569,1.7502,1.7515,1.7422,1.7408,1.7355,1.7161,1.7007,1.6987,1.6901,1.6727,1.6587,1.648,1.6346,1.6199,1.6072,1.5932,1.5804,1.5791,1.5832,1.5825,1.5825,1.5825,2.2866,2.2866,2.2866,2.2866,2.2866,2.2866,2.2866,2.2866,2.2866,2.2866,2.2866,2.2866,2.2866,2.2866,2.2866,2.2866,2.2866,2.2866,2.2866,2.2866,2.2866,2.2866,2.2866,2.2866,2.2866,2.2866,2.2866,2.2866,2.2866,2.2866,2.2866,2.2866,2.2866,2.2866,2.2786,2.2619,2.2271,2.1956,2.1583,2.1383,2.1223,2.1102,2.1102,2.1102,2.1102,2.0982,2.0848,2.0775,2.0575,2.0388,2.0127,1.9973,1.992,1.9713,1.9504,1.9484,1.9424,1.9424,1.9424,1.9424,1.9424,1.9424,1.9424,1.9424,1.9424,1.9397,1.9383,1.9363,1.939,1.9397,1.941,1.9417,1.941,1.9403,1.9363,1.933,1.9192,1.9112,1.8911,1.8677,1.849,1.831,1.815,1.7996,1.7936,1.7976,1.7923,1.7829,1.7756,1.7662,1.7622,1.7589,1.7589,1.7569,1.7589,1.7589,1.7542,1.7495,1.7428,1.7315,1.7333,1.7266,1.7088,1.6874,1.6697,1.6533,1.6446,1.6206,1.6046,1.5999,1.5891,1.5838,1.5865,1.5825,1.5825,2.2839,2.2866,2.2866,2.2866,2.2866,2.2866,2.2866,2.2866,2.2866,2.2866,2.2866,2.2866,2.2866,2.2866,2.2866,2.2866,2.2866,2.2866,2.2866,2.2866,2.2866,2.2866,2.2866,2.2866,2.2866,2.2866,2.2866,2.2866,2.2866,2.2866,2.2866,2.2866,2.2866,2.2866,2.2846,2.2826,2.2512,2.2091,2.1757,2.1496,2.1209,2.1102,2.1102,2.1102,2.1102,2.1076,2.1022,2.0895,2.0708,2.0615,2.0461,2.0281,2.0114,1.9987,1.972,1.9533,1.9537,1.9412,1.945,1.9424,1.9424,1.9424,1.9424,1.9424,1.9424,1.9424,1.9424,1.9424,1.9424,1.9424,1.9424,1.9424,1.9424,1.9424,1.9403,1.9383,1.9292,1.9239,1.9145,1.8925,1.8724,1.8564,1.8484,1.8343,1.8196,1.8303,1.827,1.811,1.8016,1.7869,1.7722,1.7655,1.7595,1.7595,1.7589,1.7589,1.7589,1.7562,1.7549,1.7535,1.7448,1.7501,1.7527,1.7266,1.6998,1.6827,1.67,1.6473,1.6313,1.6279,1.6192,1.5957,1.5884,1.5952,1.5852,2.2659,2.2853,2.2866,2.2866,2.2866,2.2866,2.2866,2.2866,2.2866,2.2866,2.2866,2.2866,2.2866,2.2866,2.2866,2.2866,2.2866,2.2866,2.2866,2.2866,2.2866,2.2866,2.2866,2.2866,2.2866,2.2866,2.2866,2.2866,2.2866,2.2866,2.2866,2.2866,2.2866,2.2866,2.2866,2.2859,2.2645,2.2258,2.2017,2.1617,2.1216,2.1122,2.1102,2.1102,2.1102,2.1102,2.1069,2.1049,2.0995,2.0955,2.0715,2.0481,2.0241,2.0107,1.9987,1.9766,1.9673,1.9566,1.9452,1.945,1.9424,1.9424,1.9424,1.9424,1.9424,1.9424,1.9424,1.9424,1.9424,1.9424,1.9424,1.9424,1.9424,1.9424,1.9424,1.9424,1.9424,1.9403,1.9383,1.9165,1.8958,1.8865,1.8791,1.8691,1.8544,1.8477,1.8457,1.8384,1.837,1.825,1.7963,1.7842,1.7642,1.7609,1.7595,1.7589,1.7589,1.7589,1.7569,1.7575,1.7589,1.7562,1.7581,1.7501,1.7281,1.7134,1.6967,1.6767,1.664,1.6593,1.6486,1.6319,1.6286,1.6299,1.6072,2.2398,2.2665,2.2881,2.2866,2.2866,2.2866,2.2866,2.2866,2.2866,2.2866,2.2866,2.2866,2.2866,2.2866,2.2866,2.2866,2.2866,2.2866,2.2866,2.2866,2.2866,2.2866,2.2866,2.2866,2.2866,2.2866,2.2866,2.2866,2.2866,2.2866,2.2866,2.2866,2.2866,2.2866,2.2866,2.2839,2.2719,2.2418,2.2245,2.1864,2.1343,2.1216,2.1122,2.1102,2.1102,2.1102,2.1102,2.1102,2.1102,2.1096,2.0935,2.0722,2.0528,2.0441,2.0274,2.004,1.9867,1.9726,1.9586,1.9524,1.9457,1.945,1.9424,1.9424,1.9424,1.9424,1.9424,1.9424,1.9424,1.9424,1.9424,1.9424,1.9424,1.9424,1.9424,1.9424,1.9424,1.9417,1.9403,1.9357,1.9172,1.9152,1.9105,1.9092,1.8958,1.8911,1.8851,1.8698,1.8671,1.8624,1.8337,1.8096,1.7943,1.7695,1.7595,1.7589,1.7589,1.7589,1.7589,1.7589,1.7589,1.7589,1.7562,1.7502,1.7455,1.7415,1.7235,1.7048,1.6954,1.6951,1.6787,1.6647,1.6647,1.6627,1.644,2.2124,2.2438,2.2692,2.2826,2.2866,2.2866,2.2866,2.2866,2.2866,2.2866,2.2866,2.2866,2.2866,2.2866,2.2866,2.2866,2.2866,2.2866,2.2866,2.2866,2.2866,2.2866,2.2866,2.2866,2.2866,2.2866,2.2866,2.2866,2.2866,2.2866,2.2866,2.2866,2.2866,2.2866,2.2866,2.2839,2.2732,2.2565,2.2372,2.2131,2.1737,2.1336,2.1203,2.1136,2.1102,2.1102,2.1102,2.1102,2.1102,2.1096,2.1076,2.0942,2.0815,2.0722,2.0541,2.0334,2.014,2.0,1.9826,1.9619,1.9584,1.9504,1.9457,1.943,1.943,1.9424,1.9424,1.9424,1.9424,1.9424,1.9424,1.9424,1.9424,1.9424,1.9424,1.9424,1.9424,1.9424,1.9424,1.9424,1.9417,1.9403,1.9403,1.9403,1.9383,1.9292,1.9219,1.9085,1.8965,1.8891,1.8718,1.8524,1.8364,1.809,1.7756,1.7629,1.7642,1.7589,1.7589,1.7589,1.7589,1.7589,1.7589,1.7582,1.7542,1.7508,1.7468,1.7373,1.7306,1.7233,1.7141,1.7034,1.6967,1.6934,1.682,2.1944,2.2425,2.2485,2.2639,2.2839,2.2866,2.2866,2.2866,2.2866,2.2866,2.2866,2.2866,2.2866,2.2866,2.2866,2.2866,2.2866,2.2866,2.2866,2.2866,2.2866,2.2866,2.2866,2.2866,2.2866,2.2866,2.2866,2.2866,2.2866,2.2866,2.2866,2.2866,2.2866,2.2866,2.2866,2.2846,2.2819,2.2686,2.2545,2.2331,2.2164,2.177,2.1356,2.1223,2.1102,2.1102,2.1102,2.1102,2.1102,2.1102,2.1102,2.1062,2.1015,2.0955,2.0815,2.0641,2.0448,2.0307,2.0127,1.9873,1.9753,1.9639,1.9566,1.9399,1.945,1.9424,1.9424,1.9424,1.9424,1.9424,1.9424,1.9424,1.9424,1.9424,1.9424,1.9424,1.9424,1.9424,1.9424,1.9424,1.9424,1.9417,1.9417,1.9417,1.9417,1.9397,1.939,1.9219,1.9199,1.9138,1.9058,1.8911,1.8738,1.843,1.807,1.7789,1.7722,1.7649,1.7615,1.7675,1.7675,1.7595,1.7589,1.7589,1.7589,1.7562,1.7574,1.7541,1.7534,1.7474,1.7475,1.7435,1.7335,1.7228,1.7114]}]]